[[{"header":{"parameterUnit":"m.s-1","parameterCategory":1,"la1":31.0,"la2":29.5877,"lo1":-88.7671,"lo2":-86.6584,"dx":0.0162,"dy":0.0185,"nx":115,"ny":88,"refTime":"2022-12-04T06:00:00:Z","depth":0,"parameterNumber":2,"parameterNumberName":"U-component_of_WINDS"},"data":[0.0,0.0,0.0,0.0,0.0,0.0,0.0,0.0,0.0,0.0,0.0,0.0,0.0,0.0,0.0,0.0,0.0,0.0,0.0,0.0,0.0,0.0,0.0,0.0,0.0,0.0,0.0,0.0,0.0,0.0,0.0,0.0,0.0,0.0,0.0,0.0,0.0,0.0,0.0,0.0,0.0,0.0,0.0,0.0,0.0,0.0,0.0,0.0,0.0,0.0,0.0,0.0,0.0,0.0,0.0,0.0,0.0,0.0,0.0,0.0,0.0,0.0,0.0,0.0,0.0,0.0,0.0,0.0,0.0,0.0,0.0,0.0,0.0,0.0,0.0,0.0,0.0,0.0,0.0,0.0,0.0,0.0,0.0,0.0,0.0,0.0,0.0,0.0,0.0,0.0,0.0,0.0,0.0,0.0,0.0,0.0,0.0,0.0,0.0,0.0,0.0,0.0,0.0,0.0,0.0,0.0,0.0,0.0,0.0,0.0,0.0,0.0,0.0,0.0,0.0,0.0,0.0,0.0,0.0,0.0,0.0,0.0,0.0,0.0,0.0,0.0,0.0,0.0,0.0,0.0,0.0,0.0,0.0,0.0,0.0,0.0,0.0,0.0,0.0,0.0,0.0,0.0,0.0,0.0,0.0,0.0,0.0,0.0,0.0,0.0,0.0,0.0,0.0,0.0,0.0,0.0,0.0,0.0,0.0,0.0,0.0,0.0,0.0,0.0,0.0,0.0,0.0,0.0,0.0,0.0,0.0,0.0,0.0,0.0,0.0,0.0,0.0,0.0,0.0,0.0,0.0,0.0,0.0,0.0,0.0,0.0,0.0,0.0,0.0,0.0,0.0,0.0,0.0,0.0,0.0,0.0,0.0,0.0,0.0,0.0,0.0,0.0,0.0,0.0,0.0,0.0,0.0,0.0,0.0,0.0,0.0,0.0,0.0,0.0,0.0,0.0,0.0,0.0,0.0,0.0,0.0,0.0,0.0,0.0,0.0,0.0,0.0,0.0,0.0,0.0,0.0,0.0,0.0,0.0,0.0,0.0,0.0,0.0,0.0,0.0,0.0,0.0,0.0,0.0,0.0,0.0,0.0,0.0,0.0,0.0,0.0,0.0,0.0,0.0,0.0,0.0,0.0,0.0,0.0,0.0,0.0,0.0,0.0,0.0,0.0,0.0,0.0,0.0,0.0,0.0,0.0,0.0,0.0,0.0,0.0,0.0,0.0,0.0,0.0,0.0,0.0,0.0,0.0,0.0,0.0,0.0,0.0,0.0,0.0,0.0,0.0,0.0,0.0,0.0,0.0,0.0,0.0,0.0,0.0,0.0,0.0,0.0,0.0,0.0,0.0,0.0,0.0,0.0,0.0,0.0,0.0,0.0,0.0,0.0,0.0,0.0,0.0,0.0,0.0,0.0,0.0,0.0,0.0,0.0,0.0,0.0,0.0,0.0,0.0,0.0,0.0,0.0,0.0,0.0,0.0,0.0,0.0,0.0,0.0,0.0,0.0,0.0,0.0,0.0,0.0,0.0,0.0,0.0,0.0,0.0,0.0,0.0,0.0,0.0,0.0,0.0,0.0,0.0,0.0,0.0,0.0,0.0,0.0,0.0,0.0,0.0,0.0,0.0,0.0,0.0,0.0,0.0,0.0,0.0,0.0,0.0,0.0,0.0,0.0,0.0,0.0,0.0,0.0,0.0,0.0,0.0,0.0,0.0,0.0,0.0,0.0,0.0,0.0,0.0,0.0,0.0,0.0,0.0,0.0,0.0,0.0,0.0,0.0,0.0,0.0,0.0,0.0,0.0,0.0,0.0,0.0,0.0,0.0,0.0,0.0,0.0,0.0,0.0,0.0,0.0,0.0,0.0,0.0,0.0,0.0,0.0,0.0,0.0,0.0,0.0,0.0,0.0,0.0,0.0,0.0,0.0,0.0,0.0,0.0,0.0,0.0,0.0,0.0,0.0,0.0,0.0,0.0,0.0,0.0,0.0,0.0,0.0,0.0,0.0,0.0,0.0,0.0,0.0,0.0,0.0,0.0,0.0,0.0,0.0,0.0,0.0,0.0,0.0,0.0,0.0,0.0,0.0,0.0,0.0,0.0,0.0,0.0,0.0,0.0,0.0,0.0,0.0,0.0,0.0,0.0,0.0,0.0,0.0,0.0,0.0,0.0,0.0,0.0,0.0,0.0,0.0,0.0,0.0,0.0,0.0,0.0,0.0,0.0,0.0,0.0,0.0,0.0,0.0,0.0,0.0,0.0,0.0,0.0,0.0,0.0,0.0,0.0,0.0,0.0,0.0,0.0,0.0,0.0,0.0,0.0,0.0,0.0,0.0,0.0,0.0,0.0,0.0,0.0,0.0,0.0,0.0,0.0,0.0,0.0,0.0,0.0,0.0,0.0,0.0,0.0,0.0,0.0,0.0,0.0,0.0,0.0,0.0,0.0,0.0,0.0,0.0,0.0,0.0,0.0,0.0,0.0,0.0,0.0,0.0,0.0,0.0,0.0,0.0,0.0,0.0,0.0,0.0,0.0,0.0,0.0,0.0,0.0,0.0,0.0,0.0,0.0,0.0,0.0,0.0,0.0,0.0,0.0,0.0,0.0,0.0,0.0,0.0,0.0,0.0,0.0,0.0,0.0,0.0,0.0,0.0,0.0,0.0,0.0,0.0,0.0,0.0,0.0,0.0,0.0,0.0,0.0,0.0,0.0,0.0,0.0,0.0,0.0,0.0,0.0,0.0,0.0,0.0,0.0,0.0,0.0,0.0,0.0,0.0,0.0,0.0,0.0,0.0,0.0,0.0,0.0,0.0,0.0,0.0,0.0,0.0,0.0,0.0,0.0,0.0,0.0,0.0,0.0,0.0,0.0,0.0,0.0,0.0,0.0,0.0,0.0,0.0,0.0,0.0,0.0,0.0,0.0,0.0,0.0,0.0,0.0,0.0,0.0,0.0,0.0,0.0,0.0,0.0,0.0,0.0,0.0,0.0,0.0,0.0,0.0,0.0,0.0,0.0,0.0,0.0,0.0,0.0,0.0,0.0,0.0,0.0,0.0,0.0,0.0,0.0,0.0,0.0,0.0,0.0,0.0,0.0,0.0,0.0,0.0,0.0,0.0,0.0,0.0,0.0,0.0,0.0,0.0,0.0,0.0,0.0,0.0,0.0,0.0,0.0,0.0,0.0,0.0,0.0,0.0,0.0,0.0,0.0,0.0,0.0,0.0,0.0,0.0,0.0,0.0,0.0,0.0,0.0,0.0,0.0,0.0,0.0,0.0,0.0,0.0,0.0,0.0,0.0,0.0,0.0,0.0,0.0,0.0,0.0,0.0,0.0,0.0,0.0,0.0,0.0,0.0,0.0,0.0,0.0,0.0,0.0,0.0,0.0,0.0,0.0,0.0,0.0,0.0,0.0,0.0,0.0,0.0,0.0,0.0,0.0,0.0,0.0,0.0,0.0,0.0,0.0,0.0,0.0,0.0,0.0,0.0,0.0,0.0,0.0,0.0,0.0,0.0,0.0,0.0,0.0,0.0,0.0,0.0,0.0,0.0,0.0,0.0,0.0,0.0,0.0,0.0,0.0,0.0,0.0,0.0,0.0,0.0,0.0,0.0,0.0,0.0,0.0,0.0,0.0,0.0,0.0,0.0,0.0,0.0,0.0,0.0,0.0,0.0,0.0,0.0,0.0,0.0,0.0,0.0,0.0,0.0,0.0,0.0,0.0,0.0,0.0,0.0,0.0,0.0,0.0,0.0,0.0,0.0,0.0,0.0,0.0,0.0,0.0,0.0,0.0,0.0,0.0,0.0,0.0,0.0,0.0,0.0,0.0,0.0,0.0,0.0,0.0,0.0,0.0,0.0,0.0,0.0,0.0,0.0,0.0,0.0,0.0,0.0,0.0,0.0,0.0,0.0,0.0,0.0,0.0,0.0,0.0,0.0,0.0,0.0,0.0,0.0,0.0,0.0,0.0,0.0,0.0,0.0,0.0,0.0,0.0,0.0,0.0,0.0,0.0,0.0,0.0,0.0,0.0,0.0,0.0,0.0,0.0,0.0,0.0,0.0,0.0,0.0,0.0,0.0,0.0,0.0,0.0,0.0,0.0,0.0,0.0,0.0,0.0,0.0,0.0,0.0,0.0,0.0,0.0,0.0,0.0,0.0,0.0,0.0,0.0,0.0,0.0,0.0,0.0,0.0,0.0,0.0,0.0,0.0,0.0,0.0,0.0,0.0,0.0,0.0,0.0,0.0,0.0,3.0337,0.0,0.0,0.0,2.8924,0.0,0.0,0.0,0.0,0.0,0.0,0.0,0.0,0.0,0.0,0.0,0.0,0.0,0.0,0.0,0.0,0.0,0.0,0.0,0.0,0.0,0.0,0.0,0.0,0.0,0.0,0.0,0.0,0.0,0.0,0.0,0.0,0.0,0.0,0.0,0.0,0.0,0.0,0.0,0.0,0.0,0.0,0.0,0.0,0.0,0.0,0.0,0.0,0.0,0.0,0.0,0.0,0.0,0.0,0.0,0.0,0.0,0.0,0.0,0.0,0.0,0.0,0.0,0.0,0.0,0.0,0.0,0.0,0.0,0.0,0.0,0.0,0.0,0.0,0.0,0.0,0.0,0.0,0.0,0.0,0.0,0.0,0.0,0.0,0.0,0.0,0.0,0.0,0.0,0.0,0.0,0.0,0.0,0.0,0.0,0.0,0.0,0.0,0.0,0.0,0.0,0.0,0.0,0.0,0.0,0.0,0.0,0.0,0.0,0.0,3.0337,3.0398,3.0379,2.9896,2.8918,0.0,0.0,0.0,0.0,0.0,0.0,0.0,0.0,0.0,0.0,0.0,0.0,0.0,0.0,0.0,0.0,0.0,0.0,0.0,0.0,0.0,0.0,0.0,0.0,0.0,0.0,0.0,0.0,0.0,0.0,0.0,0.0,0.0,0.0,0.0,0.0,0.0,0.0,0.0,0.0,0.0,0.0,0.0,0.0,0.0,0.0,0.0,0.0,0.0,0.0,0.0,0.0,0.0,0.0,0.0,0.0,0.0,0.0,0.0,0.0,0.0,0.0,0.0,0.0,0.0,0.0,0.0,0.0,0.0,0.0,0.0,0.0,0.0,0.0,0.0,0.0,0.0,0.0,0.0,0.0,0.0,0.0,0.0,0.0,0.0,0.0,0.0,0.0,0.0,0.0,0.0,0.0,0.0,0.0,0.0,0.0,0.0,0.0,0.0,0.0,0.0,0.0,0.0,0.0,0.0,0.0,0.0,0.0,0.0,0.0,0.0,0.0,3.0398,2.9831,2.8618,0.0,0.0,0.0,0.0,0.0,0.0,0.0,0.0,0.0,0.0,0.0,0.0,0.0,0.0,0.0,0.0,0.0,0.0,0.0,0.0,0.0,0.0,0.0,0.0,0.0,0.0,0.0,0.0,0.0,0.0,0.0,0.0,0.0,0.0,0.0,0.0,0.0,0.0,0.0,0.0,0.0,0.0,0.0,0.0,0.0,0.0,0.0,0.0,0.0,0.0,0.0,0.0,0.0,0.0,0.0,0.0,0.0,0.0,0.0,0.0,0.0,0.0,0.0,0.0,0.0,0.0,0.0,0.0,0.0,0.0,0.0,0.0,0.0,0.0,0.0,0.0,0.0,0.0,0.0,0.0,0.0,0.0,0.0,0.0,0.0,0.0,0.0,0.0,0.0,0.0,0.0,0.0,0.0,0.0,0.0,0.0,0.0,0.0,0.0,0.0,0.0,0.0,0.0,0.0,0.0,0.0,0.0,0.0,0.0,0.0,3.0336,3.0398,3.0379,0.0,2.779,0.0,0.0,0.0,0.0,0.0,0.0,0.0,0.0,0.0,0.0,0.0,0.0,0.0,0.0,0.0,0.0,0.0,0.0,0.0,0.0,0.0,0.0,0.0,0.0,0.0,0.0,0.0,0.0,0.0,0.0,0.0,0.0,0.0,0.0,0.0,0.0,0.0,0.0,0.0,0.0,0.0,0.0,0.0,0.0,0.0,0.0,0.0,0.0,0.0,0.0,0.0,0.0,0.0,0.0,0.0,0.0,0.0,0.0,0.0,0.0,0.0,0.0,0.0,0.0,0.0,0.0,0.0,0.0,0.0,0.0,0.0,0.0,0.0,0.0,0.0,0.0,0.0,0.0,0.0,0.0,0.0,0.0,0.0,0.0,0.0,0.0,0.0,0.0,0.0,0.0,0.0,0.0,0.0,0.0,0.0,0.0,0.0,0.0,0.0,0.0,0.0,0.0,0.0,0.0,0.0,0.0,0.0,0.0,0.0,0.0,3.0336,3.0398,2.9382,2.8447,0.0,0.0,0.0,0.0,0.0,0.0,0.0,0.0,0.0,0.0,0.0,0.0,0.0,0.0,0.0,0.0,0.0,0.0,0.0,0.0,0.0,0.0,0.0,0.0,0.0,0.0,0.0,0.0,0.0,0.0,0.0,0.0,0.0,0.0,0.0,0.0,0.0,0.0,0.0,0.0,0.0,0.0,0.0,0.0,0.0,0.0,0.0,0.0,0.0,0.0,0.0,0.0,0.0,0.0,0.0,0.0,0.0,0.0,0.0,0.0,0.0,0.0,0.0,0.0,0.0,0.0,0.0,0.0,0.0,0.0,0.0,0.0,0.0,0.0,0.0,0.0,0.0,0.0,0.0,0.0,0.0,0.0,0.0,0.0,0.0,0.0,0.0,0.0,0.0,0.0,0.0,0.0,0.0,0.0,0.0,0.0,0.0,0.0,0.0,0.0,0.0,0.0,0.0,0.0,0.0,0.0,0.0,0.0,0.0,0.0,3.0311,3.0355,3.0321,2.8668,2.7738,2.772,0.0,0.0,0.0,0.0,0.0,0.0,0.0,0.0,0.0,0.0,0.0,0.0,0.0,0.0,0.0,0.0,0.0,0.0,0.0,0.0,0.0,0.0,0.0,0.0,0.0,0.0,0.0,0.0,0.0,0.0,0.0,0.0,0.0,0.0,0.0,0.0,0.0,0.0,0.0,0.0,0.0,0.0,0.0,0.0,0.0,0.0,0.0,0.0,0.0,0.0,0.0,0.0,0.0,0.0,0.0,0.0,0.0,0.0,0.0,0.0,0.0,0.0,0.0,0.0,0.0,0.0,0.0,0.0,0.0,0.0,0.0,0.0,0.0,0.0,0.0,0.0,0.0,0.0,0.0,0.0,0.0,0.0,0.0,0.0,0.0,0.0,0.0,0.0,0.0,0.0,0.0,0.0,0.0,0.0,0.0,0.0,0.0,0.0,0.0,0.0,0.0,0.0,0.0,0.0,0.0,0.0,0.0,0.0,3.0292,3.0355,3.0398,3.0359,2.8714,2.7796,0.0,0.0,0.0,0.0,0.0,0.0,0.0,0.0,0.0,0.0,0.0,0.0,0.0,0.0,0.0,0.0,0.0,0.0,0.0,0.0,0.0,0.0,0.0,0.0,0.0,0.0,0.0,0.0,0.0,0.0,0.0,0.0,0.0,0.0,0.0,0.0,0.0,0.0,0.0,0.0,0.0,0.0,0.0,0.0,0.0,0.0,0.0,0.0,0.0,0.0,0.0,0.0,0.0,0.0,0.0,0.0,0.0,0.0,0.0,0.0,0.0,0.0,0.0,0.0,0.0,0.0,0.0,0.0,0.0,0.0,0.0,0.0,0.0,0.0,0.0,0.0,0.0,0.0,0.0,0.0,0.0,0.0,0.0,0.0,0.0,0.0,0.0,0.0,0.0,0.0,0.0,0.0,0.0,0.0,0.0,0.0,0.0,0.0,0.0,0.0,0.0,0.0,0.0,0.0,0.0,0.0,0.0,0.0,0.0,2.955,3.0102,3.0406,3.0348,2.8769,2.7612,0.0,0.0,0.0,0.0,0.0,0.0,0.0,0.0,0.0,0.0,0.0,0.0,0.0,0.0,0.0,0.0,0.0,0.0,0.0,0.0,0.0,0.0,0.0,0.0,0.0,0.0,0.0,0.0,0.0,0.0,0.0,0.0,0.0,0.0,0.0,0.0,0.0,0.0,0.0,0.0,0.0,0.0,0.0,0.0,0.0,0.0,0.0,0.0,0.0,0.0,0.0,0.0,0.0,0.0,0.0,0.0,0.0,0.0,0.0,0.0,0.0,0.0,0.0,0.0,0.0,0.0,0.0,0.0,0.0,0.0,0.0,0.0,0.0,0.0,0.0,0.0,0.0,0.0,0.0,0.0,0.0,0.0,0.0,0.0,0.0,0.0,0.0,0.0,0.0,0.0,0.0,0.0,0.0,0.0,0.0,0.0,0.0,0.0,0.0,0.0,0.0,0.0,0.0,0.0,0.0,0.0,0.0,0.0,0.0,2.9113,2.994,3.0398,3.0351,2.8762,2.7479,0.0,0.0,0.0,0.0,0.0,0.0,0.0,0.0,0.0,0.0,0.0,0.0,0.0,0.0,0.0,0.0,0.0,0.0,0.0,0.0,0.0,0.0,0.0,0.0,0.0,0.0,0.0,0.0,0.0,0.0,0.0,0.0,0.0,0.0,0.0,0.0,0.0,0.0,0.0,0.0,0.0,0.0,0.0,0.0,0.0,0.0,0.0,0.0,0.0,0.0,0.0,0.0,0.0,0.0,0.0,0.0,0.0,0.0,0.0,0.0,0.0,0.0,0.0,0.0,0.0,0.0,0.0,0.0,0.0,0.0,0.0,0.0,0.0,0.0,0.0,0.0,0.0,0.0,0.0,0.0,0.0,0.0,0.0,0.0,0.0,0.0,0.0,0.0,0.0,0.0,0.0,0.0,0.0,0.0,0.0,0.0,0.0,0.0,0.0,0.0,0.0,0.0,0.0,0.0,0.0,0.0,0.0,0.0,2.823,2.9087,2.994,3.0409,3.037,2.8772,2.7499,0.0,0.0,0.0,0.0,0.0,0.0,0.0,0.0,0.0,0.0,0.0,0.0,0.0,0.0,0.0,0.0,0.0,0.0,0.0,0.0,0.0,0.0,0.0,0.0,0.0,0.0,0.0,0.0,0.0,0.0,0.0,0.0,0.0,0.0,0.0,0.0,0.0,0.0,0.0,0.0,0.0,0.0,0.0,0.0,0.0,0.0,0.0,0.0,0.0,0.0,0.0,0.0,0.0,0.0,0.0,0.0,0.0,0.0,0.0,0.0,0.0,0.0,0.0,0.0,0.0,0.0,0.0,0.0,0.0,0.0,0.0,0.0,0.0,0.0,0.0,0.0,0.0,0.0,0.0,0.0,0.0,0.0,0.0,0.0,0.0,0.0,0.0,0.0,0.0,0.0,0.0,0.0,0.0,0.0,0.0,0.0,0.0,0.0,0.0,0.0,0.0,0.0,0.0,0.0,0.0,0.0,0.0,0.0,0.0,2.9156,3.0036,3.0451,3.0432,2.884,2.7554,0.0,0.0,0.0,0.0,0.0,0.0,0.0,0.0,0.0,0.0,0.0,0.0,0.0,0.0,0.0,0.0,0.0,0.0,0.0,0.0,0.0,0.0,0.0,0.0,0.0,0.0,0.0,0.0,0.0,0.0,0.0,0.0,0.0,0.0,0.0,0.0,0.0,0.0,0.0,0.0,0.0,0.0,0.0,0.0,0.0,0.0,0.0,0.0,0.0,0.0,0.0,0.0,0.0,0.0,0.0,0.0,0.0,0.0,0.0,0.0,0.0,0.0,0.0,0.0,0.0,0.0,0.0,0.0,0.0,0.0,0.0,0.0,0.0,0.0,0.0,0.0,0.0,0.0,0.0,0.0,0.0,0.0,0.0,0.0,0.0,0.0,0.0,0.0,0.0,0.0,0.0,0.0,0.0,0.0,0.0,0.0,0.0,0.0,0.0,0.0,0.0,0.0,0.0,0.0,0.0,0.0,0.0,0.0,0.0,2.9745,3.0559,3.0963,3.0942,2.9641,2.8211,2.6696,0.0,0.0,0.0,0.0,0.0,0.0,0.0,0.0,0.0,0.0,0.0,0.0,0.0,0.0,0.0,0.0,0.0,0.0,0.0,0.0,0.0,0.0,0.0,0.0,0.0,0.0,0.0,0.0,0.0,0.0,0.0,0.0,0.0,0.0,0.0,0.0,0.0,0.0,0.0,0.0,0.0,0.0,0.0,0.0,0.0,0.0,0.0,0.0,0.0,0.0,0.0,0.0,0.0,0.0,0.0,0.0,0.0,0.0,0.0,0.0,0.0,0.0,0.0,0.0,0.0,0.0,0.0,0.0,0.0,0.0,0.0,0.0,0.0,0.0,0.0,0.0,0.0,0.0,0.0,0.0,0.0,0.0,0.0,0.0,0.0,0.0,0.0,0.0,0.0,0.0,0.0,0.0,0.0,0.0,0.0,0.0,0.0,0.0,0.0,0.0,0.0,0.0,0.0,0.0,0.0,0.0,0.0,0.0,3.0827,3.1564,3.1899,3.1765,3.0921,2.9322,0.0,0.0,0.0,0.0,0.0,0.0,0.0,0.0,0.0,0.0,0.0,0.0,0.0,0.0,0.0,0.0,0.0,0.0,0.0,0.0,0.0,0.0,0.0,0.0,0.0,0.0,0.0,0.0,0.0,0.0,0.0,0.0,0.0,0.0,0.0,0.0,0.0,0.0,0.0,0.0,0.0,0.0,0.0,0.0,0.0,0.0,0.0,0.0,0.0,0.0,0.0,0.0,0.0,0.0,0.0,0.0,0.0,0.0,0.0,0.0,0.0,0.0,0.0,0.0,0.0,0.0,0.0,0.0,0.0,0.0,0.0,0.0,0.0,0.0,0.0,0.0,0.0,0.0,0.0,0.0,0.0,0.0,0.0,0.0,0.0,0.0,0.0,0.0,0.0,0.0,0.0,0.0,0.0,0.0,0.0,0.0,0.0,0.0,0.0,0.0,0.0,0.0,0.0,0.0,0.0,0.0,0.0,0.0,0.0,3.2478,3.3264,3.3362,3.2725,3.1237,2.9792,0.0,0.0,0.0,0.0,0.0,0.0,0.0,0.0,0.0,0.0,0.0,0.0,0.0,0.0,0.0,0.0,0.0,0.0,0.0,0.0,0.0,0.0,0.0,0.0,0.0,0.0,0.0,0.0,0.0,0.0,0.0,0.0,0.0,0.0,0.0,0.0,0.0,0.0,0.0,0.0,0.0,0.0,0.0,0.0,0.0,0.0,0.0,0.0,0.0,0.0,0.0,0.0,0.0,0.0,0.0,0.0,0.0,0.0,0.0,0.0,0.0,0.0,0.0,0.0,0.0,0.0,0.0,0.0,0.0,0.0,0.0,0.0,0.0,0.0,0.0,0.0,0.0,0.0,0.0,0.0,0.0,0.0,0.0,0.0,0.0,0.0,0.0,0.0,0.0,0.0,0.0,0.0,0.0,0.0,0.0,0.0,0.0,0.0,0.0,0.0,0.0,0.0,0.0,0.0,0.0,0.0,0.0,0.0,3.1077,3.3243,3.4294,3.4564,3.398,3.2327,3.084,0.0,0.0,0.0,0.0,0.0,0.0,0.0,0.0,0.0,0.0,0.0,0.0,0.0,0.0,0.0,0.0,0.0,0.0,0.0,0.0,0.0,0.0,0.0,0.0,0.0,0.0,0.0,0.0,0.0,0.0,0.0,0.0,0.0,0.0,0.0,0.0,0.0,0.0,0.0,0.0,0.0,0.0,0.0,0.0,0.0,0.0,0.0,0.0,0.0,0.0,0.0,0.0,0.0,0.0,0.0,0.0,0.0,0.0,0.0,0.0,0.0,0.0,0.0,0.0,0.0,0.0,0.0,0.0,0.0,0.0,0.0,0.0,0.0,0.0,0.0,0.0,0.0,0.0,0.0,0.0,0.0,0.0,0.0,0.0,0.0,0.0,0.0,0.0,0.0,0.0,0.0,0.0,0.0,0.0,0.0,0.0,0.0,0.0,0.0,0.0,0.0,0.0,0.0,0.0,0.0,0.0,0.0,0.0,3.1738,3.3373,3.4831,3.5466,3.5174,3.3623,3.2029,0.0,0.0,0.0,0.0,0.0,0.0,0.0,0.0,0.0,0.0,0.0,0.0,0.0,0.0,0.0,0.0,0.0,0.0,0.0,0.0,0.0,0.0,0.0,0.0,0.0,0.0,0.0,0.0,0.0,0.0,0.0,0.0,0.0,0.0,0.0,0.0,0.0,0.0,0.0,0.0,0.0,0.0,0.0,0.0,0.0,0.0,0.0,0.0,0.0,0.0,0.0,0.0,0.0,0.0,0.0,0.0,0.0,0.0,0.0,0.0,0.0,0.0,0.0,0.0,0.0,0.0,0.0,0.0,0.0,0.0,0.0,0.0,0.0,0.0,0.0,0.0,0.0,0.0,0.0,0.0,0.0,0.0,0.0,0.0,0.0,0.0,0.0,0.0,0.0,0.0,0.0,0.0,0.0,0.0,0.0,0.0,0.0,0.0,0.0,0.0,0.0,0.0,0.0,0.0,0.0,0.0,0.0,0.0,3.2342,3.3394,3.4832,3.5465,3.5213,3.358,3.2165,0.0,0.0,0.0,0.0,0.0,0.0,0.0,0.0,0.0,0.0,0.0,0.0,0.0,0.0,0.0,0.0,0.0,0.0,0.0,0.0,0.0,0.0,0.0,0.0,0.0,0.0,0.0,0.0,0.0,0.0,0.0,0.0,0.0,0.0,0.0,0.0,0.0,0.0,0.0,0.0,0.0,0.0,0.0,0.0,0.0,0.0,0.0,0.0,2.6461,0.0,0.0,0.0,0.0,0.0,0.0,0.0,0.0,0.0,0.0,0.0,0.0,0.0,0.0,0.0,0.0,0.0,0.0,0.0,0.0,0.0,0.0,0.0,0.0,0.0,0.0,0.0,0.0,0.0,0.0,0.0,0.0,0.0,0.0,0.0,0.0,0.0,0.0,0.0,0.0,0.0,0.0,0.0,0.0,0.0,0.0,0.0,0.0,0.0,0.0,0.0,0.0,0.0,0.0,0.0,0.0,0.0,0.0,0.0,3.2436,3.3276,3.4775,3.5402,3.5037,3.3802,3.2665,0.0,0.0,0.0,0.0,0.0,0.0,0.0,0.0,0.0,0.0,0.0,0.0,0.0,0.0,0.0,0.0,0.0,0.0,0.0,0.0,0.0,0.0,0.0,0.0,0.0,0.0,0.0,0.0,0.0,0.0,0.0,0.0,0.0,0.0,0.0,0.0,0.0,0.0,0.0,0.0,0.0,0.0,0.0,0.0,0.0,0.0,0.0,0.0,0.0,0.0,0.0,0.0,0.0,0.0,0.0,0.0,0.0,0.0,0.0,0.0,0.0,0.0,0.0,0.0,0.0,0.0,0.0,0.0,0.0,0.0,0.0,0.0,0.0,0.0,0.0,0.0,0.0,0.0,0.0,0.0,0.0,0.0,0.0,0.0,0.0,0.0,0.0,0.0,0.0,0.0,0.0,0.0,0.0,0.0,0.0,0.0,0.0,0.0,0.0,0.0,0.0,0.0,0.0,0.0,0.0,0.0,0.0,3.0707,3.2428,3.3324,3.4739,3.5325,3.497,3.4184,3.3299,3.2298,0.0,0.0,0.0,0.0,0.0,0.0,0.0,0.0,0.0,0.0,0.0,0.0,0.0,0.0,0.0,0.0,0.0,0.0,0.0,0.0,0.0,0.0,0.0,0.0,0.0,0.0,0.0,0.0,0.0,0.0,0.0,0.0,0.0,0.0,0.0,0.0,0.0,0.0,2.8108,2.7412,0.0,0.0,0.0,0.0,0.0,0.0,0.0,0.0,2.6393,0.0,0.0,0.0,0.0,0.0,0.0,0.0,0.0,0.0,0.0,0.0,0.0,0.0,0.0,0.0,0.0,0.0,0.0,0.0,0.0,0.0,0.0,0.0,0.0,0.0,0.0,0.0,0.0,0.0,0.0,0.0,0.0,0.0,0.0,0.0,0.0,0.0,0.0,0.0,0.0,0.0,0.0,0.0,0.0,0.0,0.0,0.0,0.0,0.0,0.0,0.0,0.0,0.0,0.0,0.0,0.0,2.9149,3.0983,3.2688,3.4306,3.5115,3.5418,3.5239,3.4769,3.3787,3.2144,0.0,0.0,0.0,0.0,0.0,0.0,0.0,0.0,0.0,0.0,0.0,0.0,0.0,0.0,0.0,0.0,0.0,0.0,0.0,0.0,0.0,0.0,0.0,0.0,0.0,0.0,0.0,0.0,0.0,0.0,0.0,0.0,0.0,0.0,0.0,0.0,0.0,0.0,0.0,2.7478,2.7544,0.0,0.0,0.0,0.0,0.0,0.0,0.0,0.0,2.7122,0.0,0.0,0.0,0.0,0.0,0.0,0.0,0.0,0.0,0.0,0.0,0.0,0.0,0.0,0.0,0.0,0.0,0.0,0.0,0.0,0.0,0.0,0.0,0.0,0.0,0.0,0.0,0.0,0.0,0.0,0.0,0.0,0.0,0.0,0.0,0.0,0.0,0.0,0.0,0.0,0.0,0.0,0.0,0.0,0.0,0.0,0.0,0.0,0.0,0.0,0.0,0.0,0.0,0.0,0.0,2.9287,3.1446,3.3398,3.5056,3.5371,3.565,3.5886,3.5129,3.386,0.0,0.0,0.0,0.0,0.0,0.0,0.0,0.0,0.0,0.0,0.0,0.0,0.0,0.0,0.0,0.0,0.0,0.0,0.0,0.0,0.0,0.0,0.0,0.0,0.0,0.0,0.0,0.0,0.0,0.0,0.0,0.0,0.0,0.0,0.0,0.0,0.0,0.0,0.0,0.0,2.776,2.7995,2.8,0.0,0.0,0.0,0.0,0.0,0.0,2.7323,2.7171,0.0,0.0,0.0,0.0,0.0,0.0,0.0,0.0,0.0,0.0,0.0,0.0,0.0,0.0,0.0,0.0,0.0,0.0,0.0,0.0,0.0,0.0,0.0,0.0,0.0,0.0,0.0,0.0,0.0,0.0,0.0,0.0,0.0,0.0,0.0,0.0,0.0,0.0,0.0,0.0,0.0,0.0,0.0,0.0,0.0,0.0,0.0,0.0,0.0,0.0,0.0,0.0,0.0,0.0,0.0,2.9504,3.1932,3.4065,3.5791,3.5644,3.5855,3.6543,3.5408,3.3882,0.0,0.0,0.0,0.0,0.0,0.0,0.0,0.0,0.0,0.0,0.0,0.0,0.0,0.0,0.0,0.0,0.0,0.0,0.0,0.0,0.0,0.0,0.0,0.0,0.0,0.0,0.0,0.0,0.0,0.0,0.0,0.0,0.0,0.0,0.0,0.0,0.0,0.0,0.0,0.0,0.0,2.8452,2.904,2.8589,0.0,0.0,0.0,0.0,2.8136,2.7585,0.0,0.0,0.0,0.0,0.0,0.0,0.0,0.0,0.0,0.0,0.0,0.0,0.0,0.0,0.0,0.0,0.0,0.0,0.0,0.0,0.0,0.0,0.0,0.0,0.0,0.0,0.0,0.0,0.0,0.0,0.0,0.0,0.0,0.0,0.0,0.0,0.0,0.0,0.0,0.0,0.0,0.0,0.0,0.0,0.0,0.0,0.0,0.0,0.0,0.0,0.0,0.0,0.0,0.0,0.0,0.0,3.044,3.2222,3.4376,3.6727,3.6054,3.6029,3.689,3.5656,3.4147,0.0,0.0,0.0,0.0,0.0,0.0,0.0,0.0,0.0,0.0,0.0,0.0,0.0,0.0,0.0,0.0,0.0,0.0,0.0,0.0,0.0,0.0,0.0,0.0,0.0,0.0,0.0,0.0,0.0,0.0,0.0,0.0,0.0,0.0,0.0,0.0,0.0,0.0,0.0,0.0,0.0,2.9081,2.9187,2.906,2.8702,0.0,0.0,2.8805,2.9043,2.8689,0.0,0.0,0.0,0.0,0.0,0.0,0.0,0.0,0.0,0.0,0.0,0.0,0.0,0.0,0.0,0.0,0.0,0.0,0.0,0.0,0.0,0.0,0.0,0.0,0.0,0.0,0.0,0.0,0.0,0.0,0.0,0.0,0.0,0.0,0.0,0.0,0.0,0.0,0.0,0.0,0.0,0.0,0.0,0.0,0.0,0.0,0.0,0.0,0.0,0.0,0.0,0.0,0.0,0.0,0.0,2.7699,3.0618,3.3277,3.5679,3.7724,3.7338,3.7498,3.8394,3.6718,3.4977,0.0,0.0,0.0,0.0,0.0,0.0,0.0,0.0,0.0,0.0,0.0,0.0,0.0,0.0,0.0,0.0,0.0,0.0,0.0,0.0,0.0,0.0,0.0,0.0,0.0,0.0,0.0,0.0,0.0,0.0,0.0,0.0,0.0,0.0,0.0,0.0,0.0,0.0,0.0,0.0,0.0,0.0,2.9757,2.9443,0.0,0.0,0.0,2.895,2.8832,0.0,0.0,0.0,0.0,0.0,0.0,0.0,0.0,0.0,0.0,0.0,0.0,0.0,0.0,0.0,0.0,0.0,0.0,0.0,0.0,0.0,0.0,0.0,0.0,0.0,0.0,0.0,0.0,0.0,0.0,0.0,0.0,0.0,0.0,0.0,0.0,0.0,0.0,0.0,0.0,0.0,0.0,0.0,0.0,0.0,0.0,0.0,0.0,0.0,0.0,0.0,0.0,0.0,0.0,0.0,0.0,0.0,3.0598,3.4236,3.6851,3.8326,3.8302,3.8755,3.973,3.7661,0.0,0.0,0.0,0.0,0.0,0.0,0.0,0.0,0.0,0.0,0.0,0.0,0.0,0.0,0.0,0.0,0.0,0.0,0.0,0.0,0.0,0.0,0.0,0.0,0.0,0.0,0.0,1.9653,0.0,0.0,0.0,0.0,0.0,0.0,0.0,0.0,0.0,0.0,0.0,0.0,0.0,0.0,2.8548,3.013,2.9783,2.9321,0.0,0.0,2.9396,2.8843,2.8862,2.8446,0.0,0.0,0.0,0.0,0.0,0.0,0.0,0.0,0.0,0.0,0.0,0.0,0.0,0.0,0.0,0.0,0.0,0.0,0.0,0.0,0.0,0.0,0.0,0.0,0.0,0.0,0.0,0.0,0.0,0.0,0.0,0.0,0.0,0.0,0.0,0.0,0.0,0.0,0.0,0.0,0.0,0.0,0.0,0.0,0.0,0.0,0.0,0.0,0.0,0.0,0.0,0.0,0.0,0.0,2.8863,3.0668,3.4778,3.7405,3.8358,3.8397,3.9127,4.0618,3.8112,3.6194,0.0,0.0,0.0,0.0,0.0,0.0,0.0,0.0,0.0,0.0,0.0,0.0,0.0,0.0,0.0,0.0,0.0,0.0,0.0,0.0,0.0,0.0,0.0,0.0,0.0,0.0,0.0,0.0,0.0,0.0,0.0,0.0,0.0,0.0,0.0,0.0,0.0,0.0,0.0,0.0,0.0,2.8479,2.9994,3.0164,3.0056,0.0,3.0624,3.0852,2.9717,2.9927,2.9447,2.7111,0.0,0.0,0.0,0.0,0.0,0.0,0.0,0.0,0.0,0.0,0.0,0.0,0.0,0.0,0.0,0.0,0.0,0.0,0.0,0.0,0.0,0.0,0.0,0.0,0.0,0.0,0.0,0.0,0.0,0.0,0.0,0.0,0.0,0.0,0.0,0.0,0.0,0.0,0.0,0.0,0.0,0.0,0.0,0.0,0.0,0.0,0.0,0.0,0.0,0.0,0.0,0.0,0.0,2.89,3.0576,3.5319,3.8011,3.8417,3.9394,4.0223,4.0791,3.9236,3.7404,0.0,0.0,0.0,0.0,0.0,0.0,0.0,0.0,0.0,0.0,0.0,0.0,0.0,0.0,0.0,0.0,0.0,0.0,0.0,0.0,0.0,0.0,0.0,0.0,0.0,0.0,0.0,0.0,2.5386,2.5788,2.5265,0.0,0.0,0.0,0.0,0.0,0.0,0.0,0.0,0.0,0.0,2.991,3.1033,3.1078,0.0,0.0,3.127,3.1287,3.0586,3.0147,2.9154,2.6976,2.6222,0.0,0.0,0.0,0.0,0.0,0.0,0.0,0.0,0.0,0.0,0.0,0.0,0.0,0.0,0.0,0.0,0.0,0.0,0.0,0.0,0.0,0.0,0.0,0.0,0.0,0.0,0.0,0.0,0.0,0.0,0.0,0.0,0.0,0.0,0.0,0.0,0.0,0.0,0.0,0.0,0.0,0.0,0.0,0.0,0.0,0.0,0.0,0.0,0.0,0.0,0.0,0.0,2.878,3.0462,3.5568,3.8276,3.8401,4.0055,4.101,4.1159,4.0076,3.8356,0.0,0.0,0.0,0.0,0.0,0.0,0.0,0.0,0.0,0.0,0.0,0.0,0.0,0.0,0.0,0.0,0.0,0.0,0.0,0.0,0.0,0.0,0.0,0.0,0.0,0.0,0.0,0.0,2.6084,2.5882,2.5005,0.0,0.0,0.0,0.0,0.0,0.0,0.0,0.0,0.0,0.0,3.0816,3.1632,3.1642,3.1469,3.1162,3.1348,3.1226,3.0338,2.9815,2.8858,2.6893,0.0,0.0,0.0,0.0,0.0,0.0,0.0,0.0,0.0,0.0,0.0,0.0,0.0,0.0,0.0,0.0,0.0,0.0,0.0,0.0,0.0,0.0,0.0,0.0,0.0,0.0,0.0,0.0,0.0,0.0,2.3166,0.0,0.0,0.0,0.0,0.0,0.0,0.0,0.0,0.0,0.0,0.0,0.0,0.0,0.0,0.0,0.0,0.0,0.0,0.0,0.0,0.0,0.0,2.861,3.0441,3.5407,3.8114,3.8427,4.0091,4.1308,4.1945,4.0469,3.8915,3.7394,0.0,0.0,0.0,0.0,0.0,0.0,0.0,0.0,0.0,0.0,0.0,0.0,0.0,0.0,0.0,0.0,0.0,0.0,0.0,0.0,0.0,0.0,0.0,0.0,0.0,0.0,2.34,2.3965,2.4121,0.0,0.0,0.0,0.0,0.0,0.0,0.0,0.0,0.0,0.0,3.0682,3.086,3.1555,3.1678,3.1403,3.0304,3.0886,3.0737,2.8818,2.8998,2.8741,0.0,0.0,0.0,0.0,0.0,0.0,0.0,0.0,0.0,0.0,0.0,0.0,0.0,0.0,0.0,0.0,0.0,0.0,0.0,0.0,0.0,0.0,0.0,0.0,0.0,0.0,0.0,2.6406,2.6031,0.0,0.0,0.0,0.0,0.0,0.0,0.0,0.0,0.0,0.0,0.0,2.6776,2.6728,0.0,0.0,0.0,0.0,0.0,0.0,0.0,0.0,0.0,0.0,0.0,0.0,2.856,3.0426,3.477,3.7501,3.8373,3.9499,4.0448,4.1202,4.0654,3.8882,3.5855,0.0,0.0,0.0,0.0,0.0,0.0,0.0,0.0,0.0,0.0,0.0,0.0,0.0,0.0,0.0,0.0,0.0,0.0,0.0,0.0,0.0,0.0,0.0,0.0,0.0,2.4507,0.0,0.0,0.0,0.0,0.0,0.0,0.0,0.0,0.0,0.0,0.0,2.9263,3.132,3.203,3.2609,3.3355,3.3451,3.3306,0.0,0.0,0.0,0.0,0.0,0.0,0.0,0.0,0.0,0.0,0.0,0.0,0.0,0.0,2.6391,2.5568,2.5335,2.4972,2.3992,0.0,0.0,0.0,0.0,0.0,0.0,0.0,0.0,0.0,0.0,0.0,0.0,0.0,0.0,2.7285,0.0,2.5793,0.0,0.0,0.0,0.0,0.0,0.0,0.0,0.0,2.6851,2.7714,2.8376,2.8351,2.8356,0.0,2.7091,2.5601,0.0,0.0,0.0,0.0,0.0,0.0,0.0,0.0,2.9011,3.1191,3.494,3.7531,3.876,3.9637,4.0311,4.0781,4.021,3.8651,3.5989,3.286,2.9636,0.0,0.0,0.0,0.0,0.0,0.0,0.0,0.0,0.0,0.0,0.0,0.0,0.0,0.0,0.0,0.0,0.0,0.0,0.0,0.0,0.0,0.0,0.0,2.4704,0.0,0.0,0.0,0.0,0.0,0.0,0.0,0.0,0.0,2.6004,2.8191,3.0411,3.2199,3.3135,3.3847,3.436,0.0,0.0,0.0,0.0,0.0,0.0,0.0,2.9155,2.7906,2.7164,2.6804,2.6946,2.7378,2.7823,2.8188,0.0,0.0,2.6906,2.6527,2.618,2.5478,2.5817,2.643,2.7148,2.7167,2.7702,0.0,0.0,0.0,0.0,0.0,0.0,0.0,0.0,2.834,2.7871,0.0,2.7043,0.0,0.0,0.0,0.0,0.0,2.584,0.0,0.0,2.9186,3.004,2.9171,2.9197,2.9231,2.9149,2.7614,2.7226,2.7763,2.5579,0.0,0.0,0.0,0.0,0.0,0.0,2.9948,3.2695,3.5848,3.8175,3.954,4.0466,4.0879,4.0764,3.93,3.8256,3.7717,3.4203,3.1333,2.939,2.6698,0.0,0.0,0.0,0.0,0.0,0.0,0.0,0.0,0.0,0.0,0.0,0.0,0.0,0.0,0.0,0.0,0.0,0.0,0.0,0.0,2.436,0.0,0.0,0.0,0.0,0.0,0.0,0.0,0.0,0.0,0.0,2.6968,2.9086,3.1285,3.3009,0.0,0.0,0.0,0.0,3.4,3.3086,3.2733,3.1984,3.0183,2.9716,2.9141,2.7844,0.0,0.0,2.8184,2.8455,2.8758,2.9096,2.9701,2.9672,2.7943,2.7498,2.7257,2.7028,2.7026,2.7565,2.8988,2.8481,2.851,2.8521,0.0,0.0,0.0,0.0,2.8187,2.8664,2.9216,2.9177,2.9038,2.882,2.819,0.0,0.0,0.0,0.0,0.0,0.0,2.688,2.797,2.9002,2.9638,2.9955,2.9931,2.9951,2.9953,2.934,2.9222,2.9531,2.9366,2.8066,2.5672,0.0,0.0,0.0,0.0,3.1204,3.3418,3.6064,3.8127,3.9561,3.9801,4.0192,4.0703,3.9775,3.8927,3.8234,3.5874,3.3304,3.0492,2.8334,0.0,0.0,0.0,0.0,0.0,0.0,0.0,0.0,0.0,0.0,0.0,0.0,0.0,0.0,0.0,0.0,0.0,0.0,0.0,2.2272,2.4534,2.5506,0.0,0.0,0.0,0.0,0.0,0.0,0.0,0.0,0.0,2.9474,3.0568,3.2038,0.0,0.0,3.4769,3.5347,3.5334,3.5132,3.4706,3.3891,0.0,3.2297,3.1448,3.0681,3.0132,2.9642,2.93,2.9192,2.9402,2.9728,3.0085,3.0391,3.0335,2.9795,2.9377,2.908,2.8981,2.9397,3.0015,3.0608,3.0779,3.1396,2.903,2.9467,2.8786,2.8575,2.8717,2.9086,2.9572,3.0085,3.005,3.0,2.9967,2.9452,2.8734,2.7849,2.6844,0.0,0.0,0.0,2.7774,2.9093,2.934,2.9756,3.0258,3.03,3.0327,3.0363,2.9917,2.9815,3.0114,3.0584,2.9975,2.8299,0.0,0.0,2.8782,3.0637,3.2593,3.4678,3.6825,3.8607,4.0034,4.0043,4.0248,4.0699,3.9982,3.9289,3.863,3.6479,3.4225,3.187,2.9685,2.7169,0.0,0.0,0.0,0.0,0.0,0.0,0.0,0.0,0.0,0.0,0.0,2.202,2.1506,0.0,0.0,0.0,2.2789,2.2554,2.3846,2.512,0.0,0.0,0.0,0.0,0.0,0.0,0.0,2.7385,2.9354,3.1028,3.1903,3.2104,3.2675,3.4167,3.4786,3.526,3.5742,0.0,3.5601,3.5425,3.4661,3.3884,3.3296,3.2581,3.1918,3.1476,3.1043,3.0632,3.0333,3.0759,3.1168,3.1208,3.1487,3.17,3.1576,3.1345,3.0972,3.0487,3.0763,3.135,3.2184,3.2454,3.294,2.9514,2.9817,2.9344,2.9283,2.9564,3.0362,3.0733,3.0798,3.0786,3.0732,3.0609,3.0612,3.0145,2.9335,2.8424,0.0,2.8962,2.8698,2.9017,2.9789,3.0041,3.019,3.0225,3.0407,3.0481,3.0482,2.9673,2.9531,2.9978,3.0166,3.042,3.0749,3.0733,3.081,3.1032,3.2273,3.4042,3.6274,3.7965,3.948,4.0776,4.0801,4.08,4.0808,4.0039,3.943,3.8995,3.6427,3.4464,3.3317,3.0907,2.8575,2.6497,0.0,0.0,0.0,0.0,0.0,0.0,0.0,0.0,0.0,0.0,0.0,0.0,0.0,0.0,0.0,2.6079,0.0,2.7116,2.588,0.0,0.0,0.0,2.4417,2.6048,2.6631,2.7854,3.0331,0.0,0.0,3.4085,3.3569,3.3333,3.4257,3.5146,3.5683,3.5701,3.565,3.5567,3.5418,3.5069,3.4463,3.3576,3.3278,3.2922,3.2203,3.1995,3.1836,3.1539,3.2222,3.2676,3.2207,3.2779,3.3245,3.3225,3.3037,3.2803,3.1853,3.1589,3.2004,3.3485,3.3552,3.3747,2.9256,2.9532,2.9607,2.9857,3.0282,3.0568,3.0723,3.0793,3.08,3.0752,3.0676,3.0671,3.0505,3.0195,2.9861,2.9674,2.958,2.9415,2.9439,2.9664,2.988,3.0098,3.0335,3.0401,3.0482,3.0549,3.0316,3.0099,2.9982,3.097,3.1443,3.144,3.2281,3.2656,3.262,3.4184,3.5681,3.7167,3.9004,4.0265,4.0917,4.0851,4.08,4.0808,4.0039,3.9538,3.943,3.7067,3.535,3.4494,3.2029,2.9711,2.7796,2.5984,0.0,0.0,0.0,0.0,0.0,0.0,0.0,0.0,0.0,2.2837,2.2828,0.0,2.4985,0.0,2.6641,2.6725,2.4597,2.5871,0.0,0.0,2.6189,2.64,2.7113,2.8585,2.9846,3.0586,3.2231,3.355,3.4178,3.443,3.4657,3.5012,3.4836,3.4709,3.486,3.5408,3.5671,3.5469,3.5178,3.4794,3.4423,3.4264,3.3869,3.3079,3.3199,3.3187,3.2629,3.2904,3.3165,3.308,3.3215,3.3356,3.3438,3.3292,3.3465,3.3652,3.365,3.3679,3.4234,3.5058,3.5952,2.9377,2.957,2.9735,3.0071,3.0462,3.0486,3.0545,3.0687,3.0728,3.07,3.0607,3.0607,3.0568,3.0466,3.0392,3.0197,2.9858,2.9319,2.9099,2.9116,2.8897,2.9159,2.9849,2.9923,2.9978,3.0033,3.0005,2.9761,2.9382,3.077,3.1544,3.1644,3.3068,3.403,3.4442,3.524,3.61,3.7032,3.8979,4.0307,4.0962,4.0875,4.0809,4.0784,4.0118,3.9709,3.9618,3.7234,3.5641,3.5037,3.2421,3.0221,2.8743,2.6676,2.4719,0.0,0.0,0.0,0.0,0.0,0.0,0.0,0.0,0.0,0.0,0.0,2.5788,2.5684,2.7045,2.7036,2.4925,2.6129,2.7028,2.7016,2.74,2.8037,2.9084,3.0304,3.1285,3.1753,3.3216,3.4315,3.4657,3.4833,3.5167,3.5722,3.5483,3.5219,3.5252,3.6111,3.6701,3.6162,3.5811,3.541,3.4944,3.4737,3.4604,3.4407,3.4496,3.4444,3.3817,3.4134,3.4398,3.4108,3.4602,3.511,3.5123,3.542,3.5763,3.6106,3.6218,3.5999,3.565,3.625,3.6996,2.9626,2.978,2.9708,2.9878,3.0175,2.9974,3.0129,3.0537,3.0661,3.0665,3.0537,3.0509,3.0477,3.0426,3.0436,3.0274,2.9956,2.9058,2.8615,2.8563,2.7904,2.8112,2.9018,2.9152,2.9194,2.9156,2.9209,2.8972,2.8559,3.0151,3.1186,3.1675,3.3394,3.4908,3.6062,3.5885,3.616,3.6996,3.8841,4.0178,4.0978,4.0878,4.08,4.0784,4.0215,3.9878,3.9641,3.7304,3.5786,3.5271,3.2544,3.0456,2.9333,2.7321,2.5459,0.0,2.2807,0.0,0.0,0.0,0.0,0.0,0.0,0.0,0.0,2.6149,2.6536,2.6551,2.7316,2.7478,2.6663,2.6717,2.712,2.7963,2.8464,2.9446,3.1196,3.1849,3.2441,3.3232,3.3916,3.4572,3.5072,3.4963,3.5262,3.6224,3.6635,3.6617,3.6338,3.7341,3.7912,3.7186,3.6717,3.6144,3.5461,3.5152,3.5184,3.5618,3.5785,3.5632,3.5242,3.5807,3.6102,3.5558,3.642,3.7323,3.7377,3.792,3.8397,3.8298,3.824,3.796,3.7361,3.7331,3.7607,2.9761,2.9772,2.9208,2.9017,2.8983,2.8426,2.9115,3.0672,3.0798,3.0767,3.0675,3.0658,3.0618,3.0565,3.0607,3.0466,3.0138,2.9945,2.9446,2.8688,2.864,2.8411,2.8085,2.8254,2.8333,2.8326,2.8277,2.8334,2.853,2.9973,3.0986,3.1631,3.3413,3.4913,3.6131,0.0,0.0,0.0,4.048,4.0805,4.1066,4.0955,4.0867,4.0788,4.0332,0.0,3.964,3.7877,3.6395,3.546,3.305,0.0,0.0,0.0,0.0,0.0,0.0,0.0,0.0,0.0,0.0,0.0,2.3248,2.3908,2.474,2.529,2.5922,2.6756,2.7424,2.7783,2.772,2.8009,2.8542,2.9399,3.0048,3.0915,3.2153,3.3215,3.3952,3.4001,3.4593,3.4958,3.4846,3.5168,3.5656,3.6293,3.7515,3.8188,3.7891,3.8185,3.8331,3.8088,3.7463,3.6844,3.6509,3.5959,3.5911,3.643,3.6806,3.7052,3.7462,3.7766,3.8036,3.7695,3.8105,3.8339,3.8259,3.8437,3.8666,3.8524,3.8528,3.8419,3.8273,3.8727,3.9234,2.9813,2.9417,2.904,2.8689,0.0,2.7981,2.8446,2.9438,2.9531,2.9772,3.0115,3.0123,3.0313,3.0664,3.068,3.0295,2.9589,2.9128,2.8414,2.7519,2.7146,2.7056,2.7229,2.7341,2.742,2.7408,2.7776,2.8202,2.8727,2.9742,3.1035,3.2582,3.3576,3.5076,3.7079,3.8297,3.9416,4.0398,4.0769,4.1208,4.1693,4.1571,4.147,4.1427,4.0642,0.0,0.0,0.0,0.0,0.0,0.0,0.0,0.0,0.0,0.0,2.5046,2.3983,2.3525,2.3759,2.3123,2.3131,2.4202,2.4316,2.4597,2.5362,2.6076,2.6851,2.7754,2.8612,2.9144,2.9195,2.9826,3.0374,3.0803,3.1227,3.1769,3.2476,3.3544,3.4018,3.3671,3.4442,3.5044,3.4737,3.5577,3.644,3.7171,3.8499,3.9426,3.9387,3.9541,3.9549,3.9096,3.8616,3.8078,3.7656,3.7305,3.7102,3.7609,3.778,3.7998,3.8424,3.8526,3.8535,3.8547,3.8832,3.9117,3.9136,3.9457,3.9777,3.974,3.9696,3.9671,3.9627,3.9687,3.9824,2.9617,2.8916,2.8698,2.8289,2.7799,2.7644,2.7614,2.7707,0.0,0.0,0.0,2.9447,2.9873,3.0487,3.0645,3.0082,2.9022,2.8233,2.7313,2.6327,2.5609,2.5666,2.6361,2.6602,2.6711,2.6713,2.7495,2.8231,2.8886,2.957,3.1101,3.3222,3.365,3.523,3.7992,4.0213,4.0974,4.0322,4.0897,4.1698,4.2585,4.2315,4.2119,4.2086,4.0954,4.0248,4.0005,3.8014,3.6721,3.6279,3.3585,3.1482,3.033,2.8574,2.707,2.5981,2.4895,2.4574,2.5227,2.4343,2.4375,2.5918,2.5599,2.5622,2.6268,2.7151,2.8035,2.8933,3.0032,3.065,3.0667,3.1458,3.1942,3.1815,3.2004,3.2279,3.2702,3.354,3.3925,3.3359,3.4311,3.5039,3.4896,3.5923,3.7144,3.8169,3.9257,4.017,4.0449,4.0656,4.0605,4.0012,3.9587,3.9258,3.8805,3.835,3.8418,3.8613,3.8711,3.8808,3.8957,3.8961,3.8924,3.9087,3.9505,3.9825,3.9939,4.0393,4.0939,4.0969,4.0896,4.0809,4.0701,4.021,3.9961,2.8869,2.8189,2.7427,2.7089,2.6992,2.6251,2.5987,2.6166,2.7632,2.8354,2.8513,2.9257,2.9617,2.9704,3.0378,3.0186,2.9265,2.907,2.806,2.6504,2.6416,2.6062,2.5552,2.6313,2.6679,2.6688,2.7435,2.8147,2.8841,2.962,3.0883,3.2498,3.3451,3.5359,3.8161,4.0796,4.2081,4.2031,4.2127,4.2616,4.3478,4.2758,4.2272,4.2078,4.1107,4.0392,4.0078,3.803,3.6727,3.6325,3.364,3.1552,3.0338,2.9263,2.8083,2.6825,2.6284,2.6085,2.6172,2.4942,2.45,2.526,2.536,2.5679,2.6402,2.708,2.8141,2.9719,3.0768,3.1408,3.1684,3.2109,3.2203,3.1849,3.2106,3.2653,3.3314,3.3971,3.44,3.441,3.4761,3.5089,3.5349,3.6224,3.7255,3.8297,3.9432,4.0377,4.0688,4.0909,4.0968,4.0791,4.0232,3.9765,3.955,3.8885,3.8858,3.9418,3.9563,3.9798,4.0359,4.0402,4.0341,4.051,4.047,4.0548,4.0587,4.0722,4.0829,4.0791,4.0672,4.0535,4.0439,4.0069,3.9917,2.8073,2.7369,2.697,2.6572,2.6179,2.5795,2.5655,2.5763,2.6527,2.7155,2.7609,2.8022,2.8434,2.8847,2.9188,2.8832,2.7945,2.7846,2.7353,2.6581,2.6582,2.665,2.6755,2.7113,2.7514,2.798,2.8734,2.9532,3.0314,3.1066,3.2029,3.3261,3.4717,3.6651,3.8918,4.0707,4.2304,4.3718,4.3759,4.3984,4.438,4.3958,4.3408,4.2821,4.1788,4.092,4.0272,3.8222,3.6967,3.6619,3.3915,3.2037,3.1285,2.9738,2.8548,2.7862,2.6825,2.6614,2.7506,2.7036,2.6574,2.6286,2.6465,2.7157,2.8487,2.8635,2.9413,3.1061,3.1784,3.2072,3.2071,3.2297,3.2449,3.2482,3.2762,3.3129,3.3653,3.44,3.4886,3.4921,3.5334,3.5763,3.6066,3.6827,3.7515,3.8249,3.9412,4.0342,4.0597,4.0752,4.0875,4.0933,4.0677,4.0482,4.0384,4.0084,3.9979,4.0355,4.0357,4.0512,4.0879,4.0859,4.0773,4.0745,4.0707,4.0655,4.0655,4.0591,4.0578,4.0511,4.0361,4.0211,4.0005,3.9596,3.9314,2.7369,2.6806,2.6822,2.6579,2.6233,2.6279,2.6281,2.6273,2.6329,2.6663,2.7217,2.7109,2.7382,2.7987,2.8139,2.7809,2.7149,2.6973,2.6939,2.694,2.6901,2.7248,2.7874,2.8005,2.8541,2.9352,2.9945,3.0757,3.178,3.221,3.2936,3.4093,3.608,3.7854,3.9315,4.0788,4.2559,4.4484,4.4995,4.5212,4.5288,4.4821,4.4169,4.3369,4.2172,4.1181,4.0342,3.8384,3.7147,3.6771,3.4309,3.2637,3.2097,3.0339,2.9124,2.8683,2.739,2.706,2.8178,2.8643,2.8435,2.7519,2.7794,2.8732,3.0213,3.0513,3.1046,3.2317,3.2667,3.2653,3.259,3.2703,3.2826,3.2941,3.3313,3.3695,3.4077,3.4841,3.5443,3.5494,3.6085,3.66,3.7,3.7469,3.7984,3.8568,3.9505,4.0227,4.0329,4.0501,4.0672,4.0752,4.0846,4.0882,4.0878,4.0801,4.081,4.096,4.1003,4.1033,4.1128,4.1049,4.108,4.1151,4.0889,4.0803,4.0691,4.0479,4.0353,4.0229,4.0062,3.9781,3.9395,3.8934,3.8548,2.6912,2.6883,2.6916,2.7351,2.7956,2.8019,2.7984,2.7993,2.8056,2.8096,2.8049,2.7344,2.7059,2.721,2.7897,2.8121,2.8009,2.7932,2.7881,2.7931,2.7835,2.7846,2.8087,2.8668,2.9391,3.0136,3.0275,3.1102,3.2439,3.2053,3.2609,3.4371,3.6805,3.816,3.8789,4.1556,4.3308,4.3648,4.5249,4.6129,4.6072,4.461,4.3656,4.3316,4.1682,4.0662,4.0304,3.8306,3.7209,3.6993,3.4878,3.3246,3.2402,3.1309,3.0252,2.9318,2.8454,2.7954,2.7801,2.8652,2.9016,2.8504,2.8946,2.9754,3.0827,3.1851,3.2785,3.3356,3.3144,3.3037,3.3421,3.3627,3.3331,3.2657,3.3386,3.4278,3.5095,3.5378,3.5999,3.7161,3.7248,3.7394,3.7697,3.7931,3.839,3.9227,3.9688,4.0043,4.012,4.0283,4.0403,4.0419,4.0554,4.0771,4.0836,4.0765,4.0919,4.0959,4.1312,4.1572,4.172,4.1999,4.2393,4.1915,4.1667,4.1266,4.1016,4.0672,4.0081,3.9918,3.9698,3.9376,3.8663,3.8455,3.838,2.7102,2.7602,2.7648,2.7904,2.8271,2.83,2.83,2.8297,2.8281,2.8294,2.8255,2.7891,2.7728,2.7791,2.8088,2.82,2.8188,2.81,2.8345,2.8768,2.8723,2.9178,3.0074,2.9867,3.0503,3.1708,3.1709,3.2038,3.2694,3.301,3.4039,3.5688,3.6921,3.8187,3.9746,4.1156,4.238,4.3541,4.4293,4.494,4.5382,4.4848,4.4128,4.3372,4.2144,4.1112,4.031,3.8899,3.7825,3.7087,3.5175,3.3815,3.3293,3.1329,3.0204,3.0158,2.96,2.8876,2.8201,2.9704,3.0186,2.9138,2.9787,3.0565,3.1108,3.1698,3.2372,3.3133,3.3122,3.2821,3.2441,3.2524,3.276,3.3176,3.4232,3.5483,3.6859,3.7092,3.75,3.8249,3.8262,3.8271,3.8503,3.8617,3.8887,3.9432,3.9705,3.984,3.9878,4.0002,4.0101,4.0196,4.0651,4.1152,4.1328,4.1403,4.1572,4.1879,4.2151,4.2295,4.2163,4.2134,4.2322,4.2443,4.1778,4.1304,4.1092,4.0416,3.9743,3.9645,3.9621,3.9498,3.9626,3.9496,3.9193,2.7654,2.8499,2.9012,2.9305,2.9355,2.9609,2.9687,2.9707,2.9718,2.9565,2.9342,2.9297,2.9295,2.9215,2.8578,2.8421,2.8825,2.859,2.9039,2.9911,2.9736,3.0211,3.1212,3.0686,3.1187,3.2555,3.2479,3.2651,3.3197,3.4356,3.5553,3.6717,3.7314,3.8523,4.0254,4.0823,4.1829,4.31,4.3447,4.4042,4.48,4.4532,4.4031,4.3428,4.228,4.1252,4.0434,3.9373,3.8306,3.7246,3.555,3.4427,3.3949,3.1762,3.0602,3.0757,3.0349,2.9653,2.8837,3.0405,3.0961,3.0056,3.0602,3.1146,3.1374,3.1564,3.2072,3.2937,3.3255,3.3014,3.2031,3.2179,3.2967,3.4186,3.5469,3.6949,3.8312,3.8553,3.8726,3.9228,3.915,3.9006,3.9032,3.8999,3.9063,3.92,3.9421,3.9614,3.9628,3.9721,3.9854,3.9933,4.0743,4.1418,4.1733,4.2027,4.2357,4.2673,4.2833,4.2897,4.2739,4.2648,4.2735,4.3189,4.2002,4.1267,4.118,4.0484,3.9645,3.9612,3.981,4.0213,4.051,4.0688,4.0412,2.8658,2.9679,3.1228,3.1836,3.1973,3.2676,3.3062,3.2814,3.2983,3.2632,3.1872,3.1835,3.1855,3.1588,2.9492,2.916,3.042,2.9791,3.023,3.1547,3.0795,3.0482,3.0524,3.0398,3.1213,3.2735,3.221,3.2626,3.4126,3.5701,3.6647,3.6928,3.8395,3.9303,3.9818,4.1141,4.2073,4.2312,4.3002,4.396,4.4562,4.3353,4.2903,4.3216,4.1701,4.07,4.0342,3.9393,3.8403,3.7508,3.6216,3.5126,3.4298,3.308,3.1811,3.0782,3.045,3.0077,2.9604,3.0471,3.1016,3.0989,3.1355,3.1602,3.1656,3.1835,3.231,3.313,3.3879,3.3887,3.3304,3.3793,3.4582,3.5553,3.707,3.8383,3.942,3.9471,3.9704,4.0011,3.9907,3.9538,3.8989,3.8892,3.8958,3.8997,3.9055,3.9248,3.9526,3.9596,3.9661,4.0008,4.0659,4.1437,4.1702,4.2445,4.2885,4.3159,4.3485,4.3526,4.3693,4.3856,4.398,4.3745,4.251,4.1724,4.1409,4.085,4.0076,4.0105,4.093,4.1415,4.1587,4.207,4.1827,3.0669,3.202,3.2674,3.2946,3.2969,3.3281,3.3394,3.3398,3.3392,3.3236,3.2953,3.2881,3.2848,3.2771,3.189,3.1816,3.235,3.149,3.1403,3.187,3.0995,3.082,3.1182,3.0671,3.1251,3.2622,3.2563,3.3527,3.5605,3.644,3.7296,3.8334,3.9031,3.9669,4.025,4.0897,4.1296,4.14,4.1783,4.2611,4.3902,4.2959,4.2763,4.3383,4.1781,4.0738,4.0521,4.0027,3.9337,3.8363,3.726,3.6228,3.5195,3.328,3.17,3.0719,3.0244,3.0139,3.0562,3.1488,3.2126,3.2148,3.2384,3.2327,3.1903,3.1934,3.2356,3.3245,3.4049,3.4614,3.5549,3.5908,3.645,3.7347,3.8477,3.9545,4.0229,4.0396,4.0326,4.0265,4.0163,3.9832,3.9314,3.9275,3.9405,3.9021,3.8979,3.937,3.9871,3.9799,3.9758,4.0333,4.082,4.1206,4.1335,4.2814,4.3771,4.3958,4.4153,4.3968,4.4008,4.3938,4.4005,4.3974,4.2917,4.2199,4.1876,4.1373,4.0646,4.1009,4.1851,4.2472,4.2647,4.3368,4.3036,3.2265,3.334,3.3701,3.382,3.3867,3.414,3.4254,3.4222,3.422,3.4056,3.3828,3.3727,3.3717,3.368,3.3677,3.3926,3.4043,3.2986,3.2402,3.2305,3.1441,3.1139,3.1185,3.0675,3.1441,3.3237,3.4183,3.5451,3.6944,3.7397,3.8176,3.9244,3.9609,4.0061,4.0604,4.0769,4.0819,4.0874,4.0944,4.198,4.3594,4.2954,4.2919,4.3596,4.2315,4.1131,4.0699,4.0487,3.995,3.8936,3.7738,3.6311,3.4715,3.3008,3.1689,3.0903,3.0734,3.0791,3.1333,3.2479,3.3237,3.3313,3.343,3.3324,3.3095,3.2979,3.3556,3.4658,3.5437,3.6508,3.7896,3.8397,3.8525,3.8936,3.9613,4.0326,4.0883,4.1048,4.1039,4.0941,4.0822,4.0401,3.99,4.0191,4.0142,3.9723,3.9745,4.0214,4.0933,4.0654,4.0333,4.1034,4.1274,4.1405,4.1515,4.2496,4.3428,4.3748,4.407,4.4042,4.3986,4.3925,4.3989,4.3892,4.3555,4.2857,4.2281,4.1805,4.1784,4.1994,4.2806,4.353,4.4014,4.4729,4.4431,3.3437,3.3654,3.4354,3.4693,3.4801,3.5445,3.5893,3.5792,3.5771,3.5259,3.4652,3.4599,3.4586,3.4513,3.4525,3.4955,3.5152,3.3937,3.3204,3.299,3.2208,3.1333,3.0634,3.0698,3.1992,3.4372,3.6699,3.78,3.7978,3.8631,3.9146,3.9431,4.0126,4.0458,4.0602,4.0732,4.0792,4.084,4.0935,4.2256,4.4362,4.3314,4.3255,4.4451,4.322,4.1882,4.0859,4.068,4.0183,3.9204,3.7572,3.5236,3.3429,3.258,3.2072,3.1711,3.2015,3.2108,3.1948,3.3244,3.4236,3.4477,3.4445,3.478,3.5334,3.5061,3.5591,3.7425,3.8181,3.9028,4.0402,4.0713,4.0464,4.0037,4.0371,4.075,4.103,4.1454,4.189,4.1958,4.1771,4.1531,4.1336,4.1274,4.12,4.1102,4.1144,4.1586,4.2374,4.2023,4.1754,4.195,4.2127,4.2154,4.2031,4.2029,4.2667,4.3239,4.3605,4.3776,4.373,4.3716,4.4002,4.3984,4.3965,4.3306,4.2307,4.1898,4.1941,4.2283,4.3373,4.4282,4.4693,4.5183,4.6043,3.5193,3.5213,3.5467,3.5606,3.563,3.5872,3.6003,3.6001,3.5978,3.5778,3.5535,3.5496,3.5456,3.5383,3.5402,3.5236,3.4905,3.4323,3.3825,3.3196,3.2335,3.1429,3.0895,3.17,3.3493,3.5776,3.7296,3.8235,3.8618,3.8927,3.9293,3.9887,4.0185,4.0412,4.0596,4.0681,4.075,4.0807,4.0929,4.2268,4.4491,4.3845,4.3849,4.4631,4.3865,4.261,4.1108,4.083,4.0532,4.0068,3.8965,3.7354,3.54,3.4023,3.3304,3.3086,3.3345,3.355,3.3562,3.4491,3.5505,3.597,3.5801,3.5938,3.6631,3.6606,3.7067,3.8471,3.9056,3.9911,4.0815,4.1112,4.0957,4.072,4.0805,4.1132,4.1648,4.2033,4.2172,4.2115,4.2315,4.2196,4.1785,4.1866,4.2057,4.1699,4.1649,4.2147,4.3199,4.3081,4.313,4.3953,4.3625,4.3103,4.2957,4.2746,4.2866,4.3167,4.3367,4.3481,4.3443,4.371,4.3956,4.4178,4.4106,4.3687,4.2686,4.2178,4.2192,4.2631,4.3567,4.4239,4.4771,4.5587,4.6591,3.5988,3.5965,3.5991,3.601,3.5991,3.5979,3.5988,3.5992,3.5977,3.5755,3.5457,3.5378,3.5181,3.4994,3.5169,3.5208,3.5025,3.5277,3.5141,3.4376,3.2947,3.2029,3.183,3.3865,3.5553,3.7089,3.8293,3.9018,3.9355,3.9319,3.9566,4.0101,4.0213,4.0367,4.0588,4.0707,4.0861,4.1261,4.1733,4.3025,4.4708,4.4881,4.4907,4.5226,4.4592,4.329,4.174,4.1424,4.1141,4.0575,3.9561,3.8001,3.6238,3.5062,3.4391,3.4164,3.4359,3.4526,3.4507,3.5493,3.6433,3.6949,3.7011,3.732,3.7964,3.8198,3.8615,3.9419,3.9978,4.0519,4.0976,4.1108,4.1107,4.111,4.1292,4.1787,4.2541,4.2752,4.2899,4.2975,4.3162,4.3058,4.3076,4.2791,4.3093,4.2791,4.2631,4.3045,4.4159,4.4259,4.4835,4.5106,4.4587,4.4156,4.3962,4.3619,4.3195,4.3191,4.3256,4.3169,4.3082,4.3669,4.4126,4.4437,4.4528,4.4398,4.3576,4.277,4.2598,4.3256,4.3946,4.455,4.5305,4.6483,4.736,3.5962,3.5931,3.5962,3.5988,3.5985,3.5916,3.5997,3.608,3.5943,3.5606,3.5125,3.4948,3.4517,3.4023,3.487,3.5318,3.5823,3.6406,3.6541,3.5911,3.4534,3.3476,3.3947,3.6227,3.7608,3.8331,3.9444,4.0024,3.9929,3.9747,3.9916,4.0114,4.0196,4.0444,4.0752,4.0829,4.1364,4.216,4.2946,4.4202,4.5882,4.5996,4.6124,4.6152,4.528,4.4022,4.2518,4.2046,4.1687,4.089,3.9413,3.7868,3.6288,3.5765,3.5321,3.4765,3.5248,3.5272,3.5249,3.6307,3.7313,3.762,3.8202,3.8928,3.9572,3.9777,4.0037,4.0706,4.0934,4.1035,4.1091,4.1111,4.1159,4.1348,4.1874,4.268,4.377,4.3568,4.3619,4.4055,4.4165,4.4082,4.4471,4.4036,4.4077,4.4262,4.4013,4.4448,4.5421,4.5588,4.5819,4.5814,4.5734,4.5442,4.5256,4.4399,4.4083,4.4144,4.3884,4.3415,4.3123,4.3688,4.4343,4.4689,4.4794,4.4732,4.4469,4.366,4.345,4.3978,4.4621,4.5172,4.602,4.7112,4.7828,3.5912,3.5908,3.5914,3.5929,3.5929,3.5904,3.6267,3.6683,3.6177,3.6472,3.6809,3.5974,3.592,3.6784,3.6328,3.6323,3.6472,3.6678,3.6318,3.5888,3.588,3.6098,3.6617,3.7502,3.86,3.9501,3.9908,4.0002,3.9721,3.9665,3.9763,3.9902,4.0125,4.063,4.1379,4.166,4.2157,4.2886,4.3258,4.4345,4.5718,4.56,4.562,4.6171,4.5445,4.4168,4.2534,4.1758,4.1318,4.0976,3.9927,3.9062,3.831,3.73,3.6542,3.6339,3.6415,3.6577,3.667,3.7436,3.8344,3.9103,3.9328,3.9878,4.0656,4.0767,4.0892,4.1111,4.1113,4.111,4.1124,4.1174,4.1623,4.2641,4.2823,4.3127,4.3748,4.4077,4.4289,4.4296,4.4165,4.4209,4.4212,4.4105,4.398,4.4165,4.4272,4.4522,4.5774,4.6479,4.6502,4.7224,4.7286,4.6931,4.6404,4.5437,4.5017,4.5168,4.4815,4.4056,4.3751,4.3701,4.4427,4.5044,4.4907,4.4782,4.4813,4.4461,4.4671,4.4825,4.542,4.6042,4.6691,4.7624,4.8161,3.5885,3.5933,3.6273,3.6397,3.6463,3.6742,3.7168,3.7447,3.7156,3.7139,3.7462,3.6811,3.6609,3.7052,3.6925,3.7006,3.7166,3.7593,3.7723,3.7733,3.8104,3.8358,3.8589,3.88,3.9471,4.0024,4.0081,3.9835,3.9626,3.9738,4.0061,4.0434,4.0753,4.1494,4.2372,4.253,4.2988,4.3776,4.4236,4.5079,4.5969,4.6058,4.6054,4.6284,4.5742,4.4836,4.3514,4.2315,4.1461,4.1003,4.044,3.9976,3.9506,3.8665,3.7912,3.7655,3.7572,3.7618,3.7854,3.8541,3.9267,3.9842,4.0142,4.0589,4.096,4.1105,4.1113,4.1111,4.1105,4.1283,4.1618,4.1909,4.2652,4.3528,4.3627,4.3782,4.4381,4.4492,4.4457,4.4306,4.4165,4.4196,4.429,4.404,4.404,4.4295,4.4498,4.5138,4.609,4.6609,4.7228,4.7886,4.8108,4.7569,4.7166,4.6385,4.5882,4.6025,4.5893,4.5062,4.469,4.4409,4.4693,4.5233,4.5052,4.5018,4.5276,4.5462,4.5474,4.5755,4.635,4.6898,4.7516,4.7905,4.8421,3.6158,3.6229,3.6917,3.7233,3.7331,3.7974,3.8248,3.8394,3.8171,3.7948,3.7647,3.7327,3.7054,3.6149,3.7308,3.7533,3.8185,3.885,3.95,3.9756,4.0021,3.99,3.9339,3.9842,4.0036,4.006,3.9895,3.9844,3.9902,4.0235,4.0763,4.1237,4.1942,4.2795,4.3374,4.3496,4.3949,4.4879,4.5398,4.5726,4.6146,4.6538,4.6618,4.6278,4.5975,4.5531,4.4543,4.3363,4.2153,4.1193,4.1015,4.0496,3.984,3.9661,3.922,3.8669,3.8442,3.841,3.8759,3.937,3.9906,4.015,4.0719,4.1087,4.1107,4.1112,4.1111,4.1111,4.11,4.1451,4.2123,4.2935,4.3543,4.4048,4.4147,4.4687,4.5227,4.5033,4.4626,4.4646,4.4407,4.4545,4.4653,4.4531,4.422,4.5007,4.5171,4.5716,4.6483,4.7088,4.7692,4.8366,4.8306,4.8056,4.7666,4.7277,4.6945,4.6847,4.6765,4.6332,4.603,4.576,4.553,4.5612,4.6069,4.6264,4.6326,4.638,4.6409,4.6757,4.7362,4.7754,4.8144,4.8329,4.8751,3.7856,3.7872,3.7994,3.8025,3.8064,3.8229,3.8655,3.9176,3.8426,3.8769,3.9322,3.8389,3.8373,3.92,3.8716,3.8875,3.9278,3.9523,3.9678,3.9759,4.0138,4.0137,3.9908,4.0241,4.0043,3.9905,4.0292,4.0378,4.0412,4.1007,4.1605,4.2109,4.2728,4.3369,4.4897,4.4791,4.5104,4.6201,4.6145,4.5941,4.5998,4.6232,4.6366,4.6172,4.5662,4.5224,4.4859,4.3919,4.2962,4.2171,4.1432,4.0928,4.0494,4.0011,3.9632,3.9399,3.8911,3.89,3.949,3.9836,4.0184,4.0722,4.0915,4.1107,4.1112,4.1112,4.1099,4.1109,4.1125,4.1473,4.2207,4.3269,4.3874,4.4135,4.4532,4.5218,4.5944,4.5767,4.5575,4.591,4.5791,4.5774,4.5803,4.5621,4.553,4.5823,4.6059,4.6385,4.6932,4.75,4.8081,4.8679,4.855,4.8214,4.7782,4.7543,4.7464,4.7389,4.7397,4.7448,4.7179,4.7016,4.6757,4.6971,4.7481,4.7492,4.7166,4.7496,4.7521,4.7974,4.8273,4.8384,4.8549,4.8768,4.8787,3.8363,3.8374,3.8704,3.8858,3.8914,3.9192,3.958,3.9791,3.933,3.9535,4.0142,3.9311,3.9493,4.0192,3.9756,3.9641,3.969,3.967,3.9721,3.9899,4.012,4.033,4.0673,4.0709,4.0559,4.0311,4.0634,4.0862,4.1212,4.2132,4.3025,4.3611,4.4269,4.5589,4.6709,4.6491,4.6612,4.6825,4.667,4.63,4.6057,4.5988,4.6075,4.615,4.5762,4.5527,4.5483,4.4706,4.4062,4.3376,4.2373,4.1233,4.0542,4.0055,3.9861,3.9755,3.9532,3.9607,4.0213,4.0469,4.0664,4.1054,4.1101,4.1116,4.1116,4.1114,4.1347,4.1568,4.1726,4.1908,4.2855,4.3946,4.448,4.4459,4.5023,4.5921,4.6483,4.5878,4.5425,4.5948,4.5722,4.55,4.5512,4.6047,4.6156,4.6101,4.6652,4.698,4.7323,4.7874,4.8266,4.8677,4.8678,4.8384,4.7904,4.7717,4.7771,4.7795,4.7941,4.8124,4.8163,4.8034,4.7924,4.805,4.8004,4.8002,4.7871,4.8249,4.842,4.8495,4.8623,4.8785,4.8839,4.8804,4.8822,3.8675,3.8722,3.9395,3.9642,3.9734,4.0169,4.0361,4.0383,4.0248,4.0041,4.0156,4.0136,3.991,4.0062,4.0002,3.9813,3.9661,3.9868,4.0083,4.0285,4.0406,4.0883,4.1399,4.1628,4.1628,4.1307,4.1499,4.1689,4.2355,4.3434,4.4429,4.5319,4.6516,4.7386,4.8214,4.8327,4.8043,4.7753,4.7231,4.6767,4.6267,4.6102,4.6053,4.6126,4.6104,4.6065,4.5937,4.5468,4.4991,4.4819,4.3531,4.2048,4.082,4.0037,4.0013,4.0097,4.0075,4.0342,4.0767,4.1004,4.1047,4.1103,4.1111,4.1104,4.1078,4.11,4.1354,4.1811,4.2111,4.264,4.3921,4.4593,4.4843,4.4833,4.5376,4.6177,4.6554,4.55,4.5331,4.6298,4.6597,4.6413,4.6213,4.6434,4.6397,4.6488,4.7077,4.7555,4.7847,4.8305,4.8787,4.9323,4.9491,4.9713,4.9289,4.8698,4.8679,4.8476,4.8566,4.8643,4.8841,4.8639,4.8402,4.8236,4.8233,4.8251,4.8307,4.8495,4.866,4.8787,4.8857,4.8874,4.8839,4.8785,4.8804,4.0389,4.0394,4.0345,4.0333,4.0308,4.0281,4.0251,4.0195,4.0021,3.9981,4.0022,3.9878,3.9854,3.9908,3.9758,3.9545,3.9694,4.0209,4.0664,4.0833,4.1047,4.1628,4.2316,4.2604,4.2808,4.3013,4.296,4.3137,4.3646,4.4594,4.575,4.6724,4.7321,4.8108,4.8853,4.8778,4.8864,4.8856,4.8024,4.727,4.6911,4.628,4.5969,4.6103,4.6105,4.6143,4.6183,4.603,4.564,4.4972,4.4683,4.3964,4.2876,4.165,4.1025,4.0848,4.0784,4.0879,4.1033,4.1091,4.1101,4.1105,4.1096,4.1076,4.1028,4.1025,4.1227,4.1634,4.2344,4.3092,4.3746,4.4482,4.458,4.4477,4.4579,4.4972,4.5544,4.5758,4.6064,4.7552,4.7701,4.7519,4.7187,4.7059,4.7279,4.739,4.7665,4.7997,4.82,4.8807,4.9491,5.0046,5.0564,5.0842,5.0935,5.0305,4.9862,4.9416,4.9288,4.901,4.9078,4.8911,4.8731,4.8569,4.8569,4.866,4.8714,4.8768,4.8768,4.8857,4.8874,4.8909,4.8839,4.8785,4.8839,4.0521,4.0607,4.0419,4.0336,4.0321,4.012,4.002,3.9939,3.9781,3.9684,3.9665,3.9631,3.9846,4.0134,4.0178,4.0229,4.0643,4.1083,4.1462,4.1614,4.1903,4.2467,4.319,4.3461,4.3658,4.3928,4.4226,4.4451,4.4811,4.5969,4.6974,4.7834,4.8408,4.9194,4.9893,4.9901,4.9911,4.9981,4.9111,4.8179,4.7637,4.6596,4.6019,4.6008,4.6046,4.6076,4.6137,4.6164,4.5988,4.5582,4.5167,4.4786,4.413,4.3255,4.2201,4.1791,4.1381,4.1108,4.1065,4.1101,4.1105,4.1111,4.1075,4.1037,4.0986,4.1,4.1226,4.2008,4.2802,4.3695,4.4218,4.4466,4.4412,4.4281,4.4389,4.4848,4.5407,4.6078,4.7236,4.8396,4.7973,4.7661,4.7773,4.7813,4.8161,4.8324,4.8363,4.8438,4.8513,4.9196,4.9898,5.0453,5.0879,5.0916,5.1101,5.073,5.0286,4.9988,4.9745,4.9466,4.9187,4.8964,4.889,4.882,4.8855,4.889,4.8855,4.882,4.8839,4.8874,4.8874,4.8874,4.8804,4.8804,4.8839,4.0247,4.0389,4.0233,4.0139,4.0081,3.9895,3.9913,3.9934,3.9815,3.9881,3.9885,3.9978,4.0315,4.0755,4.1045,4.1316,4.1762,4.2002,4.2416,4.2583,4.2764,4.3306,4.3952,4.4144,4.4253,4.4684,4.5398,4.5717,4.5829,4.6824,4.7991,4.8842,4.969,5.0431,5.0894,5.1234,5.1305,5.1106,5.0387,4.944,4.8063,4.6751,4.5912,4.5983,4.6003,4.6027,4.6076,4.6107,4.6127,4.593,4.5604,4.5187,4.5065,4.4411,4.3619,4.2864,4.1924,4.1394,4.1094,4.1081,4.1081,4.1064,4.1033,4.0994,4.0948,4.1021,4.1327,4.2505,4.3271,4.3827,4.417,4.4643,4.4636,4.4647,4.5003,4.5496,4.5862,4.6452,4.7225,4.7802,4.7716,4.784,4.7995,4.8053,4.8269,4.8324,4.8363,4.8401,4.8624,4.9381,5.0065,5.0657,5.0934,5.0859,5.0785,5.0543,5.0173,4.9839,4.9726,4.954,4.9206,4.8909,4.889,4.889,4.889,4.889,4.889,4.889,4.8874,4.8874,4.8874,4.8874,4.8839,4.8855,4.8943,4.0286,4.0158,4.0,3.9935,3.993,3.9736,4.0021,4.0551,4.051,4.0886,4.1288,4.1446,4.1465,4.1773,4.235,4.2217,4.2202,4.2765,4.3302,4.3459,4.364,4.4145,4.4889,4.4805,4.5002,4.5452,4.6293,4.652,4.6717,4.7438,4.845,4.9577,5.0429,5.1261,5.1876,5.2375,5.3047,5.2773,5.1473,4.9575,4.7618,4.646,4.597,4.5925,4.5976,4.5994,4.6027,4.6066,4.6102,4.6099,4.6091,4.5967,4.578,4.5168,4.4752,4.4094,4.3142,4.1891,4.1318,4.1292,4.1338,4.1356,4.1237,4.1027,4.1169,4.1175,4.1368,4.1665,4.2526,4.3345,4.4075,4.4823,4.5198,4.5492,4.5724,4.5931,4.62,4.6866,4.7625,4.7797,4.7893,4.8106,4.8273,4.829,4.8324,4.8324,4.8324,4.8419,4.8734,4.9492,5.0361,5.0991,5.1026,5.0878,5.0655,5.0376,4.9928,4.9633,4.9559,4.9485,4.9187,4.889,4.889,4.889,4.889,4.8925,4.8993,4.8993,4.8925,4.8909,4.8909,4.889,4.889,4.8925,4.9027,3.9927,3.9954,4.0268,4.0382,4.039,4.069,4.0996,4.1194,4.1241,4.1381,4.1669,4.1706,4.192,4.2441,4.3174,4.333,4.3197,4.367,4.4128,4.4227,4.4383,4.481,4.5404,4.5413,4.5557,4.627,4.693,4.763,4.7809,4.8304,4.9118,5.0382,5.0978,5.17,5.2626,5.3128,5.3282,5.2756,5.1338,4.9494,4.7927,4.6626,4.5866,4.591,4.5932,4.5968,4.6003,4.6026,4.6056,4.6093,4.6138,4.6111,4.6016,4.571,4.5391,4.4663,4.4163,4.3362,4.263,4.2443,4.2307,4.2369,4.2334,4.2383,4.2249,4.2107,4.2247,4.2891,4.3075,4.3494,4.4156,4.5157,4.5555,4.5914,4.633,4.64,4.6661,4.7346,4.7922,4.801,4.8103,4.8292,4.8402,4.8344,4.8324,4.8306,4.8381,4.8494,4.8883,4.951,5.0453,5.1435,5.1231,5.086,5.0618,5.032,4.9557,4.9275,4.9241,4.9166,4.9039,4.889,4.889,4.889,4.889,4.8993,4.9075,4.9042,4.8993,4.8925,4.889,4.8974,4.9023,4.9174,4.9315,4.0033,4.0301,4.0635,4.0832,4.1023,4.164,4.1913,4.2004,4.1975,4.2076,4.2166,4.2277,4.2612,4.3076,4.3652,4.3875,4.3962,4.4279,4.4511,4.4669,4.4815,4.5136,4.5598,4.5782,4.6302,4.7107,4.8088,4.8813,4.9368,4.9769,5.0378,5.1376,5.184,5.2488,5.3351,5.3879,5.4015,5.3196,5.1548,4.9881,4.8353,4.6922,4.6187,4.5949,4.5912,4.5925,4.5972,4.5994,4.6017,4.6047,4.6075,4.6037,4.5968,4.5959,4.5734,4.5229,4.4948,4.4802,4.4113,4.3744,4.3577,4.3471,4.3423,4.31,4.3143,4.3159,4.3101,4.3369,4.369,4.3977,4.4573,4.5313,4.5829,4.6275,4.6806,4.6851,4.7081,4.7916,4.8327,4.8345,4.8398,4.8384,4.8439,4.8344,4.8324,4.8306,4.8381,4.855,4.9012,4.9582,5.021,5.1137,5.0933,5.0523,5.0269,4.9899,4.9247,4.9042,4.9061,4.9027,4.9075,4.8993,4.8959,4.8959,4.8956,4.9188,4.9408,4.922,4.9057,4.9201,4.9277,4.9201,4.9265,4.9439,4.9598,4.1057,4.154,4.0985,4.1135,4.1745,4.1782,4.223,4.2794,4.2753,4.3095,4.3559,4.3745,4.367,4.3875,4.3893,4.4005,4.4005,4.4279,4.4402,4.4457,4.4505,4.5162,4.5865,4.6669,4.7382,4.8667,4.9466,5.0282,5.1057,5.1282,5.1756,5.2273,5.2816,5.3658,5.4249,5.4612,5.4246,5.3387,5.1931,5.0306,4.874,4.7386,4.6593,4.5935,4.5852,4.5912,4.591,4.5953,4.5994,4.6007,4.6017,4.5994,4.596,4.5997,4.5831,4.5706,4.5673,4.5587,4.5285,4.4499,4.3704,4.3462,4.353,4.3702,4.375,4.3465,4.3297,4.3441,4.4001,4.4192,4.4641,4.5179,4.603,4.6757,4.7384,4.789,4.8152,4.8619,4.8977,4.877,4.8674,4.8586,4.8439,4.8344,4.8324,4.8306,4.8457,4.8624,4.9158,4.9672,4.9966,5.041,5.032,5.0051,4.9727,4.9427,4.9399,4.9386,4.9389,4.9377,4.9365,4.927,4.9169,4.9145,4.9215,4.9483,4.9533,4.906,4.8947,4.9504,4.9702,4.956,4.9618,4.9784,4.9962,4.1735,4.2355,4.2193,4.2249,4.2518,4.3021,4.3401,4.3534,4.3559,4.3689,4.4005,4.4005,4.4005,4.4005,4.4005,4.4005,4.4005,4.4109,4.4269,4.471,4.5156,4.6127,4.7055,4.8114,4.9321,5.0265,5.0841,5.1342,5.2084,5.2492,5.3227,5.3669,5.3895,5.4446,5.4949,5.4689,5.3974,5.3194,5.1679,4.9823,4.874,4.756,4.6689,4.5877,4.5866,4.5899,4.5906,4.5968,4.5991,4.5994,4.5986,4.596,4.5944,4.5983,4.5963,4.5926,4.5983,4.5999,4.5987,4.5359,4.5041,4.496,4.4921,4.4812,4.466,4.4678,4.4619,4.4645,4.4557,4.471,4.4995,4.575,4.6603,4.7315,4.7948,4.8522,4.904,4.9363,4.9337,4.9043,4.8813,4.8658,4.8476,4.8324,4.8324,4.8324,4.8494,4.8753,4.9299,4.9694,4.9944,5.0108,5.0042,5.0277,5.0021,4.986,4.9719,4.9663,4.9654,4.9438,4.9306,4.9589,4.9522,4.9476,4.9211,4.9102,4.8922,4.8606,4.8764,4.9277,4.9644,4.9838,4.9943,5.0049,5.0109,4.2426,4.3144,4.3252,4.3301,4.3364,4.3953,4.4165,4.4055,4.3986,4.4005,4.4005,4.4005,4.4005,4.4005,4.4005,4.4005,4.4005,4.4055,4.4307,4.4792,4.5549,4.6857,4.8193,4.9352,5.025,5.1454,5.2067,5.2494,5.2977,5.3403,5.3943,5.4401,5.467,5.5128,5.5105,5.4438,5.3588,5.2882,5.1606,4.9595,4.8609,4.785,4.6844,4.6051,4.5847,4.588,4.5912,4.5951,4.5968,4.5972,4.5994,4.5964,4.5972,4.596,4.5956,4.597,4.5977,4.5987,4.5983,4.5963,4.5925,4.5686,4.5712,4.5699,4.5756,4.567,4.5372,4.5389,4.5323,4.5302,4.5381,4.5819,4.6409,4.6983,4.7799,4.8438,4.9169,4.9587,4.9467,4.9333,4.9099,4.8866,4.8676,4.855,4.8658,4.8658,4.8783,4.9023,4.9358,4.9671,4.9838,4.9939,4.9972,5.0287,5.0551,5.0207,4.9841,4.9503,4.942,4.9125,4.9093,4.9321,4.9207,4.877,4.8542,4.8505,4.8452,4.8372,4.863,4.9024,4.9243,4.9376,4.9658,4.9701,4.9852,4.3225,4.3949,4.3931,4.403,4.4072,4.4255,4.4226,4.4135,4.4036,4.4005,4.4005,4.4005,4.4005,4.4005,4.4005,4.4005,4.4061,4.4116,4.4538,4.5281,4.6127,4.7073,4.8561,5.0028,5.1324,5.2475,5.3013,5.3346,5.372,5.419,5.4636,5.4871,5.5068,5.5295,5.5549,5.4861,5.4071,5.3246,5.2247,5.0507,4.9015,4.8333,4.7328,4.6394,4.5852,4.5847,4.5874,4.5906,4.5944,4.5968,4.5972,4.5972,4.5994,4.5975,4.5994,4.5975,4.5991,4.5963,4.5905,4.5893,4.5906,4.5893,4.586,4.5819,4.5805,4.5761,4.5715,4.5654,4.5601,4.5568,4.5532,4.563,4.6224,4.695,4.7826,4.8621,4.9372,4.9844,4.9762,4.9589,4.9394,4.9209,4.8982,4.8881,4.8982,4.9067,4.915,4.934,4.9589,4.974,4.9909,5.002,5.0079,5.0342,5.0558,5.0293,4.9971,4.9566,4.9159,4.8845,4.8509,4.8388,4.8216,4.793,4.7909,4.7953,4.8116,4.8245,4.8135,4.7971,4.8463,4.8701,4.903,4.9311,4.9403,4.3763,4.4005,4.4085,4.4165,4.4184,4.4116,4.4085,4.4055,4.4005,4.4005,4.4005,4.4005,4.4005,4.4005,4.4061,4.4098,4.4209,4.4766,4.5324,4.6234,4.7376,4.9027,5.0398,5.1491,5.2527,5.3215,5.3697,5.3924,5.4111,5.4641,5.4933,5.5126,5.4914,5.4874,5.4666,5.411,5.33,5.252,5.1631,5.0568,4.9363,4.8682,4.7845,4.6646,4.6104,4.5814,4.5827,4.586,4.5906,4.5944,4.5937,4.5929,4.5941,4.5953,4.5944,4.5925,4.5933,4.5906,4.5866,4.5827,4.5847,4.5833,4.5824,4.5795,4.5815,4.5754,4.5742,4.5783,4.5902,4.5813,4.5587,4.6148,4.682,4.7585,4.8384,4.9143,4.9805,5.0068,5.012,4.983,4.9618,4.9483,4.9283,4.9295,4.9416,4.9561,4.9664,4.9627,4.9811,4.9968,5.0125,5.0217,5.0325,5.0485,5.0528,5.0207,4.9749,4.927,4.8874,4.8519,4.8142,4.7626,4.776,4.7794,4.7584,4.742,4.745,4.7384,4.6867,4.6778,4.7474,4.8102,4.8528,4.8735,4.878,4.4283,4.4005,4.4085,4.4135,4.4135,4.4085,4.4055,4.4005,4.4005,4.4005,4.4005,4.4005,4.4178,4.4326,4.4419,4.4957,4.5236,4.5811,4.6903,4.776,4.9137,5.0435,5.1677,5.2695,5.3047,5.3586,5.387,5.4037,5.4303,5.4754,5.4939,5.4795,5.4364,5.3855,5.3512,5.2935,5.2646,5.1985,5.1363,5.0532,4.9633,4.8856,4.7985,4.7071,4.6355,4.58,4.5814,4.5827,4.5874,4.5887,4.5899,4.5893,4.5905,4.5898,4.5891,4.5902,4.5873,4.5847,4.5819,4.5805,4.5805,4.5757,4.5785,4.5804,4.5885,4.6034,4.6169,4.623,4.6309,4.6411,4.651,4.7089,4.7491,4.8294,4.8786,4.9522,5.0,5.0245,5.0278,5.0025,4.9857,4.973,4.9664,4.9773,4.9853,5.0005,5.0168,5.0121,5.0073,5.0233,5.0308,5.0334,5.0337,5.0424,5.0317,5.0002,4.9547,4.8977,4.8451,4.7959,4.7384,4.683,4.7235,4.7494,4.6997,4.6659,4.6669,4.6484,4.6327,4.6441,4.6886,4.7492,4.8011,4.7952,4.7787,4.4785,4.4061,4.4005,4.4023,4.411,4.4358,4.4271,4.4116,4.4153,4.4191,4.4153,4.4252,4.461,4.5082,4.5193,4.5971,4.7173,4.7488,4.8579,4.9579,5.0341,5.1399,5.2121,5.2713,5.3272,5.3721,5.4015,5.4213,5.4417,5.4756,5.4843,5.4329,5.3546,5.2972,5.2433,5.2049,5.1934,5.1582,5.1175,5.0532,4.9943,4.8933,4.8121,4.727,4.6438,4.5916,4.58,4.5814,4.5847,4.586,4.5893,4.5899,4.5893,4.5905,4.5905,4.588,4.5827,4.5805,4.5795,4.5781,4.5765,4.5731,4.5754,4.5754,4.5992,4.6425,4.6658,4.7005,4.7257,4.7587,4.7876,4.8047,4.8255,4.8728,4.9105,4.9637,5.0111,5.0302,5.0302,5.0169,5.0076,4.9987,5.0043,5.0116,5.0243,5.039,5.0529,5.0566,5.0529,5.0548,5.06,5.0414,5.0395,5.0273,5.0037,4.9489,4.8961,4.8299,4.7622,4.7054,4.6502,4.626,4.656,4.6618,4.6143,4.5998,4.6298,4.6326,4.6182,4.6381,4.6616,4.6819,4.7326,4.6618,4.6298,4.4785,4.4023,4.4005,4.4339,4.4971,4.5579,4.5504,4.5026,4.5491,4.5737,4.5634,4.5634,4.5716,4.5944,4.6567,4.7175,4.797,4.8857,4.9951,5.0804,5.1528,5.2456,5.3031,5.3328,5.3665,5.3921,5.4217,5.4489,5.4753,5.4959,5.421,5.3547,5.2722,5.2145,5.1779,5.1356,5.126,5.1178,5.0926,5.0709,5.014,4.9169,4.8488,4.7792,4.6593,4.609,4.5916,4.5838,4.5833,4.5833,4.5847,4.5827,4.5827,4.5827,4.5827,4.5838,4.5795,4.577,4.5731,4.5731,4.57,4.5726,4.5764,4.613,4.6405,4.6851,4.7239,4.7699,4.8105,4.8414,4.8566,4.8735,4.8924,4.9188,4.9545,4.9947,5.0325,5.0325,5.0348,5.0377,5.0249,5.032,5.0385,5.051,5.064,5.0764,5.0863,5.0903,5.0918,5.0894,5.0826,5.0642,5.0414,5.0284,4.9292,4.8626,4.8145,4.7585,4.6995,4.6567,4.6333,4.6166,4.6088,4.5893,4.5636,4.5845,4.6216,4.6023,4.548,4.6066,4.6366,4.6444,4.639,4.5773,4.5489,4.5268,4.4599,4.4859,4.5305,4.5844,4.6624,4.6661,4.6312,4.6353,4.6338,4.6342,4.6604,4.6851,4.726,4.8051,4.8864,4.9714,5.0546,5.151,5.2364,5.2791,5.3217,5.3663,5.3907,5.4015,5.424,5.4472,5.4704,5.4641,5.3855,5.3068,5.2683,5.1818,5.1529,5.1279,5.101,5.0798,5.0815,5.0793,5.0844,5.0336,4.9614,4.9131,4.8527,4.7154,4.6457,4.6206,4.609,4.5819,4.58,4.58,4.5819,4.5786,4.5771,4.5757,4.5765,4.5754,4.5738,4.5722,4.5703,4.569,4.5789,4.6003,4.6621,4.7064,4.7489,4.797,4.8432,4.8798,4.9123,4.9215,4.9324,4.9496,4.9666,5.001,5.0313,5.0371,5.0371,5.044,5.0506,5.0567,5.0643,5.075,5.0879,5.0951,5.0959,5.0991,5.1061,5.105,5.0991,5.095,5.085,5.0539,5.0244,4.9094,4.8089,4.7723,4.7299,4.6704,4.6332,4.6181,4.6137,4.6098,4.5738,4.528,4.5473,4.5636,4.5028,4.466,4.5386,4.5905,4.579,4.5634,4.5224,4.513,4.6067,4.5435,4.6252,4.6605,4.6791,4.7608,4.793,4.7787,4.7305,4.6678,4.6866,4.7313,4.8053,4.8734,4.9582,5.0654,5.1377,5.2081,5.264,5.3757,5.3571,5.3738,5.3907,5.4106,5.4311,5.4572,5.4591,5.4358,5.3585,5.2864,5.226,5.1798,5.1183,5.0875,5.0856,5.0779,5.0721,5.074,5.0775,5.0808,5.0648,5.0178,4.9672,4.9339,4.814,4.6999,4.6806,4.6399,4.58,4.58,4.58,4.5805,4.5761,4.5746,4.5715,4.5719,4.5706,4.569,4.5673,4.5673,4.5791,4.6007,4.6451,4.724,4.7798,4.8182,4.8663,4.924,4.9662,4.9812,4.9901,4.9986,5.0102,5.0179,5.0392,5.0567,5.0587,5.0606,5.0643,5.0696,5.0748,5.0828,5.0884,5.0979,5.1039,5.1042,5.1123,5.1203,5.1195,5.1123,5.0986,5.0922,5.0555,5.0011,4.8903,4.801,4.7565,4.7077,4.6491,4.6518,4.6632,4.6436,4.6147,4.5913,4.5659,4.4976,4.4745,4.4371,4.4416,4.5112,4.5429,4.5117,4.4863,4.4765,4.5078,4.6401,4.629,4.707,4.7738,4.8407,4.9243,4.9841,5.0305,5.0121,4.9455,4.9011,4.9103,4.9505,5.0239,5.113,5.2001,5.2299,5.2989,5.3495,5.3738,5.3813,5.3926,5.4161,5.4281,5.4572,5.4752,5.4518,5.3647,5.273,5.2046,5.1548,5.1068,5.0702,5.0683,5.0683,5.0683,5.0702,5.0721,5.0757,5.081,5.0767,5.0217,4.9668,4.9223,4.8256,4.7366,4.698,4.6361,4.596,4.581,4.5819,4.5776,4.5719,4.5742,4.5706,4.569,4.583,4.5871,4.5813,4.5909,4.6121,4.645,4.7008,4.7875,4.8529,4.8894,4.9394,5.0028,5.0411,5.0483,5.0542,5.0567,5.0625,5.0682,5.072,5.075,5.0793,5.0809,5.084,5.0884,5.0945,5.0979,5.102,5.1074,5.1132,5.1203,5.1291,5.1357,5.1333,5.1252,5.0933,5.0776,5.043,4.9781,4.872,4.8017,4.7631,4.7009,4.6404,4.6627,4.7006,4.6929,4.6713,4.6495,4.6163,4.5265,4.4542,4.4279,4.4484,4.5058,4.5032,4.4767,4.4894,4.486,4.5301,4.7237,4.7646,4.8426,4.902,4.9485,4.9968,5.0564,5.1082,5.1099,5.0984,5.0775,5.0735,5.0934,5.1485,5.2346,5.2779,5.2911,5.3436,5.3662,5.3756,5.387,5.4017,5.4212,5.4406,5.4427,5.4523,5.3537,5.2557,5.1894,5.1433,5.1029,5.0721,5.0683,5.0683,5.0683,5.0683,5.0683,5.0702,5.0739,5.0793,5.0863,5.0433,5.0229,4.9765,4.9107,4.8179,4.7444,4.6849,4.6254,4.5935,4.5781,4.6082,4.6172,4.6328,4.6292,4.639,4.6546,4.6605,4.6392,4.6467,4.6694,4.7036,4.7902,4.8919,4.9296,4.9664,5.0021,5.0583,5.0604,5.0664,5.0653,5.0693,5.0786,5.0844,5.0879,5.0903,5.0912,5.092,5.0984,5.1053,5.1103,5.1152,5.1195,5.1252,5.1291,5.1291,5.139,5.139,5.1394,5.1394,5.1043,5.0809,5.0578,4.9833,4.8818,4.8216,4.7771,4.711,4.6471,4.648,4.6758,4.7187,4.7304,4.6641,4.5918,4.5117,4.4531,4.4315,4.4472,4.4956,4.477,4.4448,4.4666,4.4772,4.4616,4.8203,4.9113,4.9782,5.0246,5.0413,5.0415,5.0824,5.1376,5.1411,5.1719,5.2055,5.211,5.2183,5.2481,5.289,5.3252,5.3521,5.3639,5.3736,5.3813,5.387,5.4161,5.4387,5.4508,5.4188,5.3503,5.2615,5.2083,5.1606,5.1144,5.0837,5.0702,5.0683,5.0683,5.0683,5.0683,5.0683,5.0702,5.0721,5.0739,5.0791,5.0858,5.0797,5.0561,5.0113,4.9339,4.8512,4.7704,4.6858,4.6577,4.6368,4.6684,4.6974,4.7171,4.7159,4.7275,4.7565,4.7433,4.7188,4.7472,4.7515,4.7831,4.8982,4.9658,4.9975,5.0299,5.0642,5.0728,5.0751,5.0805,5.0784,5.0848,5.0945,5.1016,5.1047,5.1058,5.1061,5.1053,5.1132,5.1211,5.1225,5.1265,5.1327,5.139,5.1375,5.1375,5.1394,5.1394,5.1394,5.1394,5.1238,5.1148,5.1054,5.0172,4.9153,4.8727,4.8398,4.7647,4.7105,4.6699,4.6617,4.7432,4.7391,4.62,4.5458,4.519,4.4757,4.4466,4.4692,4.5067,4.4412,4.4109,4.4356,4.4284,4.3538,4.8556,4.9893,5.006,5.0859,5.1955,5.1955,5.2397,5.2945,5.2884,5.2946,5.2881,5.2996,5.3038,5.3038,5.3289,5.3539,5.3637,5.3716,5.3774,5.3813,5.4036,5.4382,5.4364,5.3992,5.3307,5.2631,5.1989,5.1567,5.1241,5.0875,5.0683,5.0683,5.0683,5.0683,5.0683,5.0683,5.0683,5.0702,5.0683,5.072,5.0756,5.0808,5.0877,5.0581,5.0113,4.9676,4.9177,4.852,4.805,4.7822,4.7693,4.7824,4.8031,4.8147,4.8141,4.8225,4.8535,4.8186,4.8075,4.8385,4.8419,4.8242,4.9237,5.0006,5.0303,5.0556,5.0724,5.0673,5.072,5.0891,5.0927,5.1054,5.1161,5.1187,5.1222,5.1245,5.1284,5.1265,5.1302,5.1274,5.1235,5.1284,5.1362,5.1355,5.1297,5.1316,5.1402,5.1398,5.1394,5.1394,5.1398,5.1389,5.1396,5.0842,4.9996,4.969,4.9266,4.8453,4.7695,4.72,4.7263,4.8053,4.7697,4.6409,4.603,4.5883,4.5408,4.4903,4.5123,4.5313,4.4228,4.3759,4.399,4.3782,4.2993]},{"header":{"parameterUnit":"m.s-1","parameterCategory":1,"la1":31.0,"la2":29.5877,"lo1":-88.7671,"lo2":-86.6584,"dx":0.0162,"dy":0.0185,"nx":115,"ny":88,"refTime":"2022-12-04T06:00:00:Z","depth":0,"parameterNumber":3,"parameterNumberName":"V-component_of_WINDS"},"data":[0.0,0.0,0.0,0.0,0.0,0.0,0.0,0.0,0.0,0.0,0.0,0.0,0.0,0.0,0.0,0.0,0.0,0.0,0.0,0.0,0.0,0.0,0.0,0.0,0.0,0.0,0.0,0.0,0.0,0.0,0.0,0.0,0.0,0.0,0.0,0.0,0.0,0.0,0.0,0.0,0.0,0.0,0.0,0.0,0.0,0.0,0.0,0.0,0.0,0.0,0.0,0.0,0.0,0.0,0.0,0.0,0.0,0.0,0.0,0.0,0.0,0.0,0.0,0.0,0.0,0.0,0.0,0.0,0.0,0.0,0.0,0.0,0.0,0.0,0.0,0.0,0.0,0.0,0.0,0.0,0.0,0.0,0.0,0.0,0.0,0.0,0.0,0.0,0.0,0.0,0.0,0.0,0.0,0.0,0.0,0.0,0.0,0.0,0.0,0.0,0.0,0.0,0.0,0.0,0.0,0.0,0.0,0.0,0.0,0.0,0.0,0.0,0.0,0.0,0.0,0.0,0.0,0.0,0.0,0.0,0.0,0.0,0.0,0.0,0.0,0.0,0.0,0.0,0.0,0.0,0.0,0.0,0.0,0.0,0.0,0.0,0.0,0.0,0.0,0.0,0.0,0.0,0.0,0.0,0.0,0.0,0.0,0.0,0.0,0.0,0.0,0.0,0.0,0.0,0.0,0.0,0.0,0.0,0.0,0.0,0.0,0.0,0.0,0.0,0.0,0.0,0.0,0.0,0.0,0.0,0.0,0.0,0.0,0.0,0.0,0.0,0.0,0.0,0.0,0.0,0.0,0.0,0.0,0.0,0.0,0.0,0.0,0.0,0.0,0.0,0.0,0.0,0.0,0.0,0.0,0.0,0.0,0.0,0.0,0.0,0.0,0.0,0.0,0.0,0.0,0.0,0.0,0.0,0.0,0.0,0.0,0.0,0.0,0.0,0.0,0.0,0.0,0.0,0.0,0.0,0.0,0.0,0.0,0.0,0.0,0.0,0.0,0.0,0.0,0.0,0.0,0.0,0.0,0.0,0.0,0.0,0.0,0.0,0.0,0.0,0.0,0.0,0.0,0.0,0.0,0.0,0.0,0.0,0.0,0.0,0.0,0.0,0.0,0.0,0.0,0.0,0.0,0.0,0.0,0.0,0.0,0.0,0.0,0.0,0.0,0.0,0.0,0.0,0.0,0.0,0.0,0.0,0.0,0.0,0.0,0.0,0.0,0.0,0.0,0.0,0.0,0.0,0.0,0.0,0.0,0.0,0.0,0.0,0.0,0.0,0.0,0.0,0.0,0.0,0.0,0.0,0.0,0.0,0.0,0.0,0.0,0.0,0.0,0.0,0.0,0.0,0.0,0.0,0.0,0.0,0.0,0.0,0.0,0.0,0.0,0.0,0.0,0.0,0.0,0.0,0.0,0.0,0.0,0.0,0.0,0.0,0.0,0.0,0.0,0.0,0.0,0.0,0.0,0.0,0.0,0.0,0.0,0.0,0.0,0.0,0.0,0.0,0.0,0.0,0.0,0.0,0.0,0.0,0.0,0.0,0.0,0.0,0.0,0.0,0.0,0.0,0.0,0.0,0.0,0.0,0.0,0.0,0.0,0.0,0.0,0.0,0.0,0.0,0.0,0.0,0.0,0.0,0.0,0.0,0.0,0.0,0.0,0.0,0.0,0.0,0.0,0.0,0.0,0.0,0.0,0.0,0.0,0.0,0.0,0.0,0.0,0.0,0.0,0.0,0.0,0.0,0.0,0.0,0.0,0.0,0.0,0.0,0.0,0.0,0.0,0.0,0.0,0.0,0.0,0.0,0.0,0.0,0.0,0.0,0.0,0.0,0.0,0.0,0.0,0.0,0.0,0.0,0.0,0.0,0.0,0.0,0.0,0.0,0.0,0.0,0.0,0.0,0.0,0.0,0.0,0.0,0.0,0.0,0.0,0.0,0.0,0.0,0.0,0.0,0.0,0.0,0.0,0.0,0.0,0.0,0.0,0.0,0.0,0.0,0.0,0.0,0.0,0.0,0.0,0.0,0.0,0.0,0.0,0.0,0.0,0.0,0.0,0.0,0.0,0.0,0.0,0.0,0.0,0.0,0.0,0.0,0.0,0.0,0.0,0.0,0.0,0.0,0.0,0.0,0.0,0.0,0.0,0.0,0.0,0.0,0.0,0.0,0.0,0.0,0.0,0.0,0.0,0.0,0.0,0.0,0.0,0.0,0.0,0.0,0.0,0.0,0.0,0.0,0.0,0.0,0.0,0.0,0.0,0.0,0.0,0.0,0.0,0.0,0.0,0.0,0.0,0.0,0.0,0.0,0.0,0.0,0.0,0.0,0.0,0.0,0.0,0.0,0.0,0.0,0.0,0.0,0.0,0.0,0.0,0.0,0.0,0.0,0.0,0.0,0.0,0.0,0.0,0.0,0.0,0.0,0.0,0.0,0.0,0.0,0.0,0.0,0.0,0.0,0.0,0.0,0.0,0.0,0.0,0.0,0.0,0.0,0.0,0.0,0.0,0.0,0.0,0.0,0.0,0.0,0.0,0.0,0.0,0.0,0.0,0.0,0.0,0.0,0.0,0.0,0.0,0.0,0.0,0.0,0.0,0.0,0.0,0.0,0.0,0.0,0.0,0.0,0.0,0.0,0.0,0.0,0.0,0.0,0.0,0.0,0.0,0.0,0.0,0.0,0.0,0.0,0.0,0.0,0.0,0.0,0.0,0.0,0.0,0.0,0.0,0.0,0.0,0.0,0.0,0.0,0.0,0.0,0.0,0.0,0.0,0.0,0.0,0.0,0.0,0.0,0.0,0.0,0.0,0.0,0.0,0.0,0.0,0.0,0.0,0.0,0.0,0.0,0.0,0.0,0.0,0.0,0.0,0.0,0.0,0.0,0.0,0.0,0.0,0.0,0.0,0.0,0.0,0.0,0.0,0.0,0.0,0.0,0.0,0.0,0.0,0.0,0.0,0.0,0.0,0.0,0.0,0.0,0.0,0.0,0.0,0.0,0.0,0.0,0.0,0.0,0.0,0.0,0.0,0.0,0.0,0.0,0.0,0.0,0.0,0.0,0.0,0.0,0.0,0.0,0.0,0.0,0.0,0.0,0.0,0.0,0.0,0.0,0.0,0.0,0.0,0.0,0.0,0.0,0.0,0.0,0.0,0.0,0.0,0.0,0.0,0.0,0.0,0.0,0.0,0.0,0.0,0.0,0.0,0.0,0.0,0.0,0.0,0.0,0.0,0.0,0.0,0.0,0.0,0.0,0.0,0.0,0.0,0.0,0.0,0.0,0.0,0.0,0.0,0.0,0.0,0.0,0.0,0.0,0.0,0.0,0.0,0.0,0.0,0.0,0.0,0.0,0.0,0.0,0.0,0.0,0.0,0.0,0.0,0.0,0.0,0.0,0.0,0.0,0.0,0.0,0.0,0.0,0.0,0.0,0.0,0.0,0.0,0.0,0.0,0.0,0.0,0.0,0.0,0.0,0.0,0.0,0.0,0.0,0.0,0.0,0.0,0.0,0.0,0.0,0.0,0.0,0.0,0.0,0.0,0.0,0.0,0.0,0.0,0.0,0.0,0.0,0.0,0.0,0.0,0.0,0.0,0.0,0.0,0.0,0.0,0.0,0.0,0.0,0.0,0.0,0.0,0.0,0.0,0.0,0.0,0.0,0.0,0.0,0.0,0.0,0.0,0.0,0.0,0.0,0.0,0.0,0.0,0.0,0.0,0.0,0.0,0.0,0.0,0.0,0.0,0.0,0.0,0.0,0.0,0.0,0.0,0.0,0.0,0.0,0.0,0.0,0.0,0.0,0.0,0.0,0.0,0.0,0.0,0.0,0.0,0.0,0.0,0.0,0.0,0.0,0.0,0.0,0.0,0.0,0.0,0.0,0.0,0.0,0.0,0.0,0.0,0.0,0.0,0.0,0.0,0.0,0.0,0.0,0.0,0.0,0.0,0.0,0.0,0.0,0.0,0.0,0.0,0.0,0.0,0.0,0.0,0.0,0.0,0.0,0.0,0.0,0.0,0.0,0.0,0.0,0.0,0.0,0.0,0.0,0.0,0.0,0.0,0.0,0.0,0.0,0.0,0.0,0.0,0.0,0.0,0.0,0.0,0.0,0.0,0.0,0.0,0.0,0.0,0.0,0.0,0.0,0.0,0.0,0.0,0.0,0.0,0.0,0.0,0.0,0.0,0.0,0.0,0.0,0.0,0.0,0.0,0.0,0.0,0.0,0.0,0.0,0.0,0.0,-0.576,0.0,0.0,0.0,-0.6148,0.0,0.0,0.0,0.0,0.0,0.0,0.0,0.0,0.0,0.0,0.0,0.0,0.0,0.0,0.0,0.0,0.0,0.0,0.0,0.0,0.0,0.0,0.0,0.0,0.0,0.0,0.0,0.0,0.0,0.0,0.0,0.0,0.0,0.0,0.0,0.0,0.0,0.0,0.0,0.0,0.0,0.0,0.0,0.0,0.0,0.0,0.0,0.0,0.0,0.0,0.0,0.0,0.0,0.0,0.0,0.0,0.0,0.0,0.0,0.0,0.0,0.0,0.0,0.0,0.0,0.0,0.0,0.0,0.0,0.0,0.0,0.0,0.0,0.0,0.0,0.0,0.0,0.0,0.0,0.0,0.0,0.0,0.0,0.0,0.0,0.0,0.0,0.0,0.0,0.0,0.0,0.0,0.0,0.0,0.0,0.0,0.0,0.0,0.0,0.0,0.0,0.0,0.0,0.0,0.0,0.0,0.0,0.0,0.0,0.0,-0.576,-0.5428,-0.5425,-0.5676,-0.6081,0.0,0.0,0.0,0.0,0.0,0.0,0.0,0.0,0.0,0.0,0.0,0.0,0.0,0.0,0.0,0.0,0.0,0.0,0.0,0.0,0.0,0.0,0.0,0.0,0.0,0.0,0.0,0.0,0.0,0.0,0.0,0.0,0.0,0.0,0.0,0.0,0.0,0.0,0.0,0.0,0.0,0.0,0.0,0.0,0.0,0.0,0.0,0.0,0.0,0.0,0.0,0.0,0.0,0.0,0.0,0.0,0.0,0.0,0.0,0.0,0.0,0.0,0.0,0.0,0.0,0.0,0.0,0.0,0.0,0.0,0.0,0.0,0.0,0.0,0.0,0.0,0.0,0.0,0.0,0.0,0.0,0.0,0.0,0.0,0.0,0.0,0.0,0.0,0.0,0.0,0.0,0.0,0.0,0.0,0.0,0.0,0.0,0.0,0.0,0.0,0.0,0.0,0.0,0.0,0.0,0.0,0.0,0.0,0.0,0.0,0.0,0.0,-0.5428,-0.5596,-0.6083,0.0,0.0,0.0,0.0,0.0,0.0,0.0,0.0,0.0,0.0,0.0,0.0,0.0,0.0,0.0,0.0,0.0,0.0,0.0,0.0,0.0,0.0,0.0,0.0,0.0,0.0,0.0,0.0,0.0,0.0,0.0,0.0,0.0,0.0,0.0,0.0,0.0,0.0,0.0,0.0,0.0,0.0,0.0,0.0,0.0,0.0,0.0,0.0,0.0,0.0,0.0,0.0,0.0,0.0,0.0,0.0,0.0,0.0,0.0,0.0,0.0,0.0,0.0,0.0,0.0,0.0,0.0,0.0,0.0,0.0,0.0,0.0,0.0,0.0,0.0,0.0,0.0,0.0,0.0,0.0,0.0,0.0,0.0,0.0,0.0,0.0,0.0,0.0,0.0,0.0,0.0,0.0,0.0,0.0,0.0,0.0,0.0,0.0,0.0,0.0,0.0,0.0,0.0,0.0,0.0,0.0,0.0,0.0,0.0,0.0,-0.5554,-0.5428,-0.5425,0.0,-0.6034,0.0,0.0,0.0,0.0,0.0,0.0,0.0,0.0,0.0,0.0,0.0,0.0,0.0,0.0,0.0,0.0,0.0,0.0,0.0,0.0,0.0,0.0,0.0,0.0,0.0,0.0,0.0,0.0,0.0,0.0,0.0,0.0,0.0,0.0,0.0,0.0,0.0,0.0,0.0,0.0,0.0,0.0,0.0,0.0,0.0,0.0,0.0,0.0,0.0,0.0,0.0,0.0,0.0,0.0,0.0,0.0,0.0,0.0,0.0,0.0,0.0,0.0,0.0,0.0,0.0,0.0,0.0,0.0,0.0,0.0,0.0,0.0,0.0,0.0,0.0,0.0,0.0,0.0,0.0,0.0,0.0,0.0,0.0,0.0,0.0,0.0,0.0,0.0,0.0,0.0,0.0,0.0,0.0,0.0,0.0,0.0,0.0,0.0,0.0,0.0,0.0,0.0,0.0,0.0,0.0,0.0,0.0,0.0,0.0,0.0,-0.5554,-0.5428,-0.5446,-0.5658,0.0,0.0,0.0,0.0,0.0,0.0,0.0,0.0,0.0,0.0,0.0,0.0,0.0,0.0,0.0,0.0,0.0,0.0,0.0,0.0,0.0,0.0,0.0,0.0,0.0,0.0,0.0,0.0,0.0,0.0,0.0,0.0,0.0,0.0,0.0,0.0,0.0,0.0,0.0,0.0,0.0,0.0,0.0,0.0,0.0,0.0,0.0,0.0,0.0,0.0,0.0,0.0,0.0,0.0,0.0,0.0,0.0,0.0,0.0,0.0,0.0,0.0,0.0,0.0,0.0,0.0,0.0,0.0,0.0,0.0,0.0,0.0,0.0,0.0,0.0,0.0,0.0,0.0,0.0,0.0,0.0,0.0,0.0,0.0,0.0,0.0,0.0,0.0,0.0,0.0,0.0,0.0,0.0,0.0,0.0,0.0,0.0,0.0,0.0,0.0,0.0,0.0,0.0,0.0,0.0,0.0,0.0,0.0,0.0,0.0,-0.5686,-0.5557,-0.5415,-0.5443,-0.5517,-0.5703,0.0,0.0,0.0,0.0,0.0,0.0,0.0,0.0,0.0,0.0,0.0,0.0,0.0,0.0,0.0,0.0,0.0,0.0,0.0,0.0,0.0,0.0,0.0,0.0,0.0,0.0,0.0,0.0,0.0,0.0,0.0,0.0,0.0,0.0,0.0,0.0,0.0,0.0,0.0,0.0,0.0,0.0,0.0,0.0,0.0,0.0,0.0,0.0,0.0,0.0,0.0,0.0,0.0,0.0,0.0,0.0,0.0,0.0,0.0,0.0,0.0,0.0,0.0,0.0,0.0,0.0,0.0,0.0,0.0,0.0,0.0,0.0,0.0,0.0,0.0,0.0,0.0,0.0,0.0,0.0,0.0,0.0,0.0,0.0,0.0,0.0,0.0,0.0,0.0,0.0,0.0,0.0,0.0,0.0,0.0,0.0,0.0,0.0,0.0,0.0,0.0,0.0,0.0,0.0,0.0,0.0,0.0,0.0,-0.5888,-0.5557,-0.5428,-0.5422,-0.5192,-0.5214,0.0,0.0,0.0,0.0,0.0,0.0,0.0,0.0,0.0,0.0,0.0,0.0,0.0,0.0,0.0,0.0,0.0,0.0,0.0,0.0,0.0,0.0,0.0,0.0,0.0,0.0,0.0,0.0,0.0,0.0,0.0,0.0,0.0,0.0,0.0,0.0,0.0,0.0,0.0,0.0,0.0,0.0,0.0,0.0,0.0,0.0,0.0,0.0,0.0,0.0,0.0,0.0,0.0,0.0,0.0,0.0,0.0,0.0,0.0,0.0,0.0,0.0,0.0,0.0,0.0,0.0,0.0,0.0,0.0,0.0,0.0,0.0,0.0,0.0,0.0,0.0,0.0,0.0,0.0,0.0,0.0,0.0,0.0,0.0,0.0,0.0,0.0,0.0,0.0,0.0,0.0,0.0,0.0,0.0,0.0,0.0,0.0,0.0,0.0,0.0,0.0,0.0,0.0,0.0,0.0,0.0,0.0,0.0,0.0,-0.561,-0.5308,-0.5156,-0.5147,-0.4879,-0.4807,0.0,0.0,0.0,0.0,0.0,0.0,0.0,0.0,0.0,0.0,0.0,0.0,0.0,0.0,0.0,0.0,0.0,0.0,0.0,0.0,0.0,0.0,0.0,0.0,0.0,0.0,0.0,0.0,0.0,0.0,0.0,0.0,0.0,0.0,0.0,0.0,0.0,0.0,0.0,0.0,0.0,0.0,0.0,0.0,0.0,0.0,0.0,0.0,0.0,0.0,0.0,0.0,0.0,0.0,0.0,0.0,0.0,0.0,0.0,0.0,0.0,0.0,0.0,0.0,0.0,0.0,0.0,0.0,0.0,0.0,0.0,0.0,0.0,0.0,0.0,0.0,0.0,0.0,0.0,0.0,0.0,0.0,0.0,0.0,0.0,0.0,0.0,0.0,0.0,0.0,0.0,0.0,0.0,0.0,0.0,0.0,0.0,0.0,0.0,0.0,0.0,0.0,0.0,0.0,0.0,0.0,0.0,0.0,0.0,-0.5396,-0.5212,-0.5087,-0.5011,-0.4684,-0.4537,0.0,0.0,0.0,0.0,0.0,0.0,0.0,0.0,0.0,0.0,0.0,0.0,0.0,0.0,0.0,0.0,0.0,0.0,0.0,0.0,0.0,0.0,0.0,0.0,0.0,0.0,0.0,0.0,0.0,0.0,0.0,0.0,0.0,0.0,0.0,0.0,0.0,0.0,0.0,0.0,0.0,0.0,0.0,0.0,0.0,0.0,0.0,0.0,0.0,0.0,0.0,0.0,0.0,0.0,0.0,0.0,0.0,0.0,0.0,0.0,0.0,0.0,0.0,0.0,0.0,0.0,0.0,0.0,0.0,0.0,0.0,0.0,0.0,0.0,0.0,0.0,0.0,0.0,0.0,0.0,0.0,0.0,0.0,0.0,0.0,0.0,0.0,0.0,0.0,0.0,0.0,0.0,0.0,0.0,0.0,0.0,0.0,0.0,0.0,0.0,0.0,0.0,0.0,0.0,0.0,0.0,0.0,0.0,-0.4787,-0.5325,-0.5212,-0.502,-0.5014,-0.4621,-0.4417,0.0,0.0,0.0,0.0,0.0,0.0,0.0,0.0,0.0,0.0,0.0,0.0,0.0,0.0,0.0,0.0,0.0,0.0,0.0,0.0,0.0,0.0,0.0,0.0,0.0,0.0,0.0,0.0,0.0,0.0,0.0,0.0,0.0,0.0,0.0,0.0,0.0,0.0,0.0,0.0,0.0,0.0,0.0,0.0,0.0,0.0,0.0,0.0,0.0,0.0,0.0,0.0,0.0,0.0,0.0,0.0,0.0,0.0,0.0,0.0,0.0,0.0,0.0,0.0,0.0,0.0,0.0,0.0,0.0,0.0,0.0,0.0,0.0,0.0,0.0,0.0,0.0,0.0,0.0,0.0,0.0,0.0,0.0,0.0,0.0,0.0,0.0,0.0,0.0,0.0,0.0,0.0,0.0,0.0,0.0,0.0,0.0,0.0,0.0,0.0,0.0,0.0,0.0,0.0,0.0,0.0,0.0,0.0,0.0,-0.4814,-0.4757,-0.4755,-0.4752,-0.431,-0.4057,0.0,0.0,0.0,0.0,0.0,0.0,0.0,0.0,0.0,0.0,0.0,0.0,0.0,0.0,0.0,0.0,0.0,0.0,0.0,0.0,0.0,0.0,0.0,0.0,0.0,0.0,0.0,0.0,0.0,0.0,0.0,0.0,0.0,0.0,0.0,0.0,0.0,0.0,0.0,0.0,0.0,0.0,0.0,0.0,0.0,0.0,0.0,0.0,0.0,0.0,0.0,0.0,0.0,0.0,0.0,0.0,0.0,0.0,0.0,0.0,0.0,0.0,0.0,0.0,0.0,0.0,0.0,0.0,0.0,0.0,0.0,0.0,0.0,0.0,0.0,0.0,0.0,0.0,0.0,0.0,0.0,0.0,0.0,0.0,0.0,0.0,0.0,0.0,0.0,0.0,0.0,0.0,0.0,0.0,0.0,0.0,0.0,0.0,0.0,0.0,0.0,0.0,0.0,0.0,0.0,0.0,0.0,0.0,0.0,-0.4048,-0.4431,-0.4766,-0.4901,-0.4496,-0.4153,-0.399,0.0,0.0,0.0,0.0,0.0,0.0,0.0,0.0,0.0,0.0,0.0,0.0,0.0,0.0,0.0,0.0,0.0,0.0,0.0,0.0,0.0,0.0,0.0,0.0,0.0,0.0,0.0,0.0,0.0,0.0,0.0,0.0,0.0,0.0,0.0,0.0,0.0,0.0,0.0,0.0,0.0,0.0,0.0,0.0,0.0,0.0,0.0,0.0,0.0,0.0,0.0,0.0,0.0,0.0,0.0,0.0,0.0,0.0,0.0,0.0,0.0,0.0,0.0,0.0,0.0,0.0,0.0,0.0,0.0,0.0,0.0,0.0,0.0,0.0,0.0,0.0,0.0,0.0,0.0,0.0,0.0,0.0,0.0,0.0,0.0,0.0,0.0,0.0,0.0,0.0,0.0,0.0,0.0,0.0,0.0,0.0,0.0,0.0,0.0,0.0,0.0,0.0,0.0,0.0,0.0,0.0,0.0,0.0,-0.3036,-0.4155,-0.4981,-0.5316,-0.5036,-0.4644,0.0,0.0,0.0,0.0,0.0,0.0,0.0,0.0,0.0,0.0,0.0,0.0,0.0,0.0,0.0,0.0,0.0,0.0,0.0,0.0,0.0,0.0,0.0,0.0,0.0,0.0,0.0,0.0,0.0,0.0,0.0,0.0,0.0,0.0,0.0,0.0,0.0,0.0,0.0,0.0,0.0,0.0,0.0,0.0,0.0,0.0,0.0,0.0,0.0,0.0,0.0,0.0,0.0,0.0,0.0,0.0,0.0,0.0,0.0,0.0,0.0,0.0,0.0,0.0,0.0,0.0,0.0,0.0,0.0,0.0,0.0,0.0,0.0,0.0,0.0,0.0,0.0,0.0,0.0,0.0,0.0,0.0,0.0,0.0,0.0,0.0,0.0,0.0,0.0,0.0,0.0,0.0,0.0,0.0,0.0,0.0,0.0,0.0,0.0,0.0,0.0,0.0,0.0,0.0,0.0,0.0,0.0,0.0,0.0,-0.2556,-0.3937,-0.4837,-0.5256,-0.5157,-0.4919,0.0,0.0,0.0,0.0,0.0,0.0,0.0,0.0,0.0,0.0,0.0,0.0,0.0,0.0,0.0,0.0,0.0,0.0,0.0,0.0,0.0,0.0,0.0,0.0,0.0,0.0,0.0,0.0,0.0,0.0,0.0,0.0,0.0,0.0,0.0,0.0,0.0,0.0,0.0,0.0,0.0,0.0,0.0,0.0,0.0,0.0,0.0,0.0,0.0,0.0,0.0,0.0,0.0,0.0,0.0,0.0,0.0,0.0,0.0,0.0,0.0,0.0,0.0,0.0,0.0,0.0,0.0,0.0,0.0,0.0,0.0,0.0,0.0,0.0,0.0,0.0,0.0,0.0,0.0,0.0,0.0,0.0,0.0,0.0,0.0,0.0,0.0,0.0,0.0,0.0,0.0,0.0,0.0,0.0,0.0,0.0,0.0,0.0,0.0,0.0,0.0,0.0,0.0,0.0,0.0,0.0,0.0,0.0,-0.1493,-0.196,-0.3302,-0.4704,-0.6145,-0.5846,-0.5507,0.0,0.0,0.0,0.0,0.0,0.0,0.0,0.0,0.0,0.0,0.0,0.0,0.0,0.0,0.0,0.0,0.0,0.0,0.0,0.0,0.0,0.0,0.0,0.0,0.0,0.0,0.0,0.0,0.0,0.0,0.0,0.0,0.0,0.0,0.0,0.0,0.0,0.0,0.0,0.0,0.0,0.0,0.0,0.0,0.0,0.0,0.0,0.0,0.0,0.0,0.0,0.0,0.0,0.0,0.0,0.0,0.0,0.0,0.0,0.0,0.0,0.0,0.0,0.0,0.0,0.0,0.0,0.0,0.0,0.0,0.0,0.0,0.0,0.0,0.0,0.0,0.0,0.0,0.0,0.0,0.0,0.0,0.0,0.0,0.0,0.0,0.0,0.0,0.0,0.0,0.0,0.0,0.0,0.0,0.0,0.0,0.0,0.0,0.0,0.0,0.0,0.0,0.0,0.0,0.0,0.0,0.0,0.0,-0.0138,-0.1311,-0.2512,-0.4433,-0.7076,-0.6764,-0.6371,0.0,0.0,0.0,0.0,0.0,0.0,0.0,0.0,0.0,0.0,0.0,0.0,0.0,0.0,0.0,0.0,0.0,0.0,0.0,0.0,0.0,0.0,0.0,0.0,0.0,0.0,0.0,0.0,0.0,0.0,0.0,0.0,0.0,0.0,0.0,0.0,0.0,0.0,0.0,0.0,0.0,0.0,0.0,0.0,0.0,0.0,0.0,0.0,0.0,0.0,0.0,0.0,0.0,0.0,0.0,0.0,0.0,0.0,0.0,0.0,0.0,0.0,0.0,0.0,0.0,0.0,0.0,0.0,0.0,0.0,0.0,0.0,0.0,0.0,0.0,0.0,0.0,0.0,0.0,0.0,0.0,0.0,0.0,0.0,0.0,0.0,0.0,0.0,0.0,0.0,0.0,0.0,0.0,0.0,0.0,0.0,0.0,0.0,0.0,0.0,0.0,0.0,0.0,0.0,0.0,0.0,0.0,0.0,0.0282,-0.051,-0.2207,-0.4119,-0.613,-0.668,-0.7057,0.0,0.0,0.0,0.0,0.0,0.0,0.0,0.0,0.0,0.0,0.0,0.0,0.0,0.0,0.0,0.0,0.0,0.0,0.0,0.0,0.0,0.0,0.0,0.0,0.0,0.0,0.0,0.0,0.0,0.0,0.0,0.0,0.0,0.0,0.0,0.0,0.0,0.0,0.0,0.0,0.0,0.0,0.0,0.0,0.0,0.0,0.0,0.0,-0.2083,0.0,0.0,0.0,0.0,0.0,0.0,0.0,0.0,0.0,0.0,0.0,0.0,0.0,0.0,0.0,0.0,0.0,0.0,0.0,0.0,0.0,0.0,0.0,0.0,0.0,0.0,0.0,0.0,0.0,0.0,0.0,0.0,0.0,0.0,0.0,0.0,0.0,0.0,0.0,0.0,0.0,0.0,0.0,0.0,0.0,0.0,0.0,0.0,0.0,0.0,0.0,0.0,0.0,0.0,0.0,0.0,0.0,0.0,0.0,0.17,0.0581,-0.1442,-0.3799,-0.6336,-0.7339,-0.7842,0.0,0.0,0.0,0.0,0.0,0.0,0.0,0.0,0.0,0.0,0.0,0.0,0.0,0.0,0.0,0.0,0.0,0.0,0.0,0.0,0.0,0.0,0.0,0.0,0.0,0.0,0.0,0.0,0.0,0.0,0.0,0.0,0.0,0.0,0.0,0.0,0.0,0.0,0.0,0.0,0.0,0.0,0.0,0.0,0.0,0.0,0.0,0.0,0.0,0.0,0.0,0.0,0.0,0.0,0.0,0.0,0.0,0.0,0.0,0.0,0.0,0.0,0.0,0.0,0.0,0.0,0.0,0.0,0.0,0.0,0.0,0.0,0.0,0.0,0.0,0.0,0.0,0.0,0.0,0.0,0.0,0.0,0.0,0.0,0.0,0.0,0.0,0.0,0.0,0.0,0.0,0.0,0.0,0.0,0.0,0.0,0.0,0.0,0.0,0.0,0.0,0.0,0.0,0.0,0.0,0.0,0.0,0.3431,0.3122,0.1528,-0.0682,-0.3401,-0.6798,-0.8128,-0.8689,-0.8503,0.0,0.0,0.0,0.0,0.0,0.0,0.0,0.0,0.0,0.0,0.0,0.0,0.0,0.0,0.0,0.0,0.0,0.0,0.0,0.0,0.0,0.0,0.0,0.0,0.0,0.0,0.0,0.0,0.0,0.0,0.0,0.0,0.0,0.0,0.0,0.0,0.0,0.0,-0.1781,-0.2639,0.0,0.0,0.0,0.0,0.0,0.0,0.0,0.0,-0.2193,0.0,0.0,0.0,0.0,0.0,0.0,0.0,0.0,0.0,0.0,0.0,0.0,0.0,0.0,0.0,0.0,0.0,0.0,0.0,0.0,0.0,0.0,0.0,0.0,0.0,0.0,0.0,0.0,0.0,0.0,0.0,0.0,0.0,0.0,0.0,0.0,0.0,0.0,0.0,0.0,0.0,0.0,0.0,0.0,0.0,0.0,0.0,0.0,0.0,0.0,0.0,0.0,0.0,0.0,0.0,0.0,0.3128,0.3599,0.3075,0.1423,-0.0383,-0.2787,-0.5739,-0.8027,-0.9132,-0.9066,0.0,0.0,0.0,0.0,0.0,0.0,0.0,0.0,0.0,0.0,0.0,0.0,0.0,0.0,0.0,0.0,0.0,0.0,0.0,0.0,0.0,0.0,0.0,0.0,0.0,0.0,0.0,0.0,0.0,0.0,0.0,0.0,0.0,0.0,0.0,0.0,0.0,0.0,0.0,-0.3131,-0.3565,0.0,0.0,0.0,0.0,0.0,0.0,0.0,0.0,-0.315,0.0,0.0,0.0,0.0,0.0,0.0,0.0,0.0,0.0,0.0,0.0,0.0,0.0,0.0,0.0,0.0,0.0,0.0,0.0,0.0,0.0,0.0,0.0,0.0,0.0,0.0,0.0,0.0,0.0,0.0,0.0,0.0,0.0,0.0,0.0,0.0,0.0,0.0,0.0,0.0,0.0,0.0,0.0,0.0,0.0,0.0,0.0,0.0,0.0,0.0,0.0,0.0,0.0,0.0,0.0,0.3791,0.4,0.3437,0.2067,-0.0077,-0.2571,-0.5523,-0.803,-0.9311,0.0,0.0,0.0,0.0,0.0,0.0,0.0,0.0,0.0,0.0,0.0,0.0,0.0,0.0,0.0,0.0,0.0,0.0,0.0,0.0,0.0,0.0,0.0,0.0,0.0,0.0,0.0,0.0,0.0,0.0,0.0,0.0,0.0,0.0,0.0,0.0,0.0,0.0,0.0,0.0,-0.3409,-0.3872,-0.4247,0.0,0.0,0.0,0.0,0.0,0.0,-0.3597,-0.3698,0.0,0.0,0.0,0.0,0.0,0.0,0.0,0.0,0.0,0.0,0.0,0.0,0.0,0.0,0.0,0.0,0.0,0.0,0.0,0.0,0.0,0.0,0.0,0.0,0.0,0.0,0.0,0.0,0.0,0.0,0.0,0.0,0.0,0.0,0.0,0.0,0.0,0.0,0.0,0.0,0.0,0.0,0.0,0.0,0.0,0.0,0.0,0.0,0.0,0.0,0.0,0.0,0.0,0.0,0.0,0.4081,0.4346,0.3806,0.2503,0.0156,-0.2429,-0.5217,-0.7769,-0.9158,0.0,0.0,0.0,0.0,0.0,0.0,0.0,0.0,0.0,0.0,0.0,0.0,0.0,0.0,0.0,0.0,0.0,0.0,0.0,0.0,0.0,0.0,0.0,0.0,0.0,0.0,0.0,0.0,0.0,0.0,0.0,0.0,0.0,0.0,0.0,0.0,0.0,0.0,0.0,0.0,0.0,-0.4125,-0.4795,-0.4528,0.0,0.0,0.0,0.0,-0.3704,-0.4246,0.0,0.0,0.0,0.0,0.0,0.0,0.0,0.0,0.0,0.0,0.0,0.0,0.0,0.0,0.0,0.0,0.0,0.0,0.0,0.0,0.0,0.0,0.0,0.0,0.0,0.0,0.0,0.0,0.0,0.0,0.0,0.0,0.0,0.0,0.0,0.0,0.0,0.0,0.0,0.0,0.0,0.0,0.0,0.0,0.0,0.0,0.0,0.0,0.0,0.0,0.0,0.0,0.0,0.0,0.0,0.0,0.3535,0.4385,0.3841,0.1925,0.0236,-0.1809,-0.4203,-0.685,-0.8198,0.0,0.0,0.0,0.0,0.0,0.0,0.0,0.0,0.0,0.0,0.0,0.0,0.0,0.0,0.0,0.0,0.0,0.0,0.0,0.0,0.0,0.0,0.0,0.0,0.0,0.0,0.0,0.0,0.0,0.0,0.0,0.0,0.0,0.0,0.0,0.0,0.0,0.0,0.0,0.0,0.0,-0.4281,-0.4623,-0.4798,-0.4803,0.0,0.0,-0.5014,-0.4405,-0.5642,0.0,0.0,0.0,0.0,0.0,0.0,0.0,0.0,0.0,0.0,0.0,0.0,0.0,0.0,0.0,0.0,0.0,0.0,0.0,0.0,0.0,0.0,0.0,0.0,0.0,0.0,0.0,0.0,0.0,0.0,0.0,0.0,0.0,0.0,0.0,0.0,0.0,0.0,0.0,0.0,0.0,0.0,0.0,0.0,0.0,0.0,0.0,0.0,0.0,0.0,0.0,0.0,0.0,0.0,0.0,0.3095,0.3353,0.4307,0.446,0.3549,0.0652,-0.2129,-0.4459,-0.6805,-0.7995,0.0,0.0,0.0,0.0,0.0,0.0,0.0,0.0,0.0,0.0,0.0,0.0,0.0,0.0,0.0,0.0,0.0,0.0,0.0,0.0,0.0,0.0,0.0,0.0,0.0,0.0,0.0,0.0,0.0,0.0,0.0,0.0,0.0,0.0,0.0,0.0,0.0,0.0,0.0,0.0,0.0,0.0,-0.4646,-0.4993,0.0,0.0,0.0,-0.5627,-0.5084,0.0,0.0,0.0,0.0,0.0,0.0,0.0,0.0,0.0,0.0,0.0,0.0,0.0,0.0,0.0,0.0,0.0,0.0,0.0,0.0,0.0,0.0,0.0,0.0,0.0,0.0,0.0,0.0,0.0,0.0,0.0,0.0,0.0,0.0,0.0,0.0,0.0,0.0,0.0,0.0,0.0,0.0,0.0,0.0,0.0,0.0,0.0,0.0,0.0,0.0,0.0,0.0,0.0,0.0,0.0,0.0,0.0,0.3351,0.4355,0.4688,0.4367,0.117,-0.2031,-0.4966,-0.6641,0.0,0.0,0.0,0.0,0.0,0.0,0.0,0.0,0.0,0.0,0.0,0.0,0.0,0.0,0.0,0.0,0.0,0.0,0.0,0.0,0.0,0.0,0.0,0.0,0.0,0.0,0.0,-0.0772,0.0,0.0,0.0,0.0,0.0,0.0,0.0,0.0,0.0,0.0,0.0,0.0,0.0,0.0,-0.4012,-0.4907,-0.5319,-0.5766,0.0,0.0,-0.6181,-0.5868,-0.7196,-0.8426,0.0,0.0,0.0,0.0,0.0,0.0,0.0,0.0,0.0,0.0,0.0,0.0,0.0,0.0,0.0,0.0,0.0,0.0,0.0,0.0,0.0,0.0,0.0,0.0,0.0,0.0,0.0,0.0,0.0,0.0,0.0,0.0,0.0,0.0,0.0,0.0,0.0,0.0,0.0,0.0,0.0,0.0,0.0,0.0,0.0,0.0,0.0,0.0,0.0,0.0,0.0,0.0,0.0,0.0,0.3225,0.3766,0.4579,0.4344,0.3019,0.176,-0.1025,-0.5257,-0.5696,-0.6301,0.0,0.0,0.0,0.0,0.0,0.0,0.0,0.0,0.0,0.0,0.0,0.0,0.0,0.0,0.0,0.0,0.0,0.0,0.0,0.0,0.0,0.0,0.0,0.0,0.0,0.0,0.0,0.0,0.0,0.0,0.0,0.0,0.0,0.0,0.0,0.0,0.0,0.0,0.0,0.0,0.0,-0.3939,-0.5356,-0.5932,-0.6457,0.0,-0.714,-0.684,-0.6724,-0.8511,-0.9924,-0.9801,0.0,0.0,0.0,0.0,0.0,0.0,0.0,0.0,0.0,0.0,0.0,0.0,0.0,0.0,0.0,0.0,0.0,0.0,0.0,0.0,0.0,0.0,0.0,0.0,0.0,0.0,0.0,0.0,0.0,0.0,0.0,0.0,0.0,0.0,0.0,0.0,0.0,0.0,0.0,0.0,0.0,0.0,0.0,0.0,0.0,0.0,0.0,0.0,0.0,0.0,0.0,0.0,0.0,0.3421,0.4025,0.4807,0.3827,0.1258,0.0258,-0.158,-0.4648,-0.5427,-0.6175,0.0,0.0,0.0,0.0,0.0,0.0,0.0,0.0,0.0,0.0,0.0,0.0,0.0,0.0,0.0,0.0,0.0,0.0,0.0,0.0,0.0,0.0,0.0,0.0,0.0,0.0,0.0,0.0,-0.1497,-0.1634,-0.1545,0.0,0.0,0.0,0.0,0.0,0.0,0.0,0.0,0.0,0.0,-0.4137,-0.4569,-0.562,0.0,0.0,-0.6078,-0.6294,-0.7132,-0.8078,-0.9053,-1.022,-0.9674,0.0,0.0,0.0,0.0,0.0,0.0,0.0,0.0,0.0,0.0,0.0,0.0,0.0,0.0,0.0,0.0,0.0,0.0,0.0,0.0,0.0,0.0,0.0,0.0,0.0,0.0,0.0,0.0,0.0,0.0,0.0,0.0,0.0,0.0,0.0,0.0,0.0,0.0,0.0,0.0,0.0,0.0,0.0,0.0,0.0,0.0,0.0,0.0,0.0,0.0,0.0,0.0,0.4045,0.4553,0.4999,0.4107,0.1677,0.0524,-0.1432,-0.4144,-0.5187,-0.6161,0.0,0.0,0.0,0.0,0.0,0.0,0.0,0.0,0.0,0.0,0.0,0.0,0.0,0.0,0.0,0.0,0.0,0.0,0.0,0.0,0.0,0.0,0.0,0.0,0.0,0.0,0.0,0.0,-0.1595,-0.1696,-0.1639,0.0,0.0,0.0,0.0,0.0,0.0,0.0,0.0,0.0,0.0,-0.3511,-0.4235,-0.5224,-0.5975,-0.5916,-0.5881,-0.5999,-0.6726,-0.7572,-0.8685,-1.0055,0.0,0.0,0.0,0.0,0.0,0.0,0.0,0.0,0.0,0.0,0.0,0.0,0.0,0.0,0.0,0.0,0.0,0.0,0.0,0.0,0.0,0.0,0.0,0.0,0.0,0.0,0.0,0.0,0.0,0.0,-0.1315,0.0,0.0,0.0,0.0,0.0,0.0,0.0,0.0,0.0,0.0,0.0,0.0,0.0,0.0,0.0,0.0,0.0,0.0,0.0,0.0,0.0,0.0,0.5109,0.5299,0.5292,0.5272,0.5144,0.3155,-0.0,-0.4131,-0.4879,-0.6251,-0.8376,0.0,0.0,0.0,0.0,0.0,0.0,0.0,0.0,0.0,0.0,0.0,0.0,0.0,0.0,0.0,0.0,0.0,0.0,0.0,0.0,0.0,0.0,0.0,0.0,0.0,0.0,-0.1636,-0.1676,-0.1687,0.0,0.0,0.0,0.0,0.0,0.0,0.0,0.0,0.0,0.0,-0.0268,-0.1887,-0.4365,-0.4876,-0.5467,-0.6788,-0.6777,-0.6254,-0.5276,-0.7297,-0.9131,0.0,0.0,0.0,0.0,0.0,0.0,0.0,0.0,0.0,0.0,0.0,0.0,0.0,0.0,0.0,0.0,0.0,0.0,0.0,0.0,0.0,0.0,0.0,0.0,0.0,0.0,0.0,-0.0173,-0.0454,0.0,0.0,0.0,0.0,0.0,0.0,0.0,0.0,0.0,0.0,0.0,-0.0234,-0.2809,0.0,0.0,0.0,0.0,0.0,0.0,0.0,0.0,0.0,0.0,0.0,0.0,0.5487,0.5708,0.6053,0.594,0.5393,0.2675,-0.0353,-0.3695,-0.4812,-0.6332,-0.836,0.0,0.0,0.0,0.0,0.0,0.0,0.0,0.0,0.0,0.0,0.0,0.0,0.0,0.0,0.0,0.0,0.0,0.0,0.0,0.0,0.0,0.0,0.0,0.0,0.0,-0.1767,0.0,0.0,0.0,0.0,0.0,0.0,0.0,0.0,0.0,0.0,0.0,0.256,0.171,0.021,-0.1352,-0.3065,-0.4627,-0.5574,0.0,0.0,0.0,0.0,0.0,0.0,0.0,0.0,0.0,0.0,0.0,0.0,0.0,0.0,-0.4298,-0.4912,-0.5559,-0.6168,-0.6597,0.0,0.0,0.0,0.0,0.0,0.0,0.0,0.0,0.0,0.0,0.0,0.0,0.0,0.0,-0.0119,0.0,-0.0619,0.0,0.0,0.0,0.0,0.0,0.0,0.0,0.0,0.2941,0.1816,0.0371,-0.2668,-0.4111,0.0,-0.4838,-0.4284,0.0,0.0,0.0,0.0,0.0,0.0,0.0,0.0,0.6299,0.6275,0.695,0.6702,0.5447,0.2946,-0.0352,-0.4376,-0.6189,-0.7513,-0.8557,-0.989,-1.0277,0.0,0.0,0.0,0.0,0.0,0.0,0.0,0.0,0.0,0.0,0.0,0.0,0.0,0.0,0.0,0.0,0.0,0.0,0.0,0.0,0.0,0.0,0.0,-0.1999,0.0,0.0,0.0,0.0,0.0,0.0,0.0,0.0,0.0,0.2389,0.3087,0.3263,0.2605,0.1374,-0.0148,-0.2252,0.0,0.0,0.0,0.0,0.0,0.0,0.0,-0.8983,-1.1275,-1.0975,-1.0289,-0.9741,-0.8045,-0.6423,-0.5352,0.0,0.0,-0.578,-0.6552,-0.726,-0.785,-0.814,-0.8144,-0.7785,-0.779,-0.7617,0.0,0.0,0.0,0.0,0.0,0.0,0.0,0.0,0.0,-0.0061,0.0,-0.0649,0.0,0.0,0.0,0.0,0.0,0.3632,0.0,0.0,0.4753,0.3423,0.1274,-0.0319,-0.2236,-0.4356,-0.4189,-0.4008,-0.384,-0.2519,0.0,0.0,0.0,0.0,0.0,0.0,0.7606,0.7099,0.7947,0.7507,0.5645,0.3807,-0.0089,-0.6183,-0.8803,-0.9805,-0.9055,-1.1527,-1.3059,-1.3316,-1.0719,0.0,0.0,0.0,0.0,0.0,0.0,0.0,0.0,0.0,0.0,0.0,0.0,0.0,0.0,0.0,0.0,0.0,0.0,0.0,0.0,-0.2131,0.0,0.0,0.0,0.0,0.0,0.0,0.0,0.0,0.0,0.0,0.2953,0.3507,0.3703,0.3397,0.0,0.0,0.0,0.0,-0.3499,-0.6356,-0.7107,-0.7237,-0.6968,-0.8102,-1.0034,-1.2984,0.0,0.0,-0.8348,-0.7293,-0.6178,-0.4934,-0.5104,-0.5701,-0.6067,-0.6856,-0.7687,-0.8457,-0.8847,-0.9023,-0.8794,-0.8167,-0.7773,-0.4326,0.0,0.0,0.0,0.0,0.1416,0.1251,-0.0382,-0.0382,-0.0507,-0.0692,-0.0861,0.0,0.0,0.0,0.0,0.0,0.0,0.5898,0.6393,0.5244,0.3968,0.2489,-0.0784,-0.3677,-0.6094,-0.5969,-0.489,-0.3039,-0.1282,-0.0061,0.0784,0.0,0.0,0.0,0.0,0.8434,0.7715,0.8409,0.7844,0.5912,0.357,-0.0526,-0.6447,-0.9091,-1.0249,-0.9888,-1.2616,-1.371,-1.2943,-1.2027,0.0,0.0,0.0,0.0,0.0,0.0,0.0,0.0,0.0,0.0,0.0,0.0,0.0,0.0,0.0,0.0,0.0,0.0,0.0,-0.2587,-0.323,-0.3755,0.0,0.0,0.0,0.0,0.0,0.0,0.0,0.0,0.0,0.3554,0.4228,0.4574,0.0,0.0,0.2279,-0.054,-0.3091,-0.5016,-0.5964,-0.7204,0.0,-0.8428,-0.9765,-1.1243,-1.279,-1.1826,-1.0232,-0.8164,-0.6788,-0.551,-0.4295,-0.3934,-0.4061,-0.4652,-0.6177,-0.7453,-0.7901,-0.8084,-0.8043,-0.7702,-0.7745,-0.761,-0.6836,-0.4207,-0.2835,-0.181,-0.0877,0.0952,0.1485,0.0854,-0.0721,-0.2164,-0.3547,-0.2641,-0.2072,-0.152,0.1642,0.0,0.0,0.0,0.7118,0.7321,0.577,0.4116,0.2381,-0.086,-0.3657,-0.5833,-0.5343,-0.4389,-0.3099,0.0334,0.2491,0.3663,0.0,0.0,0.7511,0.9075,0.9346,0.8245,0.8586,0.803,0.643,0.2099,-0.2285,-0.6719,-0.9323,-1.0711,-1.0895,-1.3639,-1.4793,-1.394,-1.3842,-1.2814,0.0,0.0,0.0,0.0,0.0,0.0,0.0,0.0,0.0,0.0,0.0,-0.2558,-0.2736,0.0,0.0,0.0,-0.3304,-0.3421,-0.3884,-0.4542,0.0,0.0,0.0,0.0,0.0,0.0,0.0,-0.2035,0.0256,0.2306,0.3635,0.4798,0.5321,0.4726,0.404,0.2543,-0.0156,0.0,-0.4608,-0.5928,-0.7526,-0.8921,-0.9863,-1.0586,-1.1146,-1.1456,-1.0689,-0.9365,-0.7352,-0.584,-0.4589,-0.3694,-0.3309,-0.3332,-0.3737,-0.5105,-0.6372,-0.7038,-0.7315,-0.7382,-0.7061,-0.7195,-0.7077,-0.8672,-0.7158,-0.5439,-0.3336,-0.1226,-0.0729,0.0738,0.2491,-0.0941,-0.4182,-0.6856,-0.4986,-0.3701,-0.2631,0.2925,0.0,0.6156,0.7288,0.7843,0.7982,0.6248,0.4109,0.1716,-0.0464,-0.2533,-0.442,-0.3184,-0.2844,-0.3085,0.2308,0.6051,0.8096,0.8307,0.8617,0.9118,1.0331,1.0165,0.8541,0.8417,0.7853,0.6732,-0.0,-0.4739,-0.7012,-0.9336,-1.0935,-1.1736,-1.4533,-1.5979,-1.5802,-1.5833,-1.5194,-1.3647,0.0,0.0,0.0,0.0,0.0,0.0,0.0,0.0,0.0,0.0,0.0,0.0,0.0,0.0,0.0,-0.4834,0.0,-0.5825,-0.6154,0.0,0.0,0.0,-0.6371,-0.6374,-0.4636,-0.3112,-0.2454,0.0,0.0,0.3432,0.5167,0.6103,0.5196,0.4315,0.2652,-0.0389,-0.1556,-0.3112,-0.6086,-0.7855,-0.9476,-1.0748,-1.0652,-1.0223,-0.9769,-0.8948,-0.7864,-0.613,-0.4672,-0.3579,-0.2747,-0.294,-0.3201,-0.3199,-0.3691,-0.4464,-0.5832,-0.6571,-0.6876,-0.666,-0.6522,-0.6331,-0.9506,-0.8468,-0.7519,-0.5669,-0.3183,-0.187,-0.1073,-0.0672,-0.0269,-0.1343,-0.336,-0.2818,-0.1599,0.0198,0.2678,0.5032,0.7307,0.8019,0.8441,0.8506,0.7312,0.5443,0.3055,0.073,-0.1264,-0.2874,-0.2386,-0.1051,0.1047,0.4974,0.7986,0.9988,1.1115,1.1165,1.0207,1.037,0.9979,0.8752,0.7847,0.6467,0.4391,-0.0802,-0.4739,-0.7012,-0.9336,-1.0687,-1.0935,-1.4508,-1.6203,-1.5538,-1.6851,-1.7327,-1.6537,-1.3743,0.0,0.0,0.0,0.0,0.0,0.0,0.0,0.0,0.0,-0.3515,-0.331,0.0,-0.4631,0.0,-0.6581,-0.798,-0.871,-0.8971,0.0,0.0,-0.8195,-0.7197,-0.6197,-0.4912,-0.3401,-0.1536,0.0985,0.3083,0.4348,0.6071,0.6972,0.6252,0.4586,0.2579,0.0456,-0.1701,-0.3671,-0.5538,-0.7157,-0.8514,-0.9546,-0.9825,-0.9712,-0.9563,-0.8047,-0.6451,-0.5241,-0.3822,-0.2537,-0.1734,-0.2104,-0.2332,-0.1972,-0.2401,-0.3149,-0.3983,-0.5029,-0.5712,-0.5346,-0.5631,-0.5855,-0.9192,-0.8409,-0.8107,-0.6666,-0.4553,-0.3473,-0.2471,-0.1474,-0.0939,-0.1609,-0.3082,-0.3082,-0.187,0.0399,0.2659,0.4985,0.7237,0.7925,0.8207,0.8075,0.7138,0.547,0.3006,0.1045,-0.0392,-0.1246,-0.0917,0.0519,0.3153,0.619,0.86,1.0435,1.1467,1.1057,0.9552,1.0858,1.0437,0.8295,0.6698,0.5665,0.5029,-0.0535,-0.483,-0.7375,-0.917,-1.0269,-1.0616,-1.3736,-1.5405,-1.5325,-1.6519,-1.7185,-1.6931,-1.4559,-1.2663,0.0,0.0,0.0,0.0,0.0,0.0,0.0,0.0,0.0,0.0,0.0,-0.6609,-0.7002,-0.8269,-0.9309,-0.9944,-1.003,-0.9971,-0.9833,-0.8705,-0.7578,-0.6514,-0.4935,-0.3357,-0.1664,0.1305,0.3682,0.5025,0.7087,0.8038,0.7025,0.5699,0.3857,0.1231,-0.1261,-0.3372,-0.4841,-0.6556,-0.785,-0.8389,-0.8903,-0.8869,-0.7944,-0.6471,-0.4994,-0.4077,-0.2911,-0.1953,-0.1489,-0.136,-0.1379,-0.1533,-0.1856,-0.2344,-0.3,-0.3887,-0.458,-0.4535,-0.4772,-0.4789,-0.8355,-0.7632,-0.7752,-0.6898,-0.5456,-0.5016,-0.3499,-0.1333,-0.1942,-0.2885,-0.402,-0.4084,-0.28,-0.0465,0.2596,0.4998,0.6641,0.738,0.7534,0.7188,0.6506,0.4894,0.2666,0.1273,0.0573,0.0509,0.0765,0.2026,0.4205,0.6753,0.8722,1.0215,1.0609,0.9845,0.8243,1.0545,1.0369,0.7527,0.5286,0.4844,0.5941,-0.0178,-0.4739,-0.7375,-0.8823,-0.9758,-1.0529,-1.2663,-1.4187,-1.4881,-1.561,-1.6024,-1.601,-1.468,-1.3895,0.0,-1.181,0.0,0.0,0.0,0.0,0.0,0.0,0.0,0.0,-0.7995,-0.9202,-0.9795,-0.9807,-0.9933,-1.0436,-1.0189,-1.0005,-0.9971,-0.8838,-0.7752,-0.6916,-0.5044,-0.3195,-0.1814,0.1407,0.4015,0.579,0.8313,0.9366,0.7782,0.7038,0.5391,0.2223,-0.0407,-0.2402,-0.3826,-0.5898,-0.7107,-0.7134,-0.7472,-0.7318,-0.596,-0.4711,-0.3667,-0.3238,-0.2268,-0.1497,-0.1397,-0.0636,-0.0326,-0.1387,-0.149,-0.176,-0.2175,-0.2758,-0.3321,-0.3844,-0.3759,-0.3538,-0.7627,-0.701,-0.6676,-0.6366,-0.5962,-0.514,-0.3898,-0.2347,-0.1614,-0.1814,-0.2549,-0.275,-0.1672,0.0333,0.1872,0.3808,0.6063,0.6229,0.6595,0.7086,0.6349,0.533,0.4072,0.2658,0.1919,0.1732,0.2163,0.3542,0.574,0.7821,0.9474,1.066,1.0615,0.9682,0.7845,0.0,0.0,0.0,0.4612,0.2764,0.0806,-0.1341,-0.3486,-0.546,-0.7566,0.0,-1.0067,-1.249,-1.3971,-1.4057,-1.5499,0.0,0.0,0.0,0.0,0.0,0.0,0.0,0.0,0.0,0.0,0.0,-1.3287,-1.2779,-1.1274,-1.1526,-1.1882,-1.1982,-1.0527,-1.0181,-1.1624,-1.1175,-1.0885,-1.0992,-0.9402,-0.7923,-0.6834,-0.5409,-0.3194,0.0445,0.1057,0.2905,0.7407,1.0001,1.0562,0.8713,0.7718,0.6219,0.3648,0.1167,-0.0836,-0.2413,-0.4517,-0.5589,-0.5456,-0.4734,-0.4648,-0.5039,-0.3706,-0.2672,-0.3195,-0.2227,-0.0913,-0.0164,0.0166,0.0251,0.0417,-0.0168,-0.0675,-0.0925,-0.0757,-0.1174,-0.2844,-0.2793,-0.2228,-0.6473,-0.5985,-0.5974,-0.5642,0.0,-0.462,-0.3745,-0.2576,-0.1871,-0.1756,-0.1908,-0.1776,-0.1059,0.0134,0.1608,0.3251,0.4951,0.553,0.6104,0.6607,0.6142,0.5443,0.4496,0.3297,0.2761,0.2881,0.3103,0.4215,0.6041,0.7623,0.8826,0.9729,0.9312,0.8259,0.6455,0.4448,0.3016,0.2382,0.2404,0.1349,-0.0728,-0.2725,-0.4176,-0.5087,-0.7166,0.0,0.0,0.0,0.0,0.0,0.0,0.0,0.0,0.0,0.0,-1.5198,-1.4841,-1.5942,-1.873,-1.7346,-1.6272,-1.6019,-1.6095,-1.5221,-1.2992,-1.2788,-1.2664,-1.2285,-1.0698,-0.9964,-1.0698,-1.0562,-1.0533,-1.0606,-0.9622,-0.8364,-0.7274,-0.6141,-0.3876,0.0147,0.2484,0.5081,0.85,1.0623,1.1141,0.9786,0.8711,0.7307,0.5185,0.2332,-0.0345,-0.2562,-0.4741,-0.5521,-0.4207,-0.269,-0.1863,-0.2547,-0.198,-0.1493,-0.1594,-0.0841,0.0168,0.0757,0.1102,0.1366,0.1367,0.1119,0.0781,0.0694,0.0953,0.1125,0.0346,0.0,-0.0174,-0.5356,-0.4709,-0.506,-0.4671,-0.3721,-0.3701,-0.3146,-0.2181,0.0,0.0,0.0,-0.1221,-0.0782,-0.0266,0.1539,0.3029,0.4143,0.5105,0.5743,0.5957,0.5677,0.5222,0.4589,0.368,0.3457,0.3873,0.3925,0.4661,0.614,0.7099,0.7826,0.836,0.7924,0.6689,0.5002,0.3341,0.1341,-0.088,0.0268,0.0364,-0.1022,-0.3516,-0.4892,-0.5168,-0.6853,-0.8097,-0.8777,-1.0186,-1.149,-1.258,-1.306,-1.3607,-1.3983,-1.4169,-1.4775,-1.5766,-1.5556,-1.6968,-2.0428,-1.8934,-1.7954,-1.8148,-1.7512,-1.6088,-1.3747,-1.339,-1.285,-1.1911,-1.0267,-0.9371,-0.9449,-0.9468,-0.9689,-1.0031,-0.948,-0.8649,-0.7776,-0.6976,-0.4617,-0.0146,0.4822,0.8331,0.9596,1.0897,1.1445,1.0585,0.9334,0.799,0.6045,0.2932,0.0,-0.1922,-0.355,-0.4473,-0.2799,-0.0837,0.0168,0.0084,-0.0084,0.0085,0.0765,0.1361,0.1785,0.2048,0.2589,0.2785,0.253,0.2471,0.2504,0.2326,0.286,0.3481,0.4009,0.3606,0.3057,-0.4508,-0.3274,-0.355,-0.3266,-0.2718,-0.247,-0.1874,-0.1142,-0.1146,-0.1176,-0.112,-0.1086,-0.084,-0.0389,0.1393,0.2973,0.4374,0.4734,0.5074,0.5212,0.4836,0.4713,0.4678,0.4168,0.4226,0.4646,0.5023,0.5663,0.6526,0.6974,0.7486,0.7952,0.7569,0.6314,0.4601,0.3838,0.239,0.0183,0.0368,-0.0279,-0.1803,-0.2522,-0.3791,-0.554,-0.5869,-0.7122,-0.9253,-1.0279,-1.1404,-1.2685,-1.3082,-1.3393,-1.3826,-1.3958,-1.4619,-1.5801,-1.5793,-1.6779,-1.9103,-1.8795,-1.8047,-1.7038,-1.639,-1.5736,-1.509,-1.4551,-1.3498,-1.1632,-0.9114,-0.8123,-0.946,-0.8754,-0.878,-1.0118,-0.913,-0.8141,-0.8152,-0.7298,-0.4453,0.1277,0.7706,1.1401,1.1486,1.1508,1.1213,1.0262,0.9013,0.721,0.5176,0.295,0.152,0.089,0.0439,0.0174,0.0173,0.1783,0.2292,0.1118,0.1468,0.1912,0.238,0.318,0.3884,0.4526,0.47,0.4709,0.4535,0.419,0.4111,0.4287,0.5445,0.6511,0.6495,0.7155,0.7759,-0.3883,-0.3058,-0.3431,-0.3145,-0.2405,-0.2087,-0.1569,-0.0956,-0.0926,-0.083,-0.0663,-0.055,-0.0434,-0.0126,0.1721,0.2967,0.3803,0.4348,0.47,0.4807,0.4687,0.4639,0.4718,0.4598,0.4913,0.5502,0.5716,0.6008,0.6374,0.6958,0.7394,0.7526,0.667,0.5559,0.452,0.374,0.2587,0.1049,0.0955,0.0096,-0.1744,-0.24,-0.3321,-0.4406,-0.5501,-0.6939,-0.8652,-0.9619,-1.06,-1.181,-1.2177,-1.2781,-1.3522,-1.3867,-1.4001,-1.3891,-1.5254,-1.6229,-1.6527,-1.7141,-1.6848,-1.5407,-1.4821,-1.3987,-1.2609,-1.2899,-1.2183,-1.0018,-0.8072,-0.7552,-0.8894,-0.8353,-0.8619,-1.032,-0.9394,-0.8568,-0.8079,-0.6765,-0.3667,0.1677,0.7269,1.1019,1.1806,1.2055,1.1829,1.0877,0.9099,0.7295,0.5977,0.4643,0.3396,0.2593,0.231,0.2299,0.2293,0.3243,0.3322,0.2115,0.2734,0.3277,0.3576,0.4385,0.5277,0.5636,0.5902,0.5985,0.5985,0.5885,0.5974,0.6416,0.7298,0.8181,0.8777,1.024,1.1273,-0.3543,-0.2995,-0.3353,-0.3087,-0.2237,-0.1607,-0.1205,-0.0917,-0.0977,-0.0931,-0.0713,-0.0118,0.0179,0.0305,0.1906,0.28,0.3093,0.3851,0.4207,0.4327,0.4562,0.4621,0.4665,0.4938,0.5483,0.6105,0.6229,0.6257,0.6321,0.6846,0.7001,0.6704,0.5795,0.5152,0.4653,0.3927,0.2883,0.1553,0.1473,0.0493,-0.1483,-0.2349,-0.3089,-0.3794,-0.5271,-0.6799,-0.8025,-0.9038,-0.9953,-1.0718,-1.1396,-1.2203,-1.305,-1.3587,-1.3427,-1.2696,-1.4258,-1.5077,-1.4435,-1.5149,-1.504,-1.3571,-1.2813,-1.1681,-1.0036,-1.0062,-0.9938,-0.8584,-0.7317,-0.7015,-0.7824,-0.7851,-0.8413,-0.9757,-0.9238,-0.8401,-0.7633,-0.5752,-0.2712,0.1938,0.6688,1.0322,1.1578,1.2355,1.2159,1.0968,0.9302,0.8002,0.7474,0.6596,0.5445,0.4643,0.3933,0.3757,0.4206,0.4559,0.4289,0.3314,0.4129,0.4766,0.4959,0.586,0.669,0.6979,0.7118,0.7378,0.745,0.7411,0.7661,0.8093,0.8882,0.9826,1.1203,1.265,1.384,-0.3722,-0.3004,-0.2888,-0.2453,-0.171,-0.0673,-0.0488,-0.0916,-0.1286,-0.1657,-0.1777,-0.0,0.0768,0.095,0.1706,0.2151,0.2327,0.3121,0.3547,0.3615,0.416,0.4473,0.4574,0.5119,0.5713,0.6268,0.6366,0.6611,0.6895,0.6448,0.6044,0.5598,0.5583,0.5363,0.4935,0.4827,0.3599,0.1429,0.1481,0.0604,-0.1408,-0.185,-0.2861,-0.4553,-0.4933,-0.6077,-0.8017,-0.9196,-0.9796,-0.9999,-1.1164,-1.2018,-1.2438,-1.2809,-1.3154,-1.3284,-1.2967,-1.2887,-1.3484,-1.3285,-1.2617,-1.1516,-1.0179,-0.9097,-0.8332,-0.6843,-0.667,-0.7548,-0.6668,-0.6198,-0.6876,-0.6842,-0.7389,-0.8674,-0.7938,-0.6974,-0.6346,-0.4187,-0.11,0.2517,0.7156,1.0811,1.2158,1.2324,1.1645,1.0787,0.9712,0.8969,0.8711,0.7921,0.7397,0.7309,0.6514,0.573,0.583,0.5911,0.566,0.5211,0.6082,0.6584,0.6888,0.7784,0.8914,0.8623,0.8667,0.8771,0.8999,0.911,0.8978,0.9676,1.0544,1.1757,1.3691,1.4762,1.5118,-0.3628,-0.3084,-0.2419,-0.1585,-0.074,-0.0185,-0.0123,-0.0432,-0.1482,-0.1917,-0.1604,0.0,0.0605,0.0364,0.0981,0.154,0.2033,0.283,0.3292,0.3532,0.4165,0.4556,0.4763,0.5401,0.5929,0.6379,0.6668,0.681,0.6726,0.6342,0.5925,0.5652,0.56,0.5452,0.5145,0.5053,0.3894,0.1711,0.145,0.0294,-0.1585,-0.1762,-0.2506,-0.3985,-0.5175,-0.6236,-0.7471,-0.8624,-0.9518,-1.0024,-1.067,-1.1396,-1.2118,-1.2499,-1.2821,-1.2879,-1.1288,-1.094,-1.2189,-1.1776,-1.1061,-1.0104,-0.932,-0.8405,-0.7468,-0.6233,-0.5927,-0.6216,-0.584,-0.5861,-0.66,-0.6175,-0.6294,-0.7279,-0.6809,-0.5938,-0.4934,-0.2919,-0.0164,0.3599,0.7264,1.0434,1.214,1.2361,1.1889,1.1214,1.0361,0.9749,0.9758,0.9235,0.889,0.8911,0.8271,0.7534,0.7101,0.665,0.6584,0.7008,0.7717,0.8317,0.8962,0.9727,1.0454,1.0288,1.0127,1.0012,1.0055,1.0264,1.0371,1.1181,1.2683,1.4084,1.531,1.5957,1.6335,-0.2968,-0.2556,-0.1711,-0.0831,0.0,0.0,0.013,0.013,-0.1298,-0.1614,-0.0896,-0.0064,0.032,0.0446,0.0936,0.1427,0.1889,0.2627,0.3052,0.3342,0.4113,0.465,0.4944,0.548,0.5992,0.6328,0.6608,0.6643,0.6603,0.6368,0.6109,0.5898,0.5743,0.5586,0.5478,0.5193,0.412,0.2353,0.1612,0.0288,-0.1467,-0.1847,-0.25,-0.3799,-0.5191,-0.6349,-0.7221,-0.8279,-0.9196,-0.9806,-0.9942,-1.0443,-1.1607,-1.2033,-1.2054,-1.1653,-0.9934,-0.9421,-1.071,-1.0321,-0.9688,-0.8974,-0.8343,-0.7478,-0.6454,-0.5566,-0.5008,-0.4776,-0.4896,-0.5303,-0.6154,-0.5674,-0.5591,-0.6105,-0.5538,-0.4537,-0.3099,-0.1262,0.1352,0.473,0.761,1.0179,1.2213,1.2766,1.2504,1.2266,1.1397,1.0707,1.0804,1.0458,0.9937,0.9864,0.95,0.8709,0.7829,0.7411,0.7564,0.8005,0.8812,0.9805,1.0557,1.1228,1.1952,1.1775,1.1451,1.1251,1.142,1.1513,1.1743,1.2775,1.4195,1.5739,1.6573,1.7062,1.7363,-0.1377,-0.1296,-0.0409,-0.0069,0.0,0.0,0.0505,0.1074,-0.0576,-0.057,0.0417,-0.0278,0.0069,0.1448,0.1868,0.1847,0.1727,0.2345,0.2711,0.2899,0.3849,0.4556,0.504,0.5428,0.5855,0.6215,0.6261,0.6268,0.6325,0.6617,0.6544,0.618,0.6167,0.6049,0.5773,0.5325,0.4422,0.3052,0.1971,0.0671,-0.0875,-0.1988,-0.3,-0.3971,-0.4936,-0.6083,-0.7295,-0.8373,-0.8954,-0.9091,-0.8946,-0.9494,-1.0732,-1.1068,-1.0798,-0.9928,-0.902,-0.8695,-0.9051,-0.8809,-0.8383,-0.787,-0.6736,-0.5572,-0.5014,-0.4191,-0.3681,-0.3555,-0.371,-0.4311,-0.5349,-0.5126,-0.486,-0.4523,-0.3814,-0.2684,-0.1032,0.1292,0.3561,0.5801,0.8301,1.0687,1.3045,1.3392,1.3319,1.3143,1.2784,1.2375,1.1802,1.1354,1.0906,1.044,0.9855,0.8997,0.8295,0.8058,0.8045,0.8879,1.0039,1.0953,1.1402,1.1854,1.2715,1.3166,1.2592,1.2359,1.266,1.288,1.3118,1.4005,1.5507,1.6733,1.7546,1.7858,1.8078,-0.0937,-0.0838,0.0285,0.0431,0.0,0.0,0.051,0.1166,0.0656,0.0653,0.1007,0.0789,0.1219,0.2292,0.279,0.2504,0.1837,0.2409,0.2747,0.2788,0.3668,0.44,0.5009,0.5339,0.5651,0.5973,0.6182,0.6441,0.6599,0.6589,0.6576,0.6415,0.6269,0.6106,0.5926,0.5384,0.4523,0.344,0.2098,0.0744,-0.0575,-0.1594,-0.2428,-0.3129,-0.4391,-0.5544,-0.6599,-0.7599,-0.8451,-0.921,-0.9117,-0.9454,-1.0259,-1.0254,-1.0071,-0.9612,-0.8245,-0.7724,-0.8189,-0.756,-0.7049,-0.676,-0.5637,-0.4759,-0.4271,-0.3709,-0.3258,-0.3201,-0.3204,-0.3638,-0.3893,-0.3458,-0.3109,-0.3596,-0.2438,-0.069,0.1405,0.3712,0.5667,0.7281,0.9828,1.2273,1.3059,1.3716,1.3761,1.3436,1.3137,1.2887,1.2476,1.1978,1.1494,1.1185,1.0652,1.0083,0.9543,0.8808,0.8806,1.0249,1.1419,1.24,1.3036,1.3538,1.4298,1.4076,1.3532,1.3407,1.3707,1.4044,1.4294,1.5129,1.6591,1.781,1.8543,1.8745,1.8824,-0.0141,0.0073,0.0809,0.0738,0.0148,0.0223,0.0523,0.1046,0.112,0.1338,0.1625,0.1694,0.221,0.2947,0.3391,0.3043,0.2306,0.2813,0.2977,0.2968,0.3721,0.4376,0.4869,0.5202,0.5473,0.5861,0.6336,0.657,0.6764,0.6678,0.6646,0.6655,0.6362,0.6256,0.6068,0.5458,0.4741,0.3846,0.2415,0.1008,0.0095,-0.1125,-0.2062,-0.2571,-0.3516,-0.4595,-0.5539,-0.6684,-0.7585,-0.8365,-0.8712,-0.8969,-0.914,-0.9387,-0.9237,-0.8789,-0.7521,-0.6756,-0.7018,-0.6608,-0.6085,-0.5649,-0.4773,-0.4092,-0.3698,-0.3103,-0.2788,-0.2728,-0.2789,-0.2873,-0.265,-0.176,-0.1514,-0.2296,-0.1124,0.0704,0.2769,0.5131,0.7052,0.8889,1.1321,1.3127,1.3641,1.3937,1.4018,1.3678,1.3492,1.3261,1.3004,1.2721,1.2235,1.1863,1.1446,1.1191,1.093,1.0399,1.0026,1.1111,1.2325,1.3465,1.4292,1.491,1.5147,1.5006,1.4785,1.4652,1.4765,1.5113,1.5622,1.6225,1.7512,1.8814,1.9366,1.9681,1.9435,0.1168,0.1102,0.12,0.0984,0.0532,0.0541,0.0627,0.0781,0.0859,0.1539,0.2271,0.2192,0.2646,0.3475,0.3553,0.3366,0.3153,0.3343,0.3417,0.3395,0.3883,0.4404,0.4852,0.5068,0.5497,0.6061,0.6471,0.675,0.6867,0.6986,0.6991,0.6953,0.6715,0.6498,0.634,0.5725,0.528,0.4563,0.2862,0.1568,0.1065,-0.0756,-0.1983,-0.233,-0.2643,-0.3296,-0.4565,-0.5536,-0.6364,-0.7001,-0.773,-0.7731,-0.7488,-0.835,-0.8594,-0.7467,-0.6732,-0.6169,-0.5633,-0.5937,-0.5576,-0.4616,-0.3925,-0.3349,-0.2858,-0.2298,-0.1943,-0.2043,-0.2168,-0.2045,-0.1499,-0.0888,-0.0618,-0.0349,0.0176,0.1601,0.3409,0.5642,0.8048,1.0461,1.2472,1.3695,1.4032,1.4212,1.4186,1.4052,1.3866,1.3713,1.3564,1.325,1.3065,1.2825,1.2579,1.2487,1.2351,1.2151,1.1833,1.189,1.302,1.4118,1.4632,1.5159,1.5582,1.5575,1.5569,1.5442,1.5503,1.5874,1.6415,1.7191,1.8635,1.9484,1.9665,1.9763,1.9544,0.1229,0.123,0.1239,0.1166,0.1011,0.0704,0.0943,0.1572,0.1649,0.211,0.2797,0.2794,0.3258,0.3797,0.3799,0.3703,0.3669,0.3607,0.3481,0.3489,0.397,0.4417,0.4824,0.5234,0.5755,0.6308,0.6576,0.7087,0.7682,0.7831,0.7994,0.8206,0.7811,0.7126,0.6248,0.5808,0.5455,0.501,0.2952,0.1753,0.1359,-0.0478,-0.1819,-0.2241,-0.2299,-0.2699,-0.3416,-0.4472,-0.5606,-0.6705,-0.7222,-0.743,-0.7525,-0.7699,-0.7689,-0.7411,-0.686,-0.6218,-0.5466,-0.5078,-0.4595,-0.3622,-0.2896,-0.2356,-0.224,-0.1999,-0.178,-0.1848,-0.1876,-0.1568,-0.0623,-0.0269,-0.0179,-0.0444,0.1692,0.3599,0.5206,0.7601,0.9736,1.1482,1.2836,1.3609,1.3981,1.411,1.4276,1.4054,1.3835,1.3694,1.3932,1.379,1.3702,1.3753,1.3755,1.359,1.3339,1.3683,1.4135,1.3714,1.43,1.476,1.5171,1.5586,1.5999,1.6189,1.6272,1.6334,1.6385,1.6614,1.7261,1.7986,1.917,1.9581,1.9583,1.9468,1.9299,0.1414,0.1492,0.1335,0.1336,0.1335,0.1099,0.1414,0.2123,0.2358,0.2735,0.3024,0.3251,0.3465,0.3755,0.3774,0.3778,0.3836,0.3863,0.3849,0.3841,0.4118,0.4501,0.5041,0.5667,0.6109,0.6623,0.7097,0.7673,0.8365,0.8717,0.8953,0.889,0.8364,0.7482,0.6428,0.5902,0.5652,0.5158,0.3193,0.1879,0.1268,-0.0392,-0.1764,-0.2073,-0.2239,-0.2458,-0.2827,-0.3624,-0.4506,-0.5432,-0.5912,-0.6274,-0.6716,-0.6736,-0.6607,-0.6332,-0.6136,-0.5623,-0.4543,-0.4044,-0.3508,-0.2746,-0.2102,-0.1793,-0.1824,-0.1835,-0.1686,-0.1635,-0.1309,-0.0796,-0.0089,0.0628,0.0718,0.0538,0.2797,0.5038,0.6833,0.938,1.1194,1.2323,1.3402,1.399,1.4309,1.4422,1.4628,1.4422,1.4161,1.409,1.4455,1.4274,1.446,1.4765,1.5027,1.4774,1.4178,1.5019,1.6365,1.6041,1.5637,1.5819,1.6001,1.6327,1.6608,1.6836,1.687,1.7265,1.7275,1.7498,1.7863,1.8808,1.9566,1.9602,1.9582,1.9254,1.9015,0.157,0.1804,0.157,0.1414,0.1492,0.1725,0.2044,0.2286,0.2829,0.3115,0.3228,0.3442,0.3628,0.3651,0.3819,0.4024,0.4081,0.447,0.4649,0.4648,0.4777,0.5003,0.5529,0.6225,0.6716,0.7104,0.7935,0.8507,0.8943,0.9634,0.9767,0.9446,0.8636,0.7496,0.6637,0.6011,0.5721,0.5363,0.3474,0.222,0.1803,-0.0201,-0.1611,-0.1914,-0.2175,-0.2307,-0.2601,-0.294,-0.3281,-0.3667,-0.4316,-0.4901,-0.5342,-0.5665,-0.5594,-0.4963,-0.5032,-0.4253,-0.3161,-0.3176,-0.2855,-0.2054,-0.1751,-0.17,-0.1728,-0.1476,-0.1311,-0.1155,-0.0536,-0.0,0.0448,0.1346,0.2067,0.2529,0.3848,0.5903,0.8409,1.0863,1.2199,1.2945,1.3925,1.475,1.488,1.4948,1.5069,1.5133,1.4833,1.4764,1.4868,1.4923,1.522,1.5663,1.6308,1.6427,1.6137,1.7154,1.826,1.806,1.7397,1.6883,1.677,1.688,1.7244,1.7379,1.7645,1.796,1.8193,1.8308,1.8555,1.9351,1.9634,1.9641,1.9298,1.8796,1.8359,0.1803,0.1882,0.2118,0.2198,0.2198,0.2275,0.2695,0.3129,0.3086,0.3512,0.3869,0.3781,0.4093,0.4598,0.4622,0.5105,0.5695,0.5891,0.5915,0.5764,0.6165,0.6284,0.6374,0.6528,0.7154,0.7947,0.8392,0.9235,1.0458,1.0814,1.1121,1.163,0.9818,0.8082,0.6554,0.6133,0.6112,0.5837,0.4547,0.3101,0.1996,0.0696,-0.0697,-0.1915,-0.1984,-0.2122,-0.2322,-0.2554,-0.298,-0.3585,-0.4285,-0.4796,-0.5129,-0.5575,-0.5624,-0.5269,-0.4229,-0.3441,-0.3047,-0.3028,-0.2681,-0.1707,-0.1459,-0.1393,-0.1509,-0.1068,-0.0714,-0.0448,-0.009,0.0538,0.1526,0.2158,0.2819,0.3824,0.5258,0.712,0.9399,1.1399,1.27,1.3437,1.3925,1.4364,1.4793,1.4865,1.4929,1.4992,1.4921,1.4789,1.4983,1.5214,1.5334,1.7071,1.7915,1.8133,1.8513,1.9521,2.0043,1.9992,1.9138,1.7912,1.7677,1.7435,1.7724,1.7971,1.8258,1.8664,1.8792,1.8873,1.9423,1.9607,1.9163,1.8836,1.8157,1.7569,1.741,0.2273,0.2434,0.2616,0.2785,0.295,0.3134,0.3415,0.3771,0.3741,0.3903,0.4186,0.4031,0.4252,0.496,0.5025,0.5696,0.6637,0.646,0.6397,0.6569,0.6719,0.685,0.6891,0.6929,0.7494,0.8599,0.8978,0.9932,1.1176,1.1771,1.2057,1.169,1.0445,0.8536,0.6522,0.6261,0.6233,0.5958,0.4942,0.3746,0.2812,0.1206,-0.0301,-0.1515,-0.1897,-0.2056,-0.228,-0.2403,-0.2899,-0.3497,-0.4072,-0.4555,-0.5026,-0.5692,-0.5581,-0.4874,-0.3701,-0.2961,-0.2398,-0.2357,-0.1972,-0.1304,-0.1051,-0.1151,-0.1162,-0.0807,-0.0179,0.0448,0.0807,0.1442,0.2272,0.2931,0.3919,0.5441,0.6715,0.7917,0.9332,1.1196,1.2538,1.3335,1.3925,1.4467,1.4927,1.5057,1.5057,1.5036,1.5105,1.5103,1.5087,1.5257,1.5688,1.7193,1.8227,1.8379,1.8817,1.9689,2.0548,2.0612,1.9599,1.855,1.8169,1.7717,1.8057,1.839,1.8777,1.9109,1.9102,1.9064,1.9186,1.907,1.8492,1.8002,1.7412,1.6964,1.6791,0.2846,0.317,0.3149,0.3339,0.3759,0.3991,0.4189,0.429,0.4518,0.4575,0.4622,0.4335,0.4796,0.508,0.5659,0.6113,0.725,0.72,0.7232,0.7458,0.7418,0.7215,0.7558,0.7205,0.7964,0.9157,0.9854,1.0676,1.163,1.2686,1.2365,1.1436,1.036,0.8707,0.7064,0.6404,0.6274,0.6108,0.5273,0.4403,0.3632,0.2032,0.0509,-0.101,-0.1405,-0.1789,-0.2042,-0.2178,-0.2486,-0.3332,-0.3588,-0.3899,-0.4539,-0.5486,-0.5251,-0.3723,-0.3194,-0.2265,-0.1523,-0.1375,-0.1132,-0.0701,-0.0533,-0.0717,-0.0718,-0.0269,0.0448,0.1346,0.2064,0.2445,0.3223,0.404,0.5636,0.7174,0.7983,0.8181,0.8689,1.0708,1.2586,1.2802,1.4002,1.4905,1.5375,1.5551,1.5551,1.5607,1.5553,1.5407,1.5328,1.53,1.5842,1.6772,1.7582,1.8087,1.8776,1.9583,2.0412,2.0735,1.949,1.8484,1.8132,1.791,1.828,1.8544,1.8613,1.8809,1.907,1.9093,1.8868,1.8418,1.7826,1.7499,1.7167,1.6759,1.643,0.3395,0.3647,0.3993,0.4248,0.4421,0.4525,0.4746,0.4984,0.5572,0.5794,0.5789,0.608,0.6421,0.6912,0.7176,0.8086,0.9158,0.9397,1.0077,0.9913,0.8532,0.8348,0.8392,0.7731,0.8511,1.0135,1.0891,1.1673,1.2645,1.3028,1.2819,1.1579,1.0357,0.8922,0.7312,0.6594,0.6339,0.639,0.6075,0.5336,0.4429,0.3537,0.1923,0.0,-0.0398,-0.0987,-0.1469,-0.0767,-0.075,-0.1749,-0.2443,-0.2683,-0.3009,-0.3413,-0.3903,-0.388,-0.2039,-0.0679,-0.0431,-0.0782,-0.0965,-0.0178,0.0446,0.0718,0.0359,0.0359,0.1076,0.1885,0.2335,0.3264,0.4809,0.6467,0.7736,0.8779,0.9466,0.9715,0.987,1.1411,1.2746,1.349,1.4548,1.5538,1.5995,1.6043,1.6123,1.6114,1.5972,1.5745,1.5589,1.5548,1.5971,1.6643,1.6955,1.7549,1.7984,1.8608,1.9177,1.9872,1.9029,1.8095,1.7757,1.7579,1.7715,1.803,1.8226,1.8469,1.8817,1.8351,1.8123,1.758,1.7095,1.6897,1.6599,1.6318,1.6324,0.4032,0.4287,0.4667,0.4857,0.5037,0.5595,0.5915,0.6213,0.6847,0.7149,0.7078,0.7286,0.7587,0.8177,0.845,0.9152,1.0265,1.0722,1.0458,0.9671,0.8711,0.8849,0.8924,0.8282,0.8806,1.0896,1.1269,1.2104,1.3093,1.3487,1.3051,1.1482,1.0628,0.9275,0.7607,0.6844,0.6551,0.6581,0.6559,0.6095,0.5349,0.4327,0.2314,0.0403,0.01,0.0,-0.1489,-0.0293,-0.0,-0.0473,-0.0925,-0.117,-0.1416,-0.1836,-0.2525,-0.2344,-0.1208,0.0432,0.0351,0.0088,-0.0177,0.0269,0.0987,0.1166,0.1166,0.1256,0.1805,0.2451,0.3284,0.4497,0.6596,0.7551,0.8848,1.0162,1.0498,1.0602,1.0945,1.2079,1.2918,1.3501,1.4636,1.5556,1.6117,1.6419,1.6345,1.6325,1.6406,1.6177,1.5834,1.5787,1.6033,1.6405,1.6524,1.6897,1.7199,1.7486,1.7624,1.8227,1.8283,1.7397,1.6819,1.6892,1.6971,1.737,1.7948,1.8067,1.8137,1.7681,1.7265,1.6935,1.6505,1.6205,1.6105,1.6211,1.6217,0.4578,0.484,0.5274,0.5483,0.5673,0.6812,0.7298,0.7394,0.8097,0.8329,0.8352,0.8257,0.8665,0.8973,0.9235,1.0019,1.0906,1.0963,1.046,0.9486,0.8958,0.897,0.8989,0.8564,0.9038,1.0875,1.1802,1.2746,1.3558,1.3903,1.3266,1.151,1.106,0.9749,0.796,0.7115,0.6752,0.6711,0.6638,0.6573,0.6194,0.4947,0.2716,0.0805,0.0905,0.0905,-0.02,0.0298,0.0884,0.0685,0.057,0.0459,0.0089,-0.0437,-0.0698,0.0087,0.0525,0.088,0.1068,0.0984,0.0806,0.0897,0.1346,0.1525,0.1704,0.2064,0.2439,0.3199,0.424,0.6182,0.8239,0.9174,1.0147,1.1282,1.1524,1.162,1.204,1.2725,1.3106,1.3276,1.4916,1.6322,1.6592,1.6786,1.6658,1.6577,1.6671,1.6607,1.6358,1.6163,1.6324,1.6384,1.6559,1.6634,1.6971,1.7125,1.7119,1.7047,1.7437,1.6868,1.6223,1.6274,1.6548,1.72,1.7555,1.7562,1.7463,1.7054,1.6636,1.6324,1.6111,1.5998,1.6105,1.6205,1.6211,0.5049,0.5318,0.621,0.6659,0.6926,0.783,0.8281,0.8452,0.924,0.9414,0.9148,0.9758,0.9937,1.0043,1.0467,1.1246,1.1852,1.1625,1.1086,1.037,0.9571,0.9038,0.9091,0.8862,0.949,1.1224,1.2725,1.3808,1.4076,1.4382,1.3552,1.2084,1.147,1.0116,0.8285,0.7399,0.7085,0.6866,0.6749,0.6643,0.6384,0.5785,0.4528,0.2517,0.282,0.2116,0.1613,0.201,0.2392,0.157,0.1463,0.1343,0.1123,0.0909,0.0895,0.098,0.1157,0.1249,0.1343,0.1345,0.1615,0.1974,0.2154,0.2153,0.233,0.2689,0.3154,0.4101,0.5763,0.7889,0.9498,1.0577,1.1945,1.2964,1.3311,1.3428,1.3491,1.3663,1.3864,1.386,1.5499,1.6827,1.671,1.6896,1.7091,1.7015,1.7114,1.6997,1.6714,1.6568,1.6559,1.6624,1.6673,1.6642,1.6796,1.6832,1.6926,1.6535,1.6611,1.6518,1.6065,1.601,1.6305,1.6723,1.6723,1.6518,1.6418,1.6318,1.6318,1.6111,1.5998,1.5891,1.6105,1.6205,1.6105,0.6599,0.6432,0.7309,0.7749,0.7929,0.8803,0.9331,0.9589,1.0381,1.0819,1.0814,1.1084,1.1332,1.1319,1.1521,1.2108,1.2426,1.1975,1.1499,1.0859,0.977,0.9221,0.9575,0.9337,1.0582,1.2182,1.3732,1.4443,1.4344,1.4825,1.4026,1.2705,1.1957,1.0456,0.8461,0.768,0.7348,0.7136,0.7011,0.6771,0.6695,0.6238,0.5345,0.4531,0.413,0.3525,0.262,0.3127,0.3115,0.2389,0.2071,0.1857,0.1637,0.151,0.1474,0.1459,0.1445,0.1436,0.1524,0.1615,0.1974,0.2244,0.2512,0.251,0.2686,0.3047,0.406,0.5624,0.6683,0.889,1.0922,1.1915,1.284,1.375,1.4316,1.4356,1.4208,1.4418,1.4442,1.4451,1.5356,1.6179,1.6333,1.6697,1.741,1.7589,1.7483,1.7272,1.706,1.694,1.6817,1.6637,1.6654,1.6666,1.6604,1.6606,1.6704,1.6363,1.6163,1.6072,1.5982,1.591,1.5885,1.6099,1.5992,1.5885,1.5992,1.6099,1.6105,1.5998,1.5998,1.5998,1.6211,1.6211,1.6105,0.8006,0.7577,0.8368,0.8807,0.8978,0.9854,1.0415,1.0794,1.1511,1.1908,1.2099,1.2127,1.2229,1.246,1.2647,1.2829,1.3168,1.2242,1.1266,1.0617,0.9775,0.9502,0.9744,1.0395,1.1342,1.2813,1.3771,1.4524,1.456,1.5101,1.4444,1.3316,1.2389,1.0835,0.8631,0.8,0.7668,0.741,0.7194,0.7058,0.6755,0.6259,0.5739,0.5138,0.514,0.4533,0.3525,0.3629,0.363,0.3111,0.2689,0.2467,0.2165,0.1939,0.1714,0.1497,0.1556,0.1626,0.1794,0.2063,0.2423,0.2691,0.2869,0.2867,0.3223,0.395,0.5257,0.7399,0.8313,0.9216,1.1115,1.2381,1.3116,1.3757,1.4514,1.4892,1.4902,1.4981,1.5003,1.5187,1.5389,1.5891,1.6409,1.6781,1.7569,1.7589,1.7483,1.7378,1.7099,1.7124,1.6995,1.6704,1.6673,1.6525,1.6501,1.6423,1.6423,1.6314,1.6157,1.6097,1.5988,1.5891,1.5885,1.5885,1.5885,1.5885,1.5885,1.5885,1.5998,1.5998,1.5998,1.5998,1.6105,1.5992,1.5785,0.8105,0.8719,0.9419,0.9772,0.9956,1.0926,1.157,1.1916,1.2192,1.25,1.2721,1.2671,1.2677,1.2871,1.3251,1.3412,1.3003,1.2061,1.1199,1.0735,0.9975,0.9686,0.9849,1.0654,1.1953,1.3248,1.3713,1.4112,1.473,1.5299,1.4813,1.3516,1.2573,1.1247,0.8798,0.8413,0.8165,0.7887,0.7463,0.7078,0.6692,0.622,0.6052,0.5944,0.5543,0.5037,0.4533,0.4334,0.3932,0.3729,0.3324,0.3416,0.3804,0.3357,0.2541,0.2022,0.1884,0.2287,0.2708,0.2797,0.2981,0.3255,0.3517,0.368,0.4236,0.5056,0.6367,0.744,0.8459,0.9411,1.1091,1.2536,1.3281,1.38,1.4307,1.5257,1.5683,1.4777,1.4902,1.5646,1.5793,1.6447,1.7095,1.7338,1.7589,1.7589,1.7589,1.7384,1.7138,1.7041,1.7095,1.6814,1.6579,1.6531,1.6459,1.6368,1.6102,1.6127,1.6103,1.6079,1.5982,1.5885,1.5885,1.5885,1.5885,1.5779,1.5565,1.5565,1.5779,1.5891,1.5891,1.5885,1.5885,1.5779,1.5458,1.0047,0.9777,1.0602,1.1009,1.1201,1.186,1.2338,1.2693,1.2806,1.2948,1.3138,1.315,1.3318,1.3483,1.382,1.3974,1.362,1.2522,1.1515,1.1129,1.0655,1.0551,1.1005,1.185,1.2956,1.3926,1.4572,1.5018,1.5419,1.5346,1.49,1.3382,1.271,1.1343,0.9161,0.8891,0.8558,0.8002,0.7444,0.6956,0.6736,0.6449,0.6242,0.635,0.5741,0.5441,0.514,0.4736,0.4232,0.4033,0.3732,0.3831,0.4026,0.3698,0.2975,0.2732,0.2895,0.3413,0.373,0.362,0.3608,0.38,0.417,0.4642,0.5281,0.6575,0.7735,0.8629,0.955,1.0342,1.1009,1.2205,1.2527,1.3057,1.3724,1.463,1.5161,1.4815,1.4537,1.5368,1.6212,1.6746,1.7259,1.7477,1.7589,1.7582,1.749,1.7292,1.6951,1.6686,1.6759,1.6837,1.6646,1.6648,1.6447,1.635,1.5982,1.5773,1.5881,1.5857,1.5934,1.5885,1.5885,1.5885,1.5885,1.5565,1.5238,1.5345,1.5565,1.5779,1.5885,1.5559,1.5339,1.4917,1.4374,1.1669,1.1082,1.1556,1.1998,1.2249,1.2433,1.2814,1.3244,1.3336,1.3469,1.3701,1.3737,1.3845,1.3996,1.4183,1.4256,1.4178,1.3221,1.2344,1.176,1.159,1.1673,1.2218,1.302,1.4156,1.5306,1.5509,1.5743,1.5803,1.5573,1.4565,1.281,1.2805,1.1396,0.9768,0.9137,0.8797,0.7832,0.7359,0.701,0.6796,0.6594,0.6491,0.6356,0.6044,0.5639,0.5238,0.5037,0.4634,0.4332,0.4234,0.4433,0.473,0.4223,0.4102,0.4056,0.4328,0.4215,0.4442,0.4405,0.41,0.4186,0.4468,0.4911,0.568,0.7513,0.8769,0.8725,0.9386,1.0254,1.1113,1.1613,1.1959,1.2183,1.2542,1.3545,1.4282,1.408,1.4545,1.5475,1.6194,1.666,1.7153,1.7477,1.7589,1.7582,1.749,1.7192,1.6876,1.647,1.6436,1.6492,1.6549,1.6294,1.5609,1.5614,1.5409,1.5345,1.5351,1.5458,1.5238,1.5565,1.5672,1.5672,1.5553,1.4804,1.4051,1.4696,1.5232,1.4691,1.4363,1.4691,1.4476,1.3943,1.329,1.2064,1.2898,1.2238,1.2282,1.2763,1.2774,1.3113,1.3596,1.3788,1.4002,1.4153,1.4214,1.4189,1.4256,1.4262,1.4298,1.4298,1.3221,1.2732,1.2538,1.2657,1.2844,1.3368,1.4157,1.5281,1.5813,1.6072,1.6216,1.6098,1.5434,1.3989,1.2429,1.268,1.1528,1.0177,0.9139,0.8592,0.7741,0.7298,0.707,0.685,0.666,0.6548,0.6456,0.6342,0.6044,0.5434,0.5236,0.5037,0.4734,0.4634,0.5037,0.5338,0.4834,0.4918,0.5815,0.5103,0.4993,0.5059,0.4873,0.4594,0.4472,0.4575,0.4979,0.5857,0.6205,0.7051,0.8149,0.8952,0.9091,0.9795,1.043,1.1157,1.1225,1.1704,1.272,1.3467,1.3827,1.4276,1.5494,1.6168,1.6611,1.7153,1.7477,1.7589,1.7582,1.7279,1.698,1.6567,1.6259,1.6114,1.6136,1.635,1.5781,1.4494,1.4056,1.3352,1.3696,1.4046,1.4159,1.4272,1.4595,1.4798,1.4674,1.4228,1.3491,1.2925,1.326,1.323,1.2803,1.2738,1.328,1.3063,1.2413,1.1764,1.3059,1.3558,1.29,1.2917,1.3304,1.3461,1.3684,1.404,1.4153,1.4195,1.4298,1.4298,1.4298,1.4298,1.4298,1.4298,1.4298,1.3908,1.3323,1.335,1.3698,1.3993,1.4499,1.517,1.6264,1.6332,1.6519,1.6682,1.6672,1.5549,1.4387,1.3381,1.2443,1.1201,0.9936,0.9152,0.8307,0.7713,0.7263,0.7002,0.685,0.6684,0.6562,0.6448,0.6242,0.6145,0.5942,0.5441,0.524,0.5037,0.4935,0.5338,0.5641,0.5138,0.5644,0.6659,0.5646,0.5343,0.5443,0.5268,0.5132,0.5321,0.5317,0.5403,0.5979,0.6279,0.7067,0.7973,0.8762,0.8995,0.9257,0.9933,1.0332,1.0273,1.0849,1.1986,1.2568,1.2881,1.3798,1.4877,1.5743,1.6399,1.7047,1.7589,1.7589,1.7589,1.7173,1.6668,1.6018,1.5549,1.527,1.52,1.5419,1.4773,1.352,1.2432,1.125,1.1923,1.2611,1.2901,1.3096,1.3171,1.327,1.3141,1.2842,1.2243,1.1745,1.1557,1.1482,1.1603,1.1918,1.2195,1.176,1.0752,1.0081,1.3785,1.3914,1.3637,1.3549,1.3673,1.3753,1.3925,1.4208,1.4292,1.4298,1.4298,1.4298,1.4298,1.4298,1.4298,1.4298,1.4298,1.4208,1.3864,1.4015,1.4471,1.4999,1.5311,1.5917,1.6813,1.6843,1.7043,1.7183,1.7086,1.5565,1.4202,1.2935,1.1745,1.0466,0.984,0.911,0.8248,0.755,0.7368,0.708,0.694,0.6725,0.6584,0.6472,0.6239,0.6142,0.6044,0.5744,0.5441,0.5238,0.5037,0.5135,0.5238,0.5338,0.5541,0.5746,0.5849,0.5443,0.5646,0.5644,0.5639,0.5812,0.5917,0.6016,0.6329,0.652,0.7186,0.7799,0.8707,0.9217,0.8924,0.9322,0.9653,0.9772,1.016,1.1072,1.1465,1.1905,1.3023,1.403,1.4894,1.5642,1.6287,1.6717,1.6399,1.6399,1.6086,1.5339,1.4504,1.4126,1.3821,1.3967,1.4211,1.3357,1.2487,1.1131,1.0027,1.0409,1.1069,1.1567,1.1786,1.1841,1.1814,1.1709,1.1318,1.0864,1.0188,0.9403,1.0004,1.0868,1.0692,1.0158,0.954,0.854,0.8231,1.4045,1.428,1.4274,1.4094,1.3896,1.3636,1.3732,1.4022,1.4202,1.4298,1.4298,1.4298,1.4298,1.4298,1.4298,1.4298,1.4316,1.4334,1.4364,1.4604,1.5099,1.5409,1.6013,1.6739,1.7297,1.7177,1.7353,1.7591,1.7455,1.5156,1.3622,1.229,1.1079,0.9999,0.9795,0.9304,0.8443,0.7483,0.7575,0.7323,0.6998,0.6793,0.6651,0.6417,0.6342,0.6239,0.6039,0.5942,0.5641,0.5441,0.5238,0.5238,0.5037,0.5035,0.5037,0.5035,0.524,0.5644,0.6247,0.6042,0.5942,0.6042,0.6139,0.6439,0.6539,0.6839,0.7138,0.764,0.7836,0.8137,0.8336,0.8663,0.909,0.9445,0.9839,1.0335,1.0833,1.105,1.2177,1.3171,1.3814,1.446,1.5209,1.553,1.5209,1.5001,1.4793,1.4148,1.3171,1.2748,1.2559,1.2356,1.2602,1.1507,1.0516,0.9548,0.8811,0.9187,0.9444,0.9827,1.02,1.0396,1.0359,1.0297,0.953,0.8779,0.7836,0.6995,0.7839,0.8459,0.7893,0.7387,0.6891,0.6711,0.6614,1.422,1.4298,1.4112,1.3925,1.3931,1.4016,1.4112,1.4208,1.4298,1.4298,1.4298,1.4298,1.4298,1.4298,1.4316,1.4328,1.4364,1.4545,1.4727,1.5022,1.5737,1.6404,1.6863,1.7229,1.7703,1.7677,1.7837,1.7521,1.7451,1.4769,1.3315,1.2221,1.055,0.9799,0.9516,0.9176,0.8442,0.7732,0.7601,0.7445,0.7047,0.6842,0.6618,0.6452,0.6377,0.6337,0.6237,0.6139,0.5942,0.5641,0.5539,0.5436,0.5336,0.5236,0.5133,0.5131,0.5233,0.5942,0.6242,0.6237,0.6239,0.6339,0.6542,0.6742,0.6745,0.7144,0.7347,0.7456,0.7578,0.7872,0.8141,0.8553,0.8889,0.9357,0.9844,1.0222,1.0586,1.0757,1.1341,1.2309,1.3063,1.3491,1.4132,1.4019,1.3588,1.3048,1.2729,1.295,1.2304,1.1651,1.1227,1.0903,1.0582,0.9585,0.8569,0.7615,0.7103,0.7144,0.7413,0.7793,0.8272,0.872,0.8529,0.8105,0.7324,0.6559,0.6036,0.5608,0.5651,0.5744,0.5514,0.5693,0.5744,0.566,0.5774,1.4389,1.4298,1.4112,1.4022,1.4022,1.4112,1.4208,1.4298,1.4298,1.4298,1.4298,1.4298,1.4461,1.4509,1.454,1.4716,1.4807,1.4996,1.524,1.5634,1.6322,1.6753,1.7165,1.7631,1.7749,1.78,1.7244,1.6779,1.5828,1.4033,1.2431,1.1148,1.0199,0.9617,0.9315,0.9096,0.8574,0.8001,0.7676,0.7552,0.7086,0.6866,0.6744,0.6511,0.6412,0.6437,0.6337,0.6237,0.6039,0.5939,0.5839,0.5737,0.5636,0.5534,0.5432,0.5331,0.5734,0.6239,0.6439,0.6539,0.6539,0.6736,0.6945,0.6948,0.7062,0.7497,0.7519,0.7633,0.7749,0.8079,0.8306,0.8727,0.9124,0.9497,0.9926,1.0413,1.0514,1.068,1.0802,1.1664,1.22,1.263,1.2729,1.2295,1.1969,1.1315,1.0664,1.0882,1.1101,1.0449,0.9779,0.9329,0.8876,0.7874,0.6848,0.5918,0.5426,0.5256,0.5735,0.6208,0.6238,0.6686,0.6323,0.6147,0.5875,0.5419,0.4596,0.4271,0.4053,0.3859,0.369,0.3946,0.4517,0.4512,0.4391,1.4552,1.4316,1.4298,1.4304,1.4226,1.4093,1.4171,1.4334,1.4346,1.4358,1.4346,1.4485,1.471,1.5084,1.5122,1.5382,1.5669,1.5774,1.6019,1.6229,1.66,1.6949,1.7313,1.7638,1.7566,1.7067,1.6385,1.529,1.3694,1.2265,1.0909,1.0069,0.9683,0.934,0.9245,0.9061,0.8574,0.8054,0.7877,0.7552,0.713,0.6877,0.6763,0.6643,0.6526,0.6453,0.6437,0.6337,0.6239,0.6139,0.6042,0.5839,0.5737,0.5636,0.5636,0.5837,0.6237,0.6539,0.6742,0.6842,0.6942,0.7039,0.7144,0.7144,0.7387,0.7769,0.7913,0.7971,0.812,0.8498,0.8873,0.9231,0.9489,0.9914,1.0214,1.0438,1.0651,1.0692,1.0692,1.1122,1.1446,1.1655,1.1324,1.0996,1.0108,0.9453,0.8796,0.8462,0.8682,0.8799,0.8014,0.7422,0.6858,0.6284,0.5259,0.4439,0.3961,0.3907,0.4481,0.5049,0.4888,0.476,0.4894,0.49,0.4748,0.4227,0.3441,0.2732,0.2117,0.2025,0.2443,0.2659,0.3309,0.2749,0.2528,1.4552,1.4304,1.4298,1.4407,1.4612,1.47,1.4676,1.463,1.4781,1.4971,1.5158,1.5158,1.5407,1.5708,1.5694,1.5785,1.5934,1.6111,1.635,1.663,1.6867,1.7297,1.7487,1.7585,1.7049,1.6357,1.5419,1.3965,1.1638,1.031,1.017,0.9562,0.9296,0.9195,0.913,0.9055,0.8578,0.8106,0.7952,0.7692,0.727,0.702,0.6815,0.6717,0.6548,0.6478,0.6453,0.6442,0.6339,0.6339,0.6239,0.6237,0.6237,0.6237,0.6237,0.6442,0.6742,0.7045,0.7039,0.7039,0.7238,0.7447,0.7453,0.7513,0.7766,0.7945,0.8223,0.8196,0.8482,0.8864,0.9221,0.9583,0.9732,1.0007,1.0305,1.0389,1.0582,1.0582,1.0472,1.0135,1.0566,1.0123,0.9794,0.8906,0.8134,0.7587,0.7035,0.6589,0.6478,0.6813,0.6579,0.5994,0.541,0.4953,0.3988,0.3187,0.2734,0.2598,0.3286,0.3767,0.3748,0.3633,0.3627,0.3612,0.3391,0.2904,0.222,0.1708,0.1588,0.1609,0.1923,0.1926,0.1823,0.1598,0.129,1.4708,1.4491,1.4576,1.4721,1.4896,1.5149,1.5161,1.516,1.5285,1.5392,1.5506,1.5707,1.6132,1.6504,1.6545,1.6706,1.6876,1.7035,1.711,1.7014,1.7153,1.742,1.7566,1.7126,1.6385,1.5553,1.4341,1.2755,1.0621,0.9617,0.9357,0.9289,0.9137,0.9086,0.9042,0.888,0.8729,0.8276,0.8045,0.7712,0.7411,0.7083,0.7014,0.682,0.6627,0.6529,0.6494,0.6478,0.6439,0.6437,0.6437,0.6439,0.6537,0.6637,0.6736,0.6942,0.7144,0.7244,0.7344,0.7341,0.7543,0.7662,0.7802,0.8011,0.8087,0.8267,0.8351,0.8431,0.8824,0.9215,0.9567,0.9923,0.9958,1.0105,1.0175,1.0351,1.0363,1.0363,0.9919,0.9475,0.903,0.8475,0.7811,0.6924,0.6369,0.6144,0.5697,0.5029,0.514,0.5697,0.5355,0.4784,0.4311,0.3844,0.2895,0.231,0.2188,0.2065,0.2243,0.2631,0.2521,0.262,0.2618,0.2397,0.2175,0.1787,0.1594,0.1671,0.156,0.1486,0.1102,0.0999,0.0996,0.0987,0.0788,1.4968,1.4763,1.5028,1.5143,1.5203,1.5469,1.5805,1.5989,1.5828,1.5732,1.5909,1.6291,1.6781,1.7258,1.7436,1.7565,1.7565,1.7679,1.7486,1.7467,1.7406,1.7461,1.6868,1.6284,1.5445,1.4495,1.3232,1.1802,1.1024,1.0037,0.9215,0.9133,0.9025,0.8971,0.8967,0.8954,0.8716,0.8491,0.8156,0.782,0.7569,0.7276,0.7091,0.6934,0.6766,0.6605,0.6578,0.6521,0.6437,0.6437,0.6437,0.6539,0.6839,0.6939,0.7138,0.7241,0.7444,0.7543,0.7643,0.7643,0.7766,0.8009,0.8191,0.833,0.8428,0.8496,0.8471,0.8793,0.9204,0.957,0.9926,0.949,0.9399,0.9413,0.934,0.9144,0.8806,0.8696,0.8475,0.8029,0.7697,0.7143,0.6586,0.5808,0.5252,0.5027,0.436,0.358,0.3692,0.436,0.4125,0.3672,0.3314,0.2949,0.2456,0.1886,0.1765,0.1747,0.1725,0.1523,0.1628,0.1622,0.1511,0.1503,0.1495,0.1472,0.1367,0.1453,0.126,0.0689,0.0297,-0.0,-0.0098,-0.0195,0.0,1.5077,1.504,1.5294,1.5511,1.5728,1.6,1.6435,1.6832,1.7014,1.7029,1.7116,1.7268,1.7652,1.8038,1.7981,1.8032,1.8008,1.7859,1.764,1.7461,1.7485,1.7003,1.6172,1.5693,1.4495,1.2892,1.1712,1.0915,1.0011,0.9412,0.9089,0.9005,0.894,0.8937,0.8937,0.8937,0.8826,0.8716,0.8266,0.7934,0.77,0.7281,0.698,0.6918,0.6782,0.6657,0.6603,0.6516,0.6561,0.6642,0.6439,0.6739,0.7241,0.7347,0.7444,0.7543,0.7772,0.7882,0.7872,0.7889,0.7925,0.8086,0.8183,0.8442,0.8557,0.8621,0.871,0.9047,0.9343,0.9699,0.9596,0.903,0.8585,0.8481,0.8374,0.7811,0.7252,0.7141,0.6919,0.6586,0.6255,0.5808,0.525,0.4693,0.4249,0.358,0.28,0.2242,0.2353,0.2798,0.2892,0.255,0.2422,0.2065,0.1701,0.1677,0.1559,0.1436,0.1418,0.1119,0.0718,0.0614,0.0713,0.0913,0.0907,0.0889,0.0875,0.1256,0.0874,0.0098,-0.0786,-0.127,-0.2058,-0.2351,-0.1681,1.5348,1.5481,1.5734,1.5928,1.6079,1.6235,1.6673,1.734,1.7595,1.7805,1.8105,1.8216,1.8413,1.8612,1.8408,1.8173,1.809,1.7879,1.7695,1.7596,1.7244,1.6644,1.593,1.496,1.357,1.1963,1.0771,0.9978,0.9267,0.9069,0.8998,0.8944,0.8937,0.8937,0.8937,0.8937,0.8937,0.8826,0.8377,0.8045,0.7715,0.7425,0.7059,0.6994,0.6902,0.6771,0.6668,0.6688,0.6707,0.6865,0.6842,0.7196,0.7623,0.7753,0.785,0.7971,0.8103,0.8218,0.8076,0.7985,0.7814,0.766,0.7694,0.7639,0.6818,0.6869,0.7923,0.8238,0.8355,0.8706,0.7796,0.7124,0.7025,0.7033,0.6924,0.6589,0.6364,0.6139,0.5584,0.4916,0.4583,0.425,0.3692,0.3135,0.28,0.28,0.1907,0.1907,0.1795,0.1795,0.1782,0.1774,0.1656,0.174,0.1705,0.1578,0.146,0.1336,0.1115,0.0608,0.0,-0.0103,-0.0206,-0.0,0.01,0.0,0.0194,0.0387,0.0097,-0.0687,-0.1759,-0.2719,-0.3515,-0.4114,-0.3413,1.5662,1.5958,1.6175,1.6326,1.638,1.6502,1.7006,1.769,1.7828,1.8188,1.8818,1.8838,1.8864,1.8843,1.8859,1.8597,1.8298,1.7948,1.7719,1.7485,1.7244,1.6172,1.4955,1.397,1.2386,1.1129,0.9989,0.9536,0.91,0.9018,0.8964,0.894,0.8937,0.8937,0.8937,0.8937,0.8937,0.8826,0.8602,0.8377,0.7931,0.7487,0.7365,0.7218,0.7043,0.6934,0.6926,0.6917,0.6899,0.7065,0.7137,0.6873,0.6916,0.705,0.7259,0.7276,0.7321,0.7407,0.7579,0.7413,0.6995,0.6722,0.6666,0.6317,0.5473,0.5731,0.678,0.7017,0.7133,0.7027,0.6123,0.5569,0.5579,0.5475,0.5365,0.5254,0.5029,0.4916,0.4249,0.3469,0.3245,0.2911,0.2465,0.1907,0.1794,0.1794,0.1795,0.1795,0.1795,0.1795,0.1789,0.1563,0.1448,0.1533,0.1609,0.1489,0.1373,0.0936,0.0617,-0.0,-0.061,-0.0931,-0.1034,-0.1008,-0.0992,-0.069,-0.0879,-0.0776,-0.117,-0.1672,-0.2328,-0.3375,-0.4564,-0.5045,-0.4864,1.5777,1.6211,1.6266,1.6525,1.6881,1.7258,1.7659,1.8231,1.8468,1.8879,1.9117,1.9028,1.8912,1.8912,1.8609,1.8305,1.8077,1.7843,1.7602,1.7485,1.6649,1.5337,1.4059,1.2713,1.1209,1.0111,0.9401,0.9209,0.9035,0.8971,0.8937,0.8937,0.8937,0.8937,0.8937,0.8937,0.8937,0.8826,0.8709,0.8374,0.8152,0.782,0.749,0.7221,0.7043,0.7203,0.724,0.7143,0.7503,0.7574,0.7128,0.619,0.5791,0.5805,0.6018,0.6135,0.6174,0.613,0.6223,0.6263,0.5838,0.5497,0.5392,0.5366,0.4954,0.4979,0.5443,0.4991,0.5107,0.5349,0.4792,0.4242,0.4139,0.3804,0.3582,0.3246,0.2912,0.2911,0.2576,0.2351,0.2349,0.2127,0.213,0.1793,0.1791,0.1792,0.157,0.1683,0.1795,0.1795,0.1683,0.1346,0.1009,0.1331,0.1528,0.1301,0.1075,0.0634,0.0,-0.0824,-0.1444,-0.1783,-0.1874,-0.1823,-0.1507,-0.1201,-0.1387,-0.1862,-0.2562,-0.297,-0.3093,-0.3828,-0.5207,-0.5764,-0.5469]}]]